<?xml version="1.0" encoding="UTF-8"?>
<gpx version="1.1" creator="https://www.youtrack.es" xsi:schemaLocation="http://www.topografix.com/GPX/1/1 http://www.topografix.com/GPX/1/1/gpx.xsd http://www.garmin.com/xmlschemas/GpxExtensions/v3 http://www.garmin.com/xmlschemas/GpxExtensionsv3.xsd http://www.garmin.com/xmlschemas/TrackPointExtension/v1 http://www.garmin.com/xmlschemas/TrackPointExtensionv1.xsd" xmlns:gpxtpx="http://www.garmin.com/xmlschemas/TrackPointExtension/v1" xmlns:gpxx="http://www.garmin.com/xmlschemas/GpxExtensions/v3" xmlns:xsi="http://www.w3.org/2001/XMLSchema-instance">
  <metadata>
    <link href="https://www.youtrack.es">
      <text>YouTrack.es</text>
    </link>
    <time>2026-05-09T02:55:30Z</time>
  </metadata>
  <trk>
    <src>https://www.youtrack.es</src>
    <link href="https://www.youtrack.es/ruta/9898-suge-carbo-agosto">
      <text>YouTrack.es</text>
    </link>
    <trkseg>
      <trkpt lat="42.999101" lon="-1.519351">
        <ele>674.134</ele>
        <time>2019-08-22T16:48:14Z</time>
      </trkpt>
      <trkpt lat="42.999064" lon="-1.519315">
        <ele>674.105</ele>
        <time>2019-08-22T16:48:33Z</time>
      </trkpt>
      <trkpt lat="42.999054" lon="-1.519249">
        <ele>674.139</ele>
        <time>2019-08-22T16:48:36Z</time>
      </trkpt>
      <trkpt lat="42.999073" lon="-1.519162">
        <ele>674.133</ele>
        <time>2019-08-22T16:48:39Z</time>
      </trkpt>
      <trkpt lat="42.999087" lon="-1.519071">
        <ele>674.123</ele>
        <time>2019-08-22T16:48:42Z</time>
      </trkpt>
      <trkpt lat="42.99911" lon="-1.518981">
        <ele>674.160</ele>
        <time>2019-08-22T16:48:45Z</time>
      </trkpt>
      <trkpt lat="42.999124" lon="-1.518918">
        <ele>674.104</ele>
        <time>2019-08-22T16:48:47Z</time>
      </trkpt>
      <trkpt lat="42.999127" lon="-1.518837">
        <ele>674.186</ele>
        <time>2019-08-22T16:48:50Z</time>
      </trkpt>
      <trkpt lat="42.999146" lon="-1.518759">
        <ele>674.176</ele>
        <time>2019-08-22T16:48:53Z</time>
      </trkpt>
      <trkpt lat="42.999166" lon="-1.518697">
        <ele>674.100</ele>
        <time>2019-08-22T16:48:56Z</time>
      </trkpt>
      <trkpt lat="42.999196" lon="-1.518614">
        <ele>674.198</ele>
        <time>2019-08-22T16:48:59Z</time>
      </trkpt>
      <trkpt lat="42.999222" lon="-1.518548">
        <ele>674.128</ele>
        <time>2019-08-22T16:49:01Z</time>
      </trkpt>
      <trkpt lat="42.999246" lon="-1.518474">
        <ele>674.138</ele>
        <time>2019-08-22T16:49:03Z</time>
      </trkpt>
      <trkpt lat="42.999282" lon="-1.518413">
        <ele>674.114</ele>
        <time>2019-08-22T16:49:05Z</time>
      </trkpt>
      <trkpt lat="42.999317" lon="-1.518364">
        <ele>674.121</ele>
        <time>2019-08-22T16:49:07Z</time>
      </trkpt>
      <trkpt lat="42.999372" lon="-1.518319">
        <ele>673.792</ele>
        <time>2019-08-22T16:49:10Z</time>
      </trkpt>
      <trkpt lat="42.999404" lon="-1.518274">
        <ele>673.612</ele>
        <time>2019-08-22T16:49:12Z</time>
      </trkpt>
      <trkpt lat="42.999446" lon="-1.518227">
        <ele>673.327</ele>
        <time>2019-08-22T16:49:15Z</time>
      </trkpt>
      <trkpt lat="42.999502" lon="-1.518182">
        <ele>673.885</ele>
        <time>2019-08-22T16:49:18Z</time>
      </trkpt>
      <trkpt lat="42.999547" lon="-1.518135">
        <ele>674.459</ele>
        <time>2019-08-22T16:49:21Z</time>
      </trkpt>
      <trkpt lat="42.999584" lon="-1.518088">
        <ele>674.649</ele>
        <time>2019-08-22T16:49:24Z</time>
      </trkpt>
      <trkpt lat="42.999631" lon="-1.51806">
        <ele>674.551</ele>
        <time>2019-08-22T16:49:27Z</time>
      </trkpt>
      <trkpt lat="42.999705" lon="-1.518022">
        <ele>674.848</ele>
        <time>2019-08-22T16:49:33Z</time>
      </trkpt>
      <trkpt lat="42.999749" lon="-1.518039">
        <ele>675.513</ele>
        <time>2019-08-22T16:50:05Z</time>
      </trkpt>
      <trkpt lat="42.999799" lon="-1.518004">
        <ele>676.386</ele>
        <time>2019-08-22T16:50:11Z</time>
      </trkpt>
      <trkpt lat="42.999869" lon="-1.517974">
        <ele>677.279</ele>
        <time>2019-08-22T16:50:23Z</time>
      </trkpt>
      <trkpt lat="42.999921" lon="-1.51801">
        <ele>677.950</ele>
        <time>2019-08-22T16:50:40Z</time>
      </trkpt>
      <trkpt lat="42.999971" lon="-1.518024">
        <ele>678.159</ele>
        <time>2019-08-22T16:50:45Z</time>
      </trkpt>
      <trkpt lat="43.000016" lon="-1.51803">
        <ele>679.028</ele>
        <time>2019-08-22T16:50:51Z</time>
      </trkpt>
      <trkpt lat="43.000057" lon="-1.51808">
        <ele>676.855</ele>
        <time>2019-08-22T16:50:56Z</time>
      </trkpt>
      <trkpt lat="43.0001" lon="-1.518101">
        <ele>676.378</ele>
        <time>2019-08-22T16:51:00Z</time>
      </trkpt>
      <trkpt lat="43.000144" lon="-1.518131">
        <ele>676.577</ele>
        <time>2019-08-22T16:51:03Z</time>
      </trkpt>
      <trkpt lat="43.000195" lon="-1.518161">
        <ele>677.840</ele>
        <time>2019-08-22T16:51:06Z</time>
      </trkpt>
      <trkpt lat="43.000242" lon="-1.518204">
        <ele>678.584</ele>
        <time>2019-08-22T16:51:09Z</time>
      </trkpt>
      <trkpt lat="43.000301" lon="-1.518234">
        <ele>679.674</ele>
        <time>2019-08-22T16:51:13Z</time>
      </trkpt>
      <trkpt lat="43.00036" lon="-1.518261">
        <ele>681.203</ele>
        <time>2019-08-22T16:51:16Z</time>
      </trkpt>
      <trkpt lat="43.000404" lon="-1.518282">
        <ele>683.463</ele>
        <time>2019-08-22T16:51:19Z</time>
      </trkpt>
      <trkpt lat="43.000456" lon="-1.51832">
        <ele>685.464</ele>
        <time>2019-08-22T16:51:23Z</time>
      </trkpt>
      <trkpt lat="43.00051" lon="-1.518365">
        <ele>685.608</ele>
        <time>2019-08-22T16:51:27Z</time>
      </trkpt>
      <trkpt lat="43.000561" lon="-1.51841">
        <ele>686.275</ele>
        <time>2019-08-22T16:51:30Z</time>
      </trkpt>
      <trkpt lat="43.000619" lon="-1.518449">
        <ele>686.023</ele>
        <time>2019-08-22T16:51:33Z</time>
      </trkpt>
      <trkpt lat="43.000669" lon="-1.518474">
        <ele>685.929</ele>
        <time>2019-08-22T16:51:36Z</time>
      </trkpt>
      <trkpt lat="43.000724" lon="-1.518503">
        <ele>686.767</ele>
        <time>2019-08-22T16:51:39Z</time>
      </trkpt>
      <trkpt lat="43.000771" lon="-1.518536">
        <ele>685.892</ele>
        <time>2019-08-22T16:51:41Z</time>
      </trkpt>
      <trkpt lat="43.000816" lon="-1.51858">
        <ele>687.199</ele>
        <time>2019-08-22T16:51:45Z</time>
      </trkpt>
      <trkpt lat="43.000772" lon="-1.518567">
        <ele>687.798</ele>
        <time>2019-08-22T16:51:57Z</time>
      </trkpt>
      <trkpt lat="43.000726" lon="-1.518537">
        <ele>688.089</ele>
        <time>2019-08-22T16:52:13Z</time>
      </trkpt>
      <trkpt lat="43.000693" lon="-1.518483">
        <ele>687.003</ele>
        <time>2019-08-22T16:52:18Z</time>
      </trkpt>
      <trkpt lat="43.000666" lon="-1.51843">
        <ele>686.427</ele>
        <time>2019-08-22T16:52:23Z</time>
      </trkpt>
      <trkpt lat="43.000634" lon="-1.518366">
        <ele>687.786</ele>
        <time>2019-08-22T16:52:28Z</time>
      </trkpt>
      <trkpt lat="43.000601" lon="-1.518288">
        <ele>688.646</ele>
        <time>2019-08-22T16:52:33Z</time>
      </trkpt>
      <trkpt lat="43.000584" lon="-1.518222">
        <ele>688.143</ele>
        <time>2019-08-22T16:52:38Z</time>
      </trkpt>
      <trkpt lat="43.000556" lon="-1.518163">
        <ele>687.935</ele>
        <time>2019-08-22T16:52:43Z</time>
      </trkpt>
      <trkpt lat="43.000529" lon="-1.5181">
        <ele>687.155</ele>
        <time>2019-08-22T16:52:48Z</time>
      </trkpt>
      <trkpt lat="43.000503" lon="-1.518048">
        <ele>686.563</ele>
        <time>2019-08-22T16:52:51Z</time>
      </trkpt>
      <trkpt lat="43.000493" lon="-1.517984">
        <ele>687.831</ele>
        <time>2019-08-22T16:52:54Z</time>
      </trkpt>
      <trkpt lat="43.000538" lon="-1.517954">
        <ele>690.729</ele>
        <time>2019-08-22T16:53:00Z</time>
      </trkpt>
      <trkpt lat="43.000579" lon="-1.517926">
        <ele>692.183</ele>
        <time>2019-08-22T16:53:06Z</time>
      </trkpt>
      <trkpt lat="43.000601" lon="-1.517872">
        <ele>694.450</ele>
        <time>2019-08-22T16:53:16Z</time>
      </trkpt>
      <trkpt lat="43.00064" lon="-1.517834">
        <ele>696.411</ele>
        <time>2019-08-22T16:53:27Z</time>
      </trkpt>
      <trkpt lat="43.000681" lon="-1.51786">
        <ele>698.080</ele>
        <time>2019-08-22T16:53:34Z</time>
      </trkpt>
      <trkpt lat="43.000729" lon="-1.517875">
        <ele>699.767</ele>
        <time>2019-08-22T16:53:37Z</time>
      </trkpt>
      <trkpt lat="43.000767" lon="-1.517916">
        <ele>700.926</ele>
        <time>2019-08-22T16:53:41Z</time>
      </trkpt>
      <trkpt lat="43.000812" lon="-1.517955">
        <ele>704.263</ele>
        <time>2019-08-22T16:53:48Z</time>
      </trkpt>
      <trkpt lat="43.00086" lon="-1.51799">
        <ele>705.644</ele>
        <time>2019-08-22T16:53:52Z</time>
      </trkpt>
      <trkpt lat="43.0009" lon="-1.518022">
        <ele>705.783</ele>
        <time>2019-08-22T16:53:55Z</time>
      </trkpt>
      <trkpt lat="43.000944" lon="-1.518059">
        <ele>705.619</ele>
        <time>2019-08-22T16:53:58Z</time>
      </trkpt>
      <trkpt lat="43.000984" lon="-1.518104">
        <ele>706.882</ele>
        <time>2019-08-22T16:54:01Z</time>
      </trkpt>
      <trkpt lat="43.001036" lon="-1.518128">
        <ele>708.552</ele>
        <time>2019-08-22T16:54:05Z</time>
      </trkpt>
      <trkpt lat="43.001095" lon="-1.518129">
        <ele>709.262</ele>
        <time>2019-08-22T16:54:09Z</time>
      </trkpt>
      <trkpt lat="43.001142" lon="-1.518159">
        <ele>709.086</ele>
        <time>2019-08-22T16:54:12Z</time>
      </trkpt>
      <trkpt lat="43.001188" lon="-1.51822">
        <ele>708.815</ele>
        <time>2019-08-22T16:54:15Z</time>
      </trkpt>
      <trkpt lat="43.001221" lon="-1.518267">
        <ele>708.459</ele>
        <time>2019-08-22T16:54:17Z</time>
      </trkpt>
      <trkpt lat="43.001262" lon="-1.518327">
        <ele>708.655</ele>
        <time>2019-08-22T16:54:20Z</time>
      </trkpt>
      <trkpt lat="43.001298" lon="-1.518378">
        <ele>709.176</ele>
        <time>2019-08-22T16:54:23Z</time>
      </trkpt>
      <trkpt lat="43.001322" lon="-1.518437">
        <ele>709.962</ele>
        <time>2019-08-22T16:54:26Z</time>
      </trkpt>
      <trkpt lat="43.001333" lon="-1.518502">
        <ele>711.570</ele>
        <time>2019-08-22T16:54:40Z</time>
      </trkpt>
      <trkpt lat="43.001342" lon="-1.518564">
        <ele>713.710</ele>
        <time>2019-08-22T16:54:45Z</time>
      </trkpt>
      <trkpt lat="43.001365" lon="-1.518638">
        <ele>715.769</ele>
        <time>2019-08-22T16:54:49Z</time>
      </trkpt>
      <trkpt lat="43.00138" lon="-1.518722">
        <ele>716.325</ele>
        <time>2019-08-22T16:54:52Z</time>
      </trkpt>
      <trkpt lat="43.001397" lon="-1.518805">
        <ele>717.445</ele>
        <time>2019-08-22T16:54:55Z</time>
      </trkpt>
      <trkpt lat="43.00141" lon="-1.518874">
        <ele>717.782</ele>
        <time>2019-08-22T16:54:58Z</time>
      </trkpt>
      <trkpt lat="43.00143" lon="-1.518945">
        <ele>717.908</ele>
        <time>2019-08-22T16:55:01Z</time>
      </trkpt>
      <trkpt lat="43.001427" lon="-1.519013">
        <ele>716.889</ele>
        <time>2019-08-22T16:55:04Z</time>
      </trkpt>
      <trkpt lat="43.001439" lon="-1.519073">
        <ele>716.041</ele>
        <time>2019-08-22T16:55:08Z</time>
      </trkpt>
      <trkpt lat="43.001462" lon="-1.51914">
        <ele>715.476</ele>
        <time>2019-08-22T16:55:12Z</time>
      </trkpt>
      <trkpt lat="43.001479" lon="-1.51921">
        <ele>715.247</ele>
        <time>2019-08-22T16:55:15Z</time>
      </trkpt>
      <trkpt lat="43.001501" lon="-1.519272">
        <ele>714.641</ele>
        <time>2019-08-22T16:55:18Z</time>
      </trkpt>
      <trkpt lat="43.001521" lon="-1.519337">
        <ele>713.933</ele>
        <time>2019-08-22T16:55:22Z</time>
      </trkpt>
      <trkpt lat="43.001528" lon="-1.519401">
        <ele>713.964</ele>
        <time>2019-08-22T16:55:25Z</time>
      </trkpt>
      <trkpt lat="43.001527" lon="-1.519484">
        <ele>714.744</ele>
        <time>2019-08-22T16:55:29Z</time>
      </trkpt>
      <trkpt lat="43.001499" lon="-1.519569">
        <ele>717.815</ele>
        <time>2019-08-22T16:55:36Z</time>
      </trkpt>
      <trkpt lat="43.00152" lon="-1.519508">
        <ele>718.224</ele>
        <time>2019-08-22T16:55:46Z</time>
      </trkpt>
      <trkpt lat="43.001567" lon="-1.519536">
        <ele>718.424</ele>
        <time>2019-08-22T16:55:51Z</time>
      </trkpt>
      <trkpt lat="43.00159" lon="-1.519589">
        <ele>720.551</ele>
        <time>2019-08-22T16:55:56Z</time>
      </trkpt>
      <trkpt lat="43.001598" lon="-1.519662">
        <ele>720.947</ele>
        <time>2019-08-22T16:56:00Z</time>
      </trkpt>
      <trkpt lat="43.001596" lon="-1.519734">
        <ele>721.474</ele>
        <time>2019-08-22T16:56:04Z</time>
      </trkpt>
      <trkpt lat="43.001648" lon="-1.519756">
        <ele>723.106</ele>
        <time>2019-08-22T16:56:19Z</time>
      </trkpt>
      <trkpt lat="43.001669" lon="-1.519812">
        <ele>725.135</ele>
        <time>2019-08-22T16:56:24Z</time>
      </trkpt>
      <trkpt lat="43.001678" lon="-1.519882">
        <ele>726.484</ele>
        <time>2019-08-22T16:56:29Z</time>
      </trkpt>
      <trkpt lat="43.001676" lon="-1.519948">
        <ele>726.784</ele>
        <time>2019-08-22T16:56:35Z</time>
      </trkpt>
      <trkpt lat="43.001675" lon="-1.520021">
        <ele>728.079</ele>
        <time>2019-08-22T16:56:38Z</time>
      </trkpt>
      <trkpt lat="43.001669" lon="-1.5201">
        <ele>728.904</ele>
        <time>2019-08-22T16:56:41Z</time>
      </trkpt>
      <trkpt lat="43.001655" lon="-1.520167">
        <ele>730.257</ele>
        <time>2019-08-22T16:56:44Z</time>
      </trkpt>
      <trkpt lat="43.001656" lon="-1.520233">
        <ele>730.651</ele>
        <time>2019-08-22T16:56:48Z</time>
      </trkpt>
      <trkpt lat="43.001656" lon="-1.520312">
        <ele>732.154</ele>
        <time>2019-08-22T16:56:51Z</time>
      </trkpt>
      <trkpt lat="43.001654" lon="-1.520392">
        <ele>734.020</ele>
        <time>2019-08-22T16:56:55Z</time>
      </trkpt>
      <trkpt lat="43.001639" lon="-1.520455">
        <ele>734.861</ele>
        <time>2019-08-22T16:56:59Z</time>
      </trkpt>
      <trkpt lat="43.001617" lon="-1.520522">
        <ele>736.293</ele>
        <time>2019-08-22T16:57:02Z</time>
      </trkpt>
      <trkpt lat="43.001606" lon="-1.520589">
        <ele>737.061</ele>
        <time>2019-08-22T16:57:06Z</time>
      </trkpt>
      <trkpt lat="43.001581" lon="-1.520665">
        <ele>737.981</ele>
        <time>2019-08-22T16:57:09Z</time>
      </trkpt>
      <trkpt lat="43.001556" lon="-1.520721">
        <ele>738.807</ele>
        <time>2019-08-22T16:57:12Z</time>
      </trkpt>
      <trkpt lat="43.001527" lon="-1.520784">
        <ele>740.670</ele>
        <time>2019-08-22T16:57:16Z</time>
      </trkpt>
      <trkpt lat="43.0015" lon="-1.520841">
        <ele>741.360</ele>
        <time>2019-08-22T16:57:19Z</time>
      </trkpt>
      <trkpt lat="43.001467" lon="-1.520909">
        <ele>742.127</ele>
        <time>2019-08-22T16:57:22Z</time>
      </trkpt>
      <trkpt lat="43.001441" lon="-1.52097">
        <ele>742.845</ele>
        <time>2019-08-22T16:57:25Z</time>
      </trkpt>
      <trkpt lat="43.001396" lon="-1.521026">
        <ele>742.038</ele>
        <time>2019-08-22T16:57:29Z</time>
      </trkpt>
      <trkpt lat="43.001351" lon="-1.521066">
        <ele>741.865</ele>
        <time>2019-08-22T16:57:32Z</time>
      </trkpt>
      <trkpt lat="43.001298" lon="-1.521103">
        <ele>742.159</ele>
        <time>2019-08-22T16:57:35Z</time>
      </trkpt>
      <trkpt lat="43.001254" lon="-1.521147">
        <ele>742.300</ele>
        <time>2019-08-22T16:57:38Z</time>
      </trkpt>
      <trkpt lat="43.001218" lon="-1.521184">
        <ele>742.617</ele>
        <time>2019-08-22T16:57:41Z</time>
      </trkpt>
      <trkpt lat="43.001185" lon="-1.521228">
        <ele>743.085</ele>
        <time>2019-08-22T16:57:45Z</time>
      </trkpt>
      <trkpt lat="43.001139" lon="-1.521261">
        <ele>743.147</ele>
        <time>2019-08-22T16:57:48Z</time>
      </trkpt>
      <trkpt lat="43.001096" lon="-1.521298">
        <ele>742.774</ele>
        <time>2019-08-22T16:57:51Z</time>
      </trkpt>
      <trkpt lat="43.001055" lon="-1.521325">
        <ele>742.257</ele>
        <time>2019-08-22T16:57:55Z</time>
      </trkpt>
      <trkpt lat="43.000995" lon="-1.521347">
        <ele>741.986</ele>
        <time>2019-08-22T16:58:05Z</time>
      </trkpt>
      <trkpt lat="43.001013" lon="-1.521405">
        <ele>745.915</ele>
        <time>2019-08-22T16:58:46Z</time>
      </trkpt>
      <trkpt lat="43.001066" lon="-1.521411">
        <ele>749.564</ele>
        <time>2019-08-22T16:58:49Z</time>
      </trkpt>
      <trkpt lat="43.001113" lon="-1.521394">
        <ele>751.932</ele>
        <time>2019-08-22T16:58:53Z</time>
      </trkpt>
      <trkpt lat="43.00116" lon="-1.521398">
        <ele>752.416</ele>
        <time>2019-08-22T16:58:57Z</time>
      </trkpt>
      <trkpt lat="43.001216" lon="-1.52142">
        <ele>753.197</ele>
        <time>2019-08-22T16:59:01Z</time>
      </trkpt>
      <trkpt lat="43.001224" lon="-1.521487">
        <ele>753.927</ele>
        <time>2019-08-22T16:59:06Z</time>
      </trkpt>
      <trkpt lat="43.00118" lon="-1.521542">
        <ele>754.101</ele>
        <time>2019-08-22T16:59:11Z</time>
      </trkpt>
      <trkpt lat="43.00114" lon="-1.521584">
        <ele>754.253</ele>
        <time>2019-08-22T16:59:14Z</time>
      </trkpt>
      <trkpt lat="43.001088" lon="-1.521625">
        <ele>754.585</ele>
        <time>2019-08-22T16:59:17Z</time>
      </trkpt>
      <trkpt lat="43.00104" lon="-1.521663">
        <ele>753.449</ele>
        <time>2019-08-22T16:59:20Z</time>
      </trkpt>
      <trkpt lat="43.001007" lon="-1.521706">
        <ele>753.300</ele>
        <time>2019-08-22T16:59:23Z</time>
      </trkpt>
      <trkpt lat="43.000961" lon="-1.521728">
        <ele>752.369</ele>
        <time>2019-08-22T16:59:28Z</time>
      </trkpt>
      <trkpt lat="43.001005" lon="-1.521697">
        <ele>752.055</ele>
        <time>2019-08-22T16:59:48Z</time>
      </trkpt>
      <trkpt lat="43.00105" lon="-1.521697">
        <ele>752.440</ele>
        <time>2019-08-22T16:59:53Z</time>
      </trkpt>
      <trkpt lat="43.001107" lon="-1.521693">
        <ele>752.026</ele>
        <time>2019-08-22T16:59:57Z</time>
      </trkpt>
      <trkpt lat="43.001135" lon="-1.521742">
        <ele>752.511</ele>
        <time>2019-08-22T17:00:01Z</time>
      </trkpt>
      <trkpt lat="43.001123" lon="-1.521808">
        <ele>754.021</ele>
        <time>2019-08-22T17:00:07Z</time>
      </trkpt>
      <trkpt lat="43.001081" lon="-1.52184">
        <ele>755.836</ele>
        <time>2019-08-22T17:00:11Z</time>
      </trkpt>
      <trkpt lat="43.001034" lon="-1.521871">
        <ele>751.835</ele>
        <time>2019-08-22T17:00:15Z</time>
      </trkpt>
      <trkpt lat="43.00099" lon="-1.521902">
        <ele>749.792</ele>
        <time>2019-08-22T17:00:20Z</time>
      </trkpt>
      <trkpt lat="43.000954" lon="-1.521951">
        <ele>749.890</ele>
        <time>2019-08-22T17:00:25Z</time>
      </trkpt>
      <trkpt lat="43.000863" lon="-1.521952">
        <ele>753.831</ele>
        <time>2019-08-22T17:00:42Z</time>
      </trkpt>
      <trkpt lat="43.000913" lon="-1.521979">
        <ele>757.839</ele>
        <time>2019-08-22T17:01:04Z</time>
      </trkpt>
      <trkpt lat="43.000958" lon="-1.521967">
        <ele>760.486</ele>
        <time>2019-08-22T17:01:09Z</time>
      </trkpt>
      <trkpt lat="43.00102" lon="-1.521978">
        <ele>763.153</ele>
        <time>2019-08-22T17:01:12Z</time>
      </trkpt>
      <trkpt lat="43.001074" lon="-1.521998">
        <ele>765.159</ele>
        <time>2019-08-22T17:01:15Z</time>
      </trkpt>
      <trkpt lat="43.001121" lon="-1.522018">
        <ele>766.385</ele>
        <time>2019-08-22T17:01:18Z</time>
      </trkpt>
      <trkpt lat="43.001166" lon="-1.522033">
        <ele>767.352</ele>
        <time>2019-08-22T17:01:22Z</time>
      </trkpt>
      <trkpt lat="43.001227" lon="-1.522055">
        <ele>769.044</ele>
        <time>2019-08-22T17:01:26Z</time>
      </trkpt>
      <trkpt lat="43.001281" lon="-1.522088">
        <ele>770.767</ele>
        <time>2019-08-22T17:01:30Z</time>
      </trkpt>
      <trkpt lat="43.001326" lon="-1.522131">
        <ele>771.567</ele>
        <time>2019-08-22T17:01:32Z</time>
      </trkpt>
      <trkpt lat="43.001365" lon="-1.522173">
        <ele>771.321</ele>
        <time>2019-08-22T17:01:34Z</time>
      </trkpt>
      <trkpt lat="43.001404" lon="-1.522222">
        <ele>771.581</ele>
        <time>2019-08-22T17:01:37Z</time>
      </trkpt>
      <trkpt lat="43.001442" lon="-1.522275">
        <ele>773.054</ele>
        <time>2019-08-22T17:01:40Z</time>
      </trkpt>
      <trkpt lat="43.001467" lon="-1.522371">
        <ele>774.208</ele>
        <time>2019-08-22T17:01:47Z</time>
      </trkpt>
      <trkpt lat="43.001459" lon="-1.522437">
        <ele>775.810</ele>
        <time>2019-08-22T17:01:53Z</time>
      </trkpt>
      <trkpt lat="43.001466" lon="-1.522498">
        <ele>775.842</ele>
        <time>2019-08-22T17:02:02Z</time>
      </trkpt>
      <trkpt lat="43.001489" lon="-1.522557">
        <ele>775.981</ele>
        <time>2019-08-22T17:02:07Z</time>
      </trkpt>
      <trkpt lat="43.001516" lon="-1.522612">
        <ele>776.239</ele>
        <time>2019-08-22T17:02:09Z</time>
      </trkpt>
      <trkpt lat="43.001548" lon="-1.522683">
        <ele>775.786</ele>
        <time>2019-08-22T17:02:12Z</time>
      </trkpt>
      <trkpt lat="43.001576" lon="-1.522746">
        <ele>774.989</ele>
        <time>2019-08-22T17:02:15Z</time>
      </trkpt>
      <trkpt lat="43.001599" lon="-1.522802">
        <ele>772.952</ele>
        <time>2019-08-22T17:02:19Z</time>
      </trkpt>
      <trkpt lat="43.001608" lon="-1.522867">
        <ele>770.832</ele>
        <time>2019-08-22T17:02:22Z</time>
      </trkpt>
      <trkpt lat="43.001625" lon="-1.522925">
        <ele>769.985</ele>
        <time>2019-08-22T17:02:25Z</time>
      </trkpt>
      <trkpt lat="43.001658" lon="-1.523001">
        <ele>769.755</ele>
        <time>2019-08-22T17:02:28Z</time>
      </trkpt>
      <trkpt lat="43.001688" lon="-1.523054">
        <ele>769.581</ele>
        <time>2019-08-22T17:02:31Z</time>
      </trkpt>
      <trkpt lat="43.001725" lon="-1.523131">
        <ele>771.029</ele>
        <time>2019-08-22T17:02:37Z</time>
      </trkpt>
      <trkpt lat="43.001758" lon="-1.523189">
        <ele>772.137</ele>
        <time>2019-08-22T17:02:42Z</time>
      </trkpt>
      <trkpt lat="43.001776" lon="-1.523247">
        <ele>773.281</ele>
        <time>2019-08-22T17:02:48Z</time>
      </trkpt>
      <trkpt lat="43.00178" lon="-1.52331">
        <ele>776.032</ele>
        <time>2019-08-22T17:02:53Z</time>
      </trkpt>
      <trkpt lat="43.001815" lon="-1.523406">
        <ele>777.915</ele>
        <time>2019-08-22T17:03:06Z</time>
      </trkpt>
      <trkpt lat="43.001853" lon="-1.523447">
        <ele>780.197</ele>
        <time>2019-08-22T17:03:21Z</time>
      </trkpt>
      <trkpt lat="43.001869" lon="-1.523507">
        <ele>781.918</ele>
        <time>2019-08-22T17:03:26Z</time>
      </trkpt>
      <trkpt lat="43.001868" lon="-1.523586">
        <ele>782.955</ele>
        <time>2019-08-22T17:03:30Z</time>
      </trkpt>
      <trkpt lat="43.001884" lon="-1.523648">
        <ele>784.965</ele>
        <time>2019-08-22T17:03:33Z</time>
      </trkpt>
      <trkpt lat="43.001908" lon="-1.523707">
        <ele>785.531</ele>
        <time>2019-08-22T17:03:36Z</time>
      </trkpt>
      <trkpt lat="43.001918" lon="-1.52377">
        <ele>782.880</ele>
        <time>2019-08-22T17:03:40Z</time>
      </trkpt>
      <trkpt lat="43.001926" lon="-1.523848">
        <ele>780.938</ele>
        <time>2019-08-22T17:03:44Z</time>
      </trkpt>
      <trkpt lat="43.001937" lon="-1.523937">
        <ele>779.493</ele>
        <time>2019-08-22T17:03:47Z</time>
      </trkpt>
      <trkpt lat="43.001938" lon="-1.524017">
        <ele>778.042</ele>
        <time>2019-08-22T17:03:50Z</time>
      </trkpt>
      <trkpt lat="43.001936" lon="-1.524078">
        <ele>776.379</ele>
        <time>2019-08-22T17:03:52Z</time>
      </trkpt>
      <trkpt lat="43.001928" lon="-1.524152">
        <ele>776.320</ele>
        <time>2019-08-22T17:03:54Z</time>
      </trkpt>
      <trkpt lat="43.001914" lon="-1.524235">
        <ele>777.962</ele>
        <time>2019-08-22T17:03:56Z</time>
      </trkpt>
      <trkpt lat="43.001906" lon="-1.524305">
        <ele>779.693</ele>
        <time>2019-08-22T17:03:58Z</time>
      </trkpt>
      <trkpt lat="43.0019" lon="-1.524381">
        <ele>781.144</ele>
        <time>2019-08-22T17:04:01Z</time>
      </trkpt>
      <trkpt lat="43.001897" lon="-1.524449">
        <ele>782.402</ele>
        <time>2019-08-22T17:04:03Z</time>
      </trkpt>
      <trkpt lat="43.001896" lon="-1.524518">
        <ele>783.221</ele>
        <time>2019-08-22T17:04:05Z</time>
      </trkpt>
      <trkpt lat="43.0019" lon="-1.524584">
        <ele>783.768</ele>
        <time>2019-08-22T17:04:07Z</time>
      </trkpt>
      <trkpt lat="43.001902" lon="-1.524668">
        <ele>784.726</ele>
        <time>2019-08-22T17:04:10Z</time>
      </trkpt>
      <trkpt lat="43.001917" lon="-1.524743">
        <ele>784.775</ele>
        <time>2019-08-22T17:04:13Z</time>
      </trkpt>
      <trkpt lat="43.001934" lon="-1.524814">
        <ele>784.544</ele>
        <time>2019-08-22T17:04:16Z</time>
      </trkpt>
      <trkpt lat="43.001935" lon="-1.524899">
        <ele>784.496</ele>
        <time>2019-08-22T17:04:19Z</time>
      </trkpt>
      <trkpt lat="43.001931" lon="-1.524966">
        <ele>785.180</ele>
        <time>2019-08-22T17:04:21Z</time>
      </trkpt>
      <trkpt lat="43.001928" lon="-1.525047">
        <ele>784.909</ele>
        <time>2019-08-22T17:04:24Z</time>
      </trkpt>
      <trkpt lat="43.00193" lon="-1.525129">
        <ele>785.998</ele>
        <time>2019-08-22T17:04:27Z</time>
      </trkpt>
      <trkpt lat="43.00193" lon="-1.525201">
        <ele>786.646</ele>
        <time>2019-08-22T17:04:30Z</time>
      </trkpt>
      <trkpt lat="43.001915" lon="-1.525372">
        <ele>790.345</ele>
        <time>2019-08-22T17:04:59Z</time>
      </trkpt>
      <trkpt lat="43.001886" lon="-1.525429">
        <ele>793.518</ele>
        <time>2019-08-22T17:05:06Z</time>
      </trkpt>
      <trkpt lat="43.001858" lon="-1.525493">
        <ele>794.492</ele>
        <time>2019-08-22T17:05:10Z</time>
      </trkpt>
      <trkpt lat="43.001803" lon="-1.525481">
        <ele>795.729</ele>
        <time>2019-08-22T17:05:15Z</time>
      </trkpt>
      <trkpt lat="43.001757" lon="-1.525435">
        <ele>797.458</ele>
        <time>2019-08-22T17:05:19Z</time>
      </trkpt>
      <trkpt lat="43.001718" lon="-1.525392">
        <ele>798.884</ele>
        <time>2019-08-22T17:05:25Z</time>
      </trkpt>
      <trkpt lat="43.001683" lon="-1.525433">
        <ele>800.002</ele>
        <time>2019-08-22T17:05:33Z</time>
      </trkpt>
      <trkpt lat="43.00169" lon="-1.525496">
        <ele>800.148</ele>
        <time>2019-08-22T17:05:38Z</time>
      </trkpt>
      <trkpt lat="43.001711" lon="-1.525552">
        <ele>800.650</ele>
        <time>2019-08-22T17:05:42Z</time>
      </trkpt>
      <trkpt lat="43.001738" lon="-1.525615">
        <ele>801.685</ele>
        <time>2019-08-22T17:05:46Z</time>
      </trkpt>
      <trkpt lat="43.001764" lon="-1.525677">
        <ele>801.326</ele>
        <time>2019-08-22T17:05:50Z</time>
      </trkpt>
      <trkpt lat="43.001803" lon="-1.52573">
        <ele>801.360</ele>
        <time>2019-08-22T17:05:54Z</time>
      </trkpt>
      <trkpt lat="43.001808" lon="-1.525803">
        <ele>804.088</ele>
        <time>2019-08-22T17:05:59Z</time>
      </trkpt>
      <trkpt lat="43.00181" lon="-1.525869">
        <ele>805.738</ele>
        <time>2019-08-22T17:06:03Z</time>
      </trkpt>
      <trkpt lat="43.001815" lon="-1.52594">
        <ele>808.626</ele>
        <time>2019-08-22T17:06:06Z</time>
      </trkpt>
      <trkpt lat="43.001821" lon="-1.526012">
        <ele>810.998</ele>
        <time>2019-08-22T17:06:09Z</time>
      </trkpt>
      <trkpt lat="43.001818" lon="-1.526094">
        <ele>813.403</ele>
        <time>2019-08-22T17:06:12Z</time>
      </trkpt>
      <trkpt lat="43.001821" lon="-1.526155">
        <ele>816.131</ele>
        <time>2019-08-22T17:06:15Z</time>
      </trkpt>
      <trkpt lat="43.00184" lon="-1.526229">
        <ele>817.957</ele>
        <time>2019-08-22T17:06:19Z</time>
      </trkpt>
      <trkpt lat="43.001857" lon="-1.526309">
        <ele>817.059</ele>
        <time>2019-08-22T17:06:23Z</time>
      </trkpt>
      <trkpt lat="43.001855" lon="-1.526391">
        <ele>816.550</ele>
        <time>2019-08-22T17:06:26Z</time>
      </trkpt>
      <trkpt lat="43.001865" lon="-1.526463">
        <ele>815.255</ele>
        <time>2019-08-22T17:06:29Z</time>
      </trkpt>
      <trkpt lat="43.001875" lon="-1.526523">
        <ele>815.579</ele>
        <time>2019-08-22T17:06:32Z</time>
      </trkpt>
      <trkpt lat="43.001888" lon="-1.526593">
        <ele>816.689</ele>
        <time>2019-08-22T17:06:35Z</time>
      </trkpt>
      <trkpt lat="43.001913" lon="-1.526654">
        <ele>816.968</ele>
        <time>2019-08-22T17:06:38Z</time>
      </trkpt>
      <trkpt lat="43.001936" lon="-1.526719">
        <ele>816.734</ele>
        <time>2019-08-22T17:06:41Z</time>
      </trkpt>
      <trkpt lat="43.001955" lon="-1.526783">
        <ele>815.402</ele>
        <time>2019-08-22T17:06:43Z</time>
      </trkpt>
      <trkpt lat="43.001974" lon="-1.526861">
        <ele>814.581</ele>
        <time>2019-08-22T17:06:45Z</time>
      </trkpt>
      <trkpt lat="43.001991" lon="-1.526942">
        <ele>814.889</ele>
        <time>2019-08-22T17:06:47Z</time>
      </trkpt>
      <trkpt lat="43.001998" lon="-1.527021">
        <ele>815.792</ele>
        <time>2019-08-22T17:06:49Z</time>
      </trkpt>
      <trkpt lat="43.001997" lon="-1.527087">
        <ele>816.358</ele>
        <time>2019-08-22T17:06:51Z</time>
      </trkpt>
      <trkpt lat="43.002001" lon="-1.527176">
        <ele>817.347</ele>
        <time>2019-08-22T17:06:54Z</time>
      </trkpt>
      <trkpt lat="43.00201" lon="-1.527269">
        <ele>817.816</ele>
        <time>2019-08-22T17:06:57Z</time>
      </trkpt>
      <trkpt lat="43.002023" lon="-1.527338">
        <ele>817.100</ele>
        <time>2019-08-22T17:06:59Z</time>
      </trkpt>
      <trkpt lat="43.00204" lon="-1.527413">
        <ele>815.925</ele>
        <time>2019-08-22T17:07:02Z</time>
      </trkpt>
      <trkpt lat="43.002061" lon="-1.527487">
        <ele>811.924</ele>
        <time>2019-08-22T17:07:05Z</time>
      </trkpt>
      <trkpt lat="43.00209" lon="-1.527595">
        <ele>808.074</ele>
        <time>2019-08-22T17:07:08Z</time>
      </trkpt>
      <trkpt lat="43.002096" lon="-1.527687">
        <ele>809.811</ele>
        <time>2019-08-22T17:07:11Z</time>
      </trkpt>
      <trkpt lat="43.002094" lon="-1.527759">
        <ele>812.453</ele>
        <time>2019-08-22T17:07:13Z</time>
      </trkpt>
      <trkpt lat="43.002103" lon="-1.527843">
        <ele>814.273</ele>
        <time>2019-08-22T17:07:16Z</time>
      </trkpt>
      <trkpt lat="43.002105" lon="-1.527954">
        <ele>816.511</ele>
        <time>2019-08-22T17:07:23Z</time>
      </trkpt>
      <trkpt lat="43.002089" lon="-1.528012">
        <ele>819.076</ele>
        <time>2019-08-22T17:07:27Z</time>
      </trkpt>
      <trkpt lat="43.002062" lon="-1.527959">
        <ele>820.710</ele>
        <time>2019-08-22T17:07:49Z</time>
      </trkpt>
      <trkpt lat="43.002043" lon="-1.527897">
        <ele>821.978</ele>
        <time>2019-08-22T17:07:53Z</time>
      </trkpt>
      <trkpt lat="43.002004" lon="-1.527864">
        <ele>823.101</ele>
        <time>2019-08-22T17:07:57Z</time>
      </trkpt>
      <trkpt lat="43.002008" lon="-1.527941">
        <ele>822.626</ele>
        <time>2019-08-22T17:08:04Z</time>
      </trkpt>
      <trkpt lat="43.002004" lon="-1.528011">
        <ele>822.935</ele>
        <time>2019-08-22T17:08:09Z</time>
      </trkpt>
      <trkpt lat="43.002012" lon="-1.528076">
        <ele>825.654</ele>
        <time>2019-08-22T17:08:15Z</time>
      </trkpt>
      <trkpt lat="43.002028" lon="-1.528147">
        <ele>825.436</ele>
        <time>2019-08-22T17:08:20Z</time>
      </trkpt>
      <trkpt lat="43.002052" lon="-1.528208">
        <ele>825.921</ele>
        <time>2019-08-22T17:08:24Z</time>
      </trkpt>
      <trkpt lat="43.00208" lon="-1.528258">
        <ele>826.081</ele>
        <time>2019-08-22T17:08:27Z</time>
      </trkpt>
      <trkpt lat="43.002068" lon="-1.528323">
        <ele>822.001</ele>
        <time>2019-08-22T17:08:31Z</time>
      </trkpt>
      <trkpt lat="43.002009" lon="-1.528342">
        <ele>819.998</ele>
        <time>2019-08-22T17:08:35Z</time>
      </trkpt>
      <trkpt lat="43.001961" lon="-1.528334">
        <ele>821.213</ele>
        <time>2019-08-22T17:08:38Z</time>
      </trkpt>
      <trkpt lat="43.001911" lon="-1.528302">
        <ele>823.511</ele>
        <time>2019-08-22T17:08:42Z</time>
      </trkpt>
      <trkpt lat="43.001872" lon="-1.528256">
        <ele>824.402</ele>
        <time>2019-08-22T17:08:47Z</time>
      </trkpt>
      <trkpt lat="43.001839" lon="-1.528201">
        <ele>825.324</ele>
        <time>2019-08-22T17:08:51Z</time>
      </trkpt>
      <trkpt lat="43.001817" lon="-1.528138">
        <ele>826.068</ele>
        <time>2019-08-22T17:08:54Z</time>
      </trkpt>
      <trkpt lat="43.001795" lon="-1.528078">
        <ele>825.766</ele>
        <time>2019-08-22T17:08:57Z</time>
      </trkpt>
      <trkpt lat="43.001775" lon="-1.528022">
        <ele>825.300</ele>
        <time>2019-08-22T17:09:00Z</time>
      </trkpt>
      <trkpt lat="43.00176" lon="-1.527963">
        <ele>825.186</ele>
        <time>2019-08-22T17:09:03Z</time>
      </trkpt>
      <trkpt lat="43.001756" lon="-1.527898">
        <ele>824.786</ele>
        <time>2019-08-22T17:09:06Z</time>
      </trkpt>
      <trkpt lat="43.001746" lon="-1.527825">
        <ele>825.409</ele>
        <time>2019-08-22T17:09:10Z</time>
      </trkpt>
      <trkpt lat="43.001725" lon="-1.527883">
        <ele>827.781</ele>
        <time>2019-08-22T17:09:29Z</time>
      </trkpt>
      <trkpt lat="43.001724" lon="-1.527952">
        <ele>828.606</ele>
        <time>2019-08-22T17:09:35Z</time>
      </trkpt>
      <trkpt lat="43.001725" lon="-1.528024">
        <ele>831.052</ele>
        <time>2019-08-22T17:09:40Z</time>
      </trkpt>
      <trkpt lat="43.001718" lon="-1.52809">
        <ele>833.662</ele>
        <time>2019-08-22T17:09:45Z</time>
      </trkpt>
      <trkpt lat="43.001743" lon="-1.528149">
        <ele>834.463</ele>
        <time>2019-08-22T17:09:49Z</time>
      </trkpt>
      <trkpt lat="43.001762" lon="-1.528209">
        <ele>835.890</ele>
        <time>2019-08-22T17:09:52Z</time>
      </trkpt>
      <trkpt lat="43.001738" lon="-1.528307">
        <ele>837.494</ele>
        <time>2019-08-22T17:09:58Z</time>
      </trkpt>
      <trkpt lat="43.001716" lon="-1.528394">
        <ele>840.375</ele>
        <time>2019-08-22T17:10:09Z</time>
      </trkpt>
      <trkpt lat="43.001729" lon="-1.528458">
        <ele>842.795</ele>
        <time>2019-08-22T17:10:14Z</time>
      </trkpt>
      <trkpt lat="43.001766" lon="-1.528527">
        <ele>843.660</ele>
        <time>2019-08-22T17:10:17Z</time>
      </trkpt>
      <trkpt lat="43.001787" lon="-1.528589">
        <ele>844.574</ele>
        <time>2019-08-22T17:10:20Z</time>
      </trkpt>
      <trkpt lat="43.001775" lon="-1.52865">
        <ele>840.507</ele>
        <time>2019-08-22T17:10:34Z</time>
      </trkpt>
      <trkpt lat="43.001776" lon="-1.528734">
        <ele>840.239</ele>
        <time>2019-08-22T17:10:49Z</time>
      </trkpt>
      <trkpt lat="43.001743" lon="-1.528687">
        <ele>837.287</ele>
        <time>2019-08-22T17:10:57Z</time>
      </trkpt>
      <trkpt lat="43.00172" lon="-1.52863">
        <ele>836.483</ele>
        <time>2019-08-22T17:11:01Z</time>
      </trkpt>
      <trkpt lat="43.001696" lon="-1.528571">
        <ele>836.436</ele>
        <time>2019-08-22T17:11:04Z</time>
      </trkpt>
      <trkpt lat="43.00168" lon="-1.528509">
        <ele>836.775</ele>
        <time>2019-08-22T17:11:07Z</time>
      </trkpt>
      <trkpt lat="43.001653" lon="-1.528449">
        <ele>837.448</ele>
        <time>2019-08-22T17:11:11Z</time>
      </trkpt>
      <trkpt lat="43.001622" lon="-1.528383">
        <ele>839.086</ele>
        <time>2019-08-22T17:11:15Z</time>
      </trkpt>
      <trkpt lat="43.0016" lon="-1.528327">
        <ele>840.267</ele>
        <time>2019-08-22T17:11:18Z</time>
      </trkpt>
      <trkpt lat="43.001583" lon="-1.528269">
        <ele>841.657</ele>
        <time>2019-08-22T17:11:21Z</time>
      </trkpt>
      <trkpt lat="43.001571" lon="-1.528203">
        <ele>842.944</ele>
        <time>2019-08-22T17:11:28Z</time>
      </trkpt>
      <trkpt lat="43.001575" lon="-1.528271">
        <ele>843.525</ele>
        <time>2019-08-22T17:11:33Z</time>
      </trkpt>
      <trkpt lat="43.001576" lon="-1.52834">
        <ele>843.720</ele>
        <time>2019-08-22T17:11:36Z</time>
      </trkpt>
      <trkpt lat="43.001582" lon="-1.528414">
        <ele>844.163</ele>
        <time>2019-08-22T17:11:39Z</time>
      </trkpt>
      <trkpt lat="43.001605" lon="-1.528478">
        <ele>844.972</ele>
        <time>2019-08-22T17:11:43Z</time>
      </trkpt>
      <trkpt lat="43.001559" lon="-1.52848">
        <ele>847.602</ele>
        <time>2019-08-22T17:11:56Z</time>
      </trkpt>
      <trkpt lat="43.001531" lon="-1.528422">
        <ele>849.440</ele>
        <time>2019-08-22T17:12:01Z</time>
      </trkpt>
      <trkpt lat="43.001483" lon="-1.528378">
        <ele>849.922</ele>
        <time>2019-08-22T17:12:05Z</time>
      </trkpt>
      <trkpt lat="43.001431" lon="-1.528341">
        <ele>849.722</ele>
        <time>2019-08-22T17:12:09Z</time>
      </trkpt>
      <trkpt lat="43.001393" lon="-1.528286">
        <ele>848.859</ele>
        <time>2019-08-22T17:12:13Z</time>
      </trkpt>
      <trkpt lat="43.001368" lon="-1.528221">
        <ele>849.006</ele>
        <time>2019-08-22T17:12:17Z</time>
      </trkpt>
      <trkpt lat="43.001357" lon="-1.528143">
        <ele>850.656</ele>
        <time>2019-08-22T17:12:21Z</time>
      </trkpt>
      <trkpt lat="43.001346" lon="-1.528074">
        <ele>851.951</ele>
        <time>2019-08-22T17:12:24Z</time>
      </trkpt>
      <trkpt lat="43.001322" lon="-1.528004">
        <ele>852.644</ele>
        <time>2019-08-22T17:12:27Z</time>
      </trkpt>
      <trkpt lat="43.001285" lon="-1.527954">
        <ele>852.109</ele>
        <time>2019-08-22T17:12:31Z</time>
      </trkpt>
      <trkpt lat="43.001246" lon="-1.527918">
        <ele>852.665</ele>
        <time>2019-08-22T17:12:35Z</time>
      </trkpt>
      <trkpt lat="43.001205" lon="-1.527869">
        <ele>853.182</ele>
        <time>2019-08-22T17:12:39Z</time>
      </trkpt>
      <trkpt lat="43.001175" lon="-1.52781">
        <ele>852.968</ele>
        <time>2019-08-22T17:12:43Z</time>
      </trkpt>
      <trkpt lat="43.001154" lon="-1.527754">
        <ele>853.488</ele>
        <time>2019-08-22T17:12:46Z</time>
      </trkpt>
      <trkpt lat="43.001118" lon="-1.52769">
        <ele>854.131</ele>
        <time>2019-08-22T17:12:50Z</time>
      </trkpt>
      <trkpt lat="43.001071" lon="-1.527647">
        <ele>854.014</ele>
        <time>2019-08-22T17:12:54Z</time>
      </trkpt>
      <trkpt lat="43.001022" lon="-1.527596">
        <ele>854.189</ele>
        <time>2019-08-22T17:13:03Z</time>
      </trkpt>
      <trkpt lat="43.00099" lon="-1.527538">
        <ele>857.447</ele>
        <time>2019-08-22T17:13:18Z</time>
      </trkpt>
      <trkpt lat="43.000997" lon="-1.527605">
        <ele>860.253</ele>
        <time>2019-08-22T17:13:26Z</time>
      </trkpt>
      <trkpt lat="43.001011" lon="-1.527675">
        <ele>861.894</ele>
        <time>2019-08-22T17:13:30Z</time>
      </trkpt>
      <trkpt lat="43.001041" lon="-1.527753">
        <ele>861.940</ele>
        <time>2019-08-22T17:13:34Z</time>
      </trkpt>
      <trkpt lat="43.001076" lon="-1.527818">
        <ele>860.202</ele>
        <time>2019-08-22T17:13:38Z</time>
      </trkpt>
      <trkpt lat="43.001102" lon="-1.527879">
        <ele>859.492</ele>
        <time>2019-08-22T17:13:41Z</time>
      </trkpt>
      <trkpt lat="43.001138" lon="-1.527943">
        <ele>858.132</ele>
        <time>2019-08-22T17:13:44Z</time>
      </trkpt>
      <trkpt lat="43.001164" lon="-1.527995">
        <ele>857.462</ele>
        <time>2019-08-22T17:13:46Z</time>
      </trkpt>
      <trkpt lat="43.001186" lon="-1.528054">
        <ele>857.584</ele>
        <time>2019-08-22T17:13:48Z</time>
      </trkpt>
      <trkpt lat="43.001205" lon="-1.528113">
        <ele>857.314</ele>
        <time>2019-08-22T17:13:50Z</time>
      </trkpt>
      <trkpt lat="43.001214" lon="-1.528184">
        <ele>857.231</ele>
        <time>2019-08-22T17:13:53Z</time>
      </trkpt>
      <trkpt lat="43.001217" lon="-1.528251">
        <ele>859.466</ele>
        <time>2019-08-22T17:13:56Z</time>
      </trkpt>
      <trkpt lat="43.00123" lon="-1.52832">
        <ele>862.114</ele>
        <time>2019-08-22T17:13:59Z</time>
      </trkpt>
      <trkpt lat="43.001246" lon="-1.528394">
        <ele>864.223</ele>
        <time>2019-08-22T17:14:03Z</time>
      </trkpt>
      <trkpt lat="43.001254" lon="-1.52847">
        <ele>865.929</ele>
        <time>2019-08-22T17:14:06Z</time>
      </trkpt>
      <trkpt lat="43.001244" lon="-1.528543">
        <ele>869.364</ele>
        <time>2019-08-22T17:14:09Z</time>
      </trkpt>
      <trkpt lat="43.001211" lon="-1.528589">
        <ele>873.348</ele>
        <time>2019-08-22T17:14:13Z</time>
      </trkpt>
      <trkpt lat="43.001168" lon="-1.528609">
        <ele>877.313</ele>
        <time>2019-08-22T17:14:26Z</time>
      </trkpt>
      <trkpt lat="43.001134" lon="-1.528552">
        <ele>878.745</ele>
        <time>2019-08-22T17:14:33Z</time>
      </trkpt>
      <trkpt lat="43.00109" lon="-1.528515">
        <ele>879.757</ele>
        <time>2019-08-22T17:14:38Z</time>
      </trkpt>
      <trkpt lat="43.001055" lon="-1.528474">
        <ele>880.849</ele>
        <time>2019-08-22T17:14:41Z</time>
      </trkpt>
      <trkpt lat="43.001026" lon="-1.528413">
        <ele>882.215</ele>
        <time>2019-08-22T17:14:45Z</time>
      </trkpt>
      <trkpt lat="43.00101" lon="-1.528355">
        <ele>883.728</ele>
        <time>2019-08-22T17:14:48Z</time>
      </trkpt>
      <trkpt lat="43.000985" lon="-1.52829">
        <ele>883.165</ele>
        <time>2019-08-22T17:14:52Z</time>
      </trkpt>
      <trkpt lat="43.000956" lon="-1.528228">
        <ele>881.206</ele>
        <time>2019-08-22T17:14:55Z</time>
      </trkpt>
      <trkpt lat="43.000884" lon="-1.52813">
        <ele>881.602</ele>
        <time>2019-08-22T17:15:03Z</time>
      </trkpt>
      <trkpt lat="43.000866" lon="-1.528198">
        <ele>882.651</ele>
        <time>2019-08-22T17:15:12Z</time>
      </trkpt>
      <trkpt lat="43.000874" lon="-1.528261">
        <ele>884.378</ele>
        <time>2019-08-22T17:15:16Z</time>
      </trkpt>
      <trkpt lat="43.0009" lon="-1.528334">
        <ele>885.240</ele>
        <time>2019-08-22T17:15:20Z</time>
      </trkpt>
      <trkpt lat="43.000914" lon="-1.528395">
        <ele>886.361</ele>
        <time>2019-08-22T17:15:24Z</time>
      </trkpt>
      <trkpt lat="43.00091" lon="-1.52846">
        <ele>885.953</ele>
        <time>2019-08-22T17:15:28Z</time>
      </trkpt>
      <trkpt lat="43.000872" lon="-1.528418">
        <ele>886.571</ele>
        <time>2019-08-22T17:15:34Z</time>
      </trkpt>
      <trkpt lat="43.00084" lon="-1.528365">
        <ele>886.415</ele>
        <time>2019-08-22T17:15:37Z</time>
      </trkpt>
      <trkpt lat="43.000809" lon="-1.528308">
        <ele>886.251</ele>
        <time>2019-08-22T17:15:41Z</time>
      </trkpt>
      <trkpt lat="43.000764" lon="-1.528256">
        <ele>885.734</ele>
        <time>2019-08-22T17:15:46Z</time>
      </trkpt>
      <trkpt lat="43.000746" lon="-1.528198">
        <ele>884.517</ele>
        <time>2019-08-22T17:15:49Z</time>
      </trkpt>
      <trkpt lat="43.00072" lon="-1.528121">
        <ele>882.576</ele>
        <time>2019-08-22T17:15:53Z</time>
      </trkpt>
      <trkpt lat="43.000696" lon="-1.528058">
        <ele>881.279</ele>
        <time>2019-08-22T17:15:56Z</time>
      </trkpt>
      <trkpt lat="43.000661" lon="-1.528013">
        <ele>881.754</ele>
        <time>2019-08-22T17:15:59Z</time>
      </trkpt>
      <trkpt lat="43.000619" lon="-1.527949">
        <ele>881.017</ele>
        <time>2019-08-22T17:16:02Z</time>
      </trkpt>
      <trkpt lat="43.000584" lon="-1.527895">
        <ele>881.367</ele>
        <time>2019-08-22T17:16:04Z</time>
      </trkpt>
      <trkpt lat="43.000543" lon="-1.527825">
        <ele>882.284</ele>
        <time>2019-08-22T17:16:07Z</time>
      </trkpt>
      <trkpt lat="43.000505" lon="-1.527759">
        <ele>881.117</ele>
        <time>2019-08-22T17:16:10Z</time>
      </trkpt>
      <trkpt lat="43.000479" lon="-1.527702">
        <ele>881.049</ele>
        <time>2019-08-22T17:16:13Z</time>
      </trkpt>
      <trkpt lat="43.000448" lon="-1.527629">
        <ele>880.902</ele>
        <time>2019-08-22T17:16:17Z</time>
      </trkpt>
      <trkpt lat="43.000426" lon="-1.527568">
        <ele>881.147</ele>
        <time>2019-08-22T17:16:20Z</time>
      </trkpt>
      <trkpt lat="43.000405" lon="-1.527507">
        <ele>881.061</ele>
        <time>2019-08-22T17:16:23Z</time>
      </trkpt>
      <trkpt lat="43.000383" lon="-1.527446">
        <ele>880.789</ele>
        <time>2019-08-22T17:16:26Z</time>
      </trkpt>
      <trkpt lat="43.000359" lon="-1.527381">
        <ele>880.769</ele>
        <time>2019-08-22T17:16:30Z</time>
      </trkpt>
      <trkpt lat="43.000352" lon="-1.527303">
        <ele>880.830</ele>
        <time>2019-08-22T17:16:34Z</time>
      </trkpt>
      <trkpt lat="43.000352" lon="-1.52724">
        <ele>881.391</ele>
        <time>2019-08-22T17:16:37Z</time>
      </trkpt>
      <trkpt lat="43.000353" lon="-1.527156">
        <ele>881.715</ele>
        <time>2019-08-22T17:16:41Z</time>
      </trkpt>
      <trkpt lat="43.000346" lon="-1.527094">
        <ele>881.326</ele>
        <time>2019-08-22T17:16:44Z</time>
      </trkpt>
      <trkpt lat="43.000327" lon="-1.527013">
        <ele>880.623</ele>
        <time>2019-08-22T17:16:47Z</time>
      </trkpt>
      <trkpt lat="43.00031" lon="-1.526947">
        <ele>880.848</ele>
        <time>2019-08-22T17:16:49Z</time>
      </trkpt>
      <trkpt lat="43.000296" lon="-1.52688">
        <ele>881.131</ele>
        <time>2019-08-22T17:16:51Z</time>
      </trkpt>
      <trkpt lat="43.000282" lon="-1.526806">
        <ele>881.447</ele>
        <time>2019-08-22T17:16:53Z</time>
      </trkpt>
      <trkpt lat="43.000262" lon="-1.526719">
        <ele>881.370</ele>
        <time>2019-08-22T17:16:55Z</time>
      </trkpt>
      <trkpt lat="43.000237" lon="-1.526636">
        <ele>881.255</ele>
        <time>2019-08-22T17:16:57Z</time>
      </trkpt>
      <trkpt lat="43.00019" lon="-1.526494">
        <ele>880.819</ele>
        <time>2019-08-22T17:16:58Z</time>
      </trkpt>
      <trkpt lat="43.000172" lon="-1.526427">
        <ele>880.884</ele>
        <time>2019-08-22T17:17:00Z</time>
      </trkpt>
      <trkpt lat="43.00016" lon="-1.526359">
        <ele>881.256</ele>
        <time>2019-08-22T17:17:02Z</time>
      </trkpt>
      <trkpt lat="43.000152" lon="-1.526294">
        <ele>881.552</ele>
        <time>2019-08-22T17:17:04Z</time>
      </trkpt>
      <trkpt lat="43.00014" lon="-1.526228">
        <ele>882.098</ele>
        <time>2019-08-22T17:17:06Z</time>
      </trkpt>
      <trkpt lat="43.000129" lon="-1.526164">
        <ele>883.167</ele>
        <time>2019-08-22T17:17:08Z</time>
      </trkpt>
      <trkpt lat="43.000122" lon="-1.526092">
        <ele>884.957</ele>
        <time>2019-08-22T17:17:10Z</time>
      </trkpt>
      <trkpt lat="43.000118" lon="-1.526023">
        <ele>886.547</ele>
        <time>2019-08-22T17:17:12Z</time>
      </trkpt>
      <trkpt lat="43.000115" lon="-1.525939">
        <ele>888.155</ele>
        <time>2019-08-22T17:17:14Z</time>
      </trkpt>
      <trkpt lat="43.00011" lon="-1.525876">
        <ele>889.398</ele>
        <time>2019-08-22T17:17:16Z</time>
      </trkpt>
      <trkpt lat="43.000101" lon="-1.525808">
        <ele>889.689</ele>
        <time>2019-08-22T17:17:19Z</time>
      </trkpt>
      <trkpt lat="43.000079" lon="-1.525733">
        <ele>890.514</ele>
        <time>2019-08-22T17:17:22Z</time>
      </trkpt>
      <trkpt lat="43.00006" lon="-1.525653">
        <ele>890.695</ele>
        <time>2019-08-22T17:17:24Z</time>
      </trkpt>
      <trkpt lat="43.000014" lon="-1.525535">
        <ele>890.046</ele>
        <time>2019-08-22T17:17:40Z</time>
      </trkpt>
      <trkpt lat="43.000026" lon="-1.5256">
        <ele>889.075</ele>
        <time>2019-08-22T17:17:54Z</time>
      </trkpt>
      <trkpt lat="43.000032" lon="-1.525666">
        <ele>890.937</ele>
        <time>2019-08-22T17:17:59Z</time>
      </trkpt>
      <trkpt lat="43.000025" lon="-1.525736">
        <ele>892.065</ele>
        <time>2019-08-22T17:18:03Z</time>
      </trkpt>
      <trkpt lat="43.000013" lon="-1.525799">
        <ele>894.166</ele>
        <time>2019-08-22T17:18:07Z</time>
      </trkpt>
      <trkpt lat="43.00" lon="-1.525861">
        <ele>894.730</ele>
        <time>2019-08-22T17:18:10Z</time>
      </trkpt>
      <trkpt lat="42.999987" lon="-1.525921">
        <ele>896.636</ele>
        <time>2019-08-22T17:18:13Z</time>
      </trkpt>
      <trkpt lat="42.999994" lon="-1.526002">
        <ele>899.107</ele>
        <time>2019-08-22T17:18:17Z</time>
      </trkpt>
      <trkpt lat="43.00002" lon="-1.526079">
        <ele>898.616</ele>
        <time>2019-08-22T17:18:21Z</time>
      </trkpt>
      <trkpt lat="43.000038" lon="-1.526138">
        <ele>898.290</ele>
        <time>2019-08-22T17:18:24Z</time>
      </trkpt>
      <trkpt lat="43.000006" lon="-1.526192">
        <ele>898.780</ele>
        <time>2019-08-22T17:18:30Z</time>
      </trkpt>
      <trkpt lat="42.999959" lon="-1.526172">
        <ele>900.554</ele>
        <time>2019-08-22T17:18:41Z</time>
      </trkpt>
      <trkpt lat="42.999943" lon="-1.526113">
        <ele>902.994</ele>
        <time>2019-08-22T17:18:53Z</time>
      </trkpt>
      <trkpt lat="42.999918" lon="-1.526053">
        <ele>904.915</ele>
        <time>2019-08-22T17:18:58Z</time>
      </trkpt>
      <trkpt lat="42.999889" lon="-1.526004">
        <ele>906.088</ele>
        <time>2019-08-22T17:19:01Z</time>
      </trkpt>
      <trkpt lat="42.999849" lon="-1.525953">
        <ele>907.109</ele>
        <time>2019-08-22T17:19:05Z</time>
      </trkpt>
      <trkpt lat="42.999808" lon="-1.52592">
        <ele>906.946</ele>
        <time>2019-08-22T17:19:09Z</time>
      </trkpt>
      <trkpt lat="42.999771" lon="-1.525873">
        <ele>906.274</ele>
        <time>2019-08-22T17:19:14Z</time>
      </trkpt>
      <trkpt lat="42.999737" lon="-1.525828">
        <ele>905.828</ele>
        <time>2019-08-22T17:19:19Z</time>
      </trkpt>
      <trkpt lat="42.999696" lon="-1.525788">
        <ele>905.059</ele>
        <time>2019-08-22T17:19:22Z</time>
      </trkpt>
      <trkpt lat="42.99964" lon="-1.525748">
        <ele>903.759</ele>
        <time>2019-08-22T17:19:25Z</time>
      </trkpt>
      <trkpt lat="42.99959" lon="-1.525732">
        <ele>903.149</ele>
        <time>2019-08-22T17:19:28Z</time>
      </trkpt>
      <trkpt lat="42.999541" lon="-1.525721">
        <ele>901.611</ele>
        <time>2019-08-22T17:19:31Z</time>
      </trkpt>
      <trkpt lat="42.999482" lon="-1.525716">
        <ele>900.867</ele>
        <time>2019-08-22T17:19:34Z</time>
      </trkpt>
      <trkpt lat="42.999434" lon="-1.5257">
        <ele>900.306</ele>
        <time>2019-08-22T17:19:38Z</time>
      </trkpt>
      <trkpt lat="42.999382" lon="-1.525685">
        <ele>896.319</ele>
        <time>2019-08-22T17:19:43Z</time>
      </trkpt>
      <trkpt lat="42.999329" lon="-1.52568">
        <ele>894.189</ele>
        <time>2019-08-22T17:19:47Z</time>
      </trkpt>
      <trkpt lat="42.999281" lon="-1.525684">
        <ele>893.810</ele>
        <time>2019-08-22T17:19:50Z</time>
      </trkpt>
      <trkpt lat="42.999232" lon="-1.525693">
        <ele>895.056</ele>
        <time>2019-08-22T17:19:54Z</time>
      </trkpt>
      <trkpt lat="42.999189" lon="-1.525728">
        <ele>895.489</ele>
        <time>2019-08-22T17:19:58Z</time>
      </trkpt>
      <trkpt lat="42.999236" lon="-1.525715">
        <ele>897.603</ele>
        <time>2019-08-22T17:20:14Z</time>
      </trkpt>
      <trkpt lat="42.999283" lon="-1.525755">
        <ele>897.876</ele>
        <time>2019-08-22T17:20:18Z</time>
      </trkpt>
      <trkpt lat="42.999315" lon="-1.525801">
        <ele>898.751</ele>
        <time>2019-08-22T17:20:22Z</time>
      </trkpt>
      <trkpt lat="42.999363" lon="-1.525847">
        <ele>899.744</ele>
        <time>2019-08-22T17:20:26Z</time>
      </trkpt>
      <trkpt lat="42.999395" lon="-1.525897">
        <ele>901.459</ele>
        <time>2019-08-22T17:20:29Z</time>
      </trkpt>
      <trkpt lat="42.999424" lon="-1.52596">
        <ele>903.355</ele>
        <time>2019-08-22T17:20:32Z</time>
      </trkpt>
      <trkpt lat="42.999432" lon="-1.526031">
        <ele>905.253</ele>
        <time>2019-08-22T17:20:35Z</time>
      </trkpt>
      <trkpt lat="42.99944" lon="-1.526094">
        <ele>907.138</ele>
        <time>2019-08-22T17:20:38Z</time>
      </trkpt>
      <trkpt lat="42.999448" lon="-1.526157">
        <ele>909.125</ele>
        <time>2019-08-22T17:20:41Z</time>
      </trkpt>
      <trkpt lat="42.999478" lon="-1.526218">
        <ele>912.085</ele>
        <time>2019-08-22T17:20:45Z</time>
      </trkpt>
      <trkpt lat="42.999494" lon="-1.526276">
        <ele>912.661</ele>
        <time>2019-08-22T17:20:50Z</time>
      </trkpt>
      <trkpt lat="42.999501" lon="-1.526344">
        <ele>913.104</ele>
        <time>2019-08-22T17:20:55Z</time>
      </trkpt>
      <trkpt lat="42.999445" lon="-1.526331">
        <ele>913.304</ele>
        <time>2019-08-22T17:21:04Z</time>
      </trkpt>
      <trkpt lat="42.999408" lon="-1.526287">
        <ele>912.464</ele>
        <time>2019-08-22T17:21:10Z</time>
      </trkpt>
      <trkpt lat="42.999437" lon="-1.526338">
        <ele>908.424</ele>
        <time>2019-08-22T17:21:21Z</time>
      </trkpt>
      <trkpt lat="42.999469" lon="-1.526401">
        <ele>904.457</ele>
        <time>2019-08-22T17:21:26Z</time>
      </trkpt>
      <trkpt lat="42.999493" lon="-1.526465">
        <ele>901.988</ele>
        <time>2019-08-22T17:21:30Z</time>
      </trkpt>
      <trkpt lat="42.999505" lon="-1.526542">
        <ele>902.341</ele>
        <time>2019-08-22T17:21:34Z</time>
      </trkpt>
      <trkpt lat="42.999521" lon="-1.526605">
        <ele>902.576</ele>
        <time>2019-08-22T17:21:38Z</time>
      </trkpt>
      <trkpt lat="42.999516" lon="-1.52667">
        <ele>903.248</ele>
        <time>2019-08-22T17:21:41Z</time>
      </trkpt>
      <trkpt lat="42.99953" lon="-1.526737">
        <ele>903.860</ele>
        <time>2019-08-22T17:21:44Z</time>
      </trkpt>
      <trkpt lat="42.999533" lon="-1.526811">
        <ele>905.427</ele>
        <time>2019-08-22T17:21:47Z</time>
      </trkpt>
      <trkpt lat="42.999547" lon="-1.526875">
        <ele>907.637</ele>
        <time>2019-08-22T17:21:50Z</time>
      </trkpt>
      <trkpt lat="42.999557" lon="-1.526951">
        <ele>910.439</ele>
        <time>2019-08-22T17:21:53Z</time>
      </trkpt>
      <trkpt lat="42.999576" lon="-1.527026">
        <ele>913.379</ele>
        <time>2019-08-22T17:21:56Z</time>
      </trkpt>
      <trkpt lat="42.999585" lon="-1.527091">
        <ele>916.994</ele>
        <time>2019-08-22T17:21:59Z</time>
      </trkpt>
      <trkpt lat="42.999601" lon="-1.527162">
        <ele>920.542</ele>
        <time>2019-08-22T17:22:02Z</time>
      </trkpt>
      <trkpt lat="42.999598" lon="-1.527242">
        <ele>924.510</ele>
        <time>2019-08-22T17:22:06Z</time>
      </trkpt>
      <trkpt lat="42.999601" lon="-1.527308">
        <ele>927.960</ele>
        <time>2019-08-22T17:22:09Z</time>
      </trkpt>
      <trkpt lat="42.9996" lon="-1.527379">
        <ele>929.564</ele>
        <time>2019-08-22T17:22:13Z</time>
      </trkpt>
      <trkpt lat="42.999583" lon="-1.527444">
        <ele>930.983</ele>
        <time>2019-08-22T17:22:17Z</time>
      </trkpt>
      <trkpt lat="42.999541" lon="-1.527466">
        <ele>931.784</ele>
        <time>2019-08-22T17:22:20Z</time>
      </trkpt>
      <trkpt lat="42.999491" lon="-1.527471">
        <ele>932.646</ele>
        <time>2019-08-22T17:22:26Z</time>
      </trkpt>
      <trkpt lat="42.999438" lon="-1.527443">
        <ele>934.900</ele>
        <time>2019-08-22T17:22:35Z</time>
      </trkpt>
      <trkpt lat="42.999393" lon="-1.527396">
        <ele>936.388</ele>
        <time>2019-08-22T17:22:39Z</time>
      </trkpt>
      <trkpt lat="42.999359" lon="-1.527346">
        <ele>938.453</ele>
        <time>2019-08-22T17:22:42Z</time>
      </trkpt>
      <trkpt lat="42.999311" lon="-1.527279">
        <ele>940.223</ele>
        <time>2019-08-22T17:22:48Z</time>
      </trkpt>
      <trkpt lat="42.999274" lon="-1.527228">
        <ele>939.394</ele>
        <time>2019-08-22T17:22:54Z</time>
      </trkpt>
      <trkpt lat="42.999233" lon="-1.5272">
        <ele>935.492</ele>
        <time>2019-08-22T17:22:58Z</time>
      </trkpt>
      <trkpt lat="42.999183" lon="-1.527204">
        <ele>933.232</ele>
        <time>2019-08-22T17:23:01Z</time>
      </trkpt>
      <trkpt lat="42.999121" lon="-1.527195">
        <ele>929.233</ele>
        <time>2019-08-22T17:23:05Z</time>
      </trkpt>
      <trkpt lat="42.999075" lon="-1.52718">
        <ele>925.298</ele>
        <time>2019-08-22T17:23:08Z</time>
      </trkpt>
      <trkpt lat="42.999044" lon="-1.52712">
        <ele>925.164</ele>
        <time>2019-08-22T17:23:15Z</time>
      </trkpt>
      <trkpt lat="42.999064" lon="-1.527064">
        <ele>927.604</ele>
        <time>2019-08-22T17:23:22Z</time>
      </trkpt>
      <trkpt lat="42.999105" lon="-1.527112">
        <ele>929.311</ele>
        <time>2019-08-22T17:23:28Z</time>
      </trkpt>
      <trkpt lat="42.999146" lon="-1.527154">
        <ele>932.541</ele>
        <time>2019-08-22T17:23:33Z</time>
      </trkpt>
      <trkpt lat="42.999194" lon="-1.527197">
        <ele>935.552</ele>
        <time>2019-08-22T17:23:38Z</time>
      </trkpt>
      <trkpt lat="42.999222" lon="-1.527252">
        <ele>937.263</ele>
        <time>2019-08-22T17:23:42Z</time>
      </trkpt>
      <trkpt lat="42.999224" lon="-1.527323">
        <ele>938.831</ele>
        <time>2019-08-22T17:23:47Z</time>
      </trkpt>
      <trkpt lat="42.999185" lon="-1.527358">
        <ele>939.510</ele>
        <time>2019-08-22T17:23:51Z</time>
      </trkpt>
      <trkpt lat="42.999139" lon="-1.527361">
        <ele>939.197</ele>
        <time>2019-08-22T17:23:55Z</time>
      </trkpt>
      <trkpt lat="42.999083" lon="-1.52735">
        <ele>938.254</ele>
        <time>2019-08-22T17:23:59Z</time>
      </trkpt>
      <trkpt lat="42.999033" lon="-1.527336">
        <ele>934.221</ele>
        <time>2019-08-22T17:24:02Z</time>
      </trkpt>
      <trkpt lat="42.998979" lon="-1.527313">
        <ele>930.214</ele>
        <time>2019-08-22T17:24:05Z</time>
      </trkpt>
      <trkpt lat="42.998932" lon="-1.527283">
        <ele>926.230</ele>
        <time>2019-08-22T17:24:08Z</time>
      </trkpt>
      <trkpt lat="42.998886" lon="-1.527256">
        <ele>922.299</ele>
        <time>2019-08-22T17:24:11Z</time>
      </trkpt>
      <trkpt lat="42.998844" lon="-1.527226">
        <ele>919.951</ele>
        <time>2019-08-22T17:24:14Z</time>
      </trkpt>
      <trkpt lat="42.99879" lon="-1.527192">
        <ele>922.615</ele>
        <time>2019-08-22T17:24:18Z</time>
      </trkpt>
      <trkpt lat="42.998741" lon="-1.527153">
        <ele>926.681</ele>
        <time>2019-08-22T17:24:21Z</time>
      </trkpt>
      <trkpt lat="42.998711" lon="-1.527103">
        <ele>930.664</ele>
        <time>2019-08-22T17:24:26Z</time>
      </trkpt>
      <trkpt lat="42.998755" lon="-1.527089">
        <ele>926.672</ele>
        <time>2019-08-22T17:24:30Z</time>
      </trkpt>
      <trkpt lat="42.998797" lon="-1.527113">
        <ele>922.679</ele>
        <time>2019-08-22T17:24:34Z</time>
      </trkpt>
      <trkpt lat="42.998819" lon="-1.527168">
        <ele>918.606</ele>
        <time>2019-08-22T17:24:37Z</time>
      </trkpt>
      <trkpt lat="42.998837" lon="-1.527236">
        <ele>914.606</ele>
        <time>2019-08-22T17:24:40Z</time>
      </trkpt>
      <trkpt lat="42.998867" lon="-1.527308">
        <ele>910.622</ele>
        <time>2019-08-22T17:24:43Z</time>
      </trkpt>
      <trkpt lat="42.998889" lon="-1.527363">
        <ele>910.002</ele>
        <time>2019-08-22T17:24:46Z</time>
      </trkpt>
      <trkpt lat="42.998932" lon="-1.52741">
        <ele>913.225</ele>
        <time>2019-08-22T17:24:49Z</time>
      </trkpt>
      <trkpt lat="42.998969" lon="-1.527457">
        <ele>917.292</ele>
        <time>2019-08-22T17:24:52Z</time>
      </trkpt>
      <trkpt lat="42.999004" lon="-1.527526">
        <ele>921.277</ele>
        <time>2019-08-22T17:24:55Z</time>
      </trkpt>
      <trkpt lat="42.999024" lon="-1.527596">
        <ele>925.278</ele>
        <time>2019-08-22T17:24:57Z</time>
      </trkpt>
      <trkpt lat="42.999015" lon="-1.527703">
        <ele>929.228</ele>
        <time>2019-08-22T17:25:02Z</time>
      </trkpt>
      <trkpt lat="42.998975" lon="-1.527748">
        <ele>933.267</ele>
        <time>2019-08-22T17:25:06Z</time>
      </trkpt>
      <trkpt lat="42.998922" lon="-1.527743">
        <ele>937.287</ele>
        <time>2019-08-22T17:25:10Z</time>
      </trkpt>
      <trkpt lat="42.998875" lon="-1.527711">
        <ele>941.220</ele>
        <time>2019-08-22T17:25:14Z</time>
      </trkpt>
      <trkpt lat="42.99883" lon="-1.527674">
        <ele>937.257</ele>
        <time>2019-08-22T17:25:17Z</time>
      </trkpt>
      <trkpt lat="42.998773" lon="-1.527648">
        <ele>933.254</ele>
        <time>2019-08-22T17:25:20Z</time>
      </trkpt>
      <trkpt lat="42.998723" lon="-1.527614">
        <ele>929.290</ele>
        <time>2019-08-22T17:25:22Z</time>
      </trkpt>
      <trkpt lat="42.998662" lon="-1.52761">
        <ele>925.263</ele>
        <time>2019-08-22T17:25:25Z</time>
      </trkpt>
      <trkpt lat="42.99861" lon="-1.52761">
        <ele>921.275</ele>
        <time>2019-08-22T17:25:28Z</time>
      </trkpt>
      <trkpt lat="42.998565" lon="-1.527582">
        <ele>918.981</ele>
        <time>2019-08-22T17:25:31Z</time>
      </trkpt>
      <trkpt lat="42.998527" lon="-1.527543">
        <ele>922.993</ele>
        <time>2019-08-22T17:25:35Z</time>
      </trkpt>
      <trkpt lat="42.998466" lon="-1.527493">
        <ele>926.915</ele>
        <time>2019-08-22T17:25:45Z</time>
      </trkpt>
      <trkpt lat="42.998513" lon="-1.527481">
        <ele>930.953</ele>
        <time>2019-08-22T17:25:51Z</time>
      </trkpt>
      <trkpt lat="42.998555" lon="-1.527511">
        <ele>934.907</ele>
        <time>2019-08-22T17:25:54Z</time>
      </trkpt>
      <trkpt lat="42.998594" lon="-1.527559">
        <ele>938.945</ele>
        <time>2019-08-22T17:25:59Z</time>
      </trkpt>
      <trkpt lat="42.998624" lon="-1.527641">
        <ele>942.984</ele>
        <time>2019-08-22T17:26:03Z</time>
      </trkpt>
      <trkpt lat="42.998666" lon="-1.527688">
        <ele>946.999</ele>
        <time>2019-08-22T17:26:06Z</time>
      </trkpt>
      <trkpt lat="42.998702" lon="-1.527726">
        <ele>950.973</ele>
        <time>2019-08-22T17:26:09Z</time>
      </trkpt>
      <trkpt lat="42.99874" lon="-1.527785">
        <ele>953.905</ele>
        <time>2019-08-22T17:26:12Z</time>
      </trkpt>
      <trkpt lat="42.998773" lon="-1.527841">
        <ele>955.166</ele>
        <time>2019-08-22T17:26:15Z</time>
      </trkpt>
      <trkpt lat="42.998778" lon="-1.527909">
        <ele>955.956</ele>
        <time>2019-08-22T17:26:18Z</time>
      </trkpt>
      <trkpt lat="42.998733" lon="-1.52796">
        <ele>957.003</ele>
        <time>2019-08-22T17:26:22Z</time>
      </trkpt>
      <trkpt lat="42.998687" lon="-1.527968">
        <ele>957.285</ele>
        <time>2019-08-22T17:26:26Z</time>
      </trkpt>
      <trkpt lat="42.998629" lon="-1.527992">
        <ele>957.855</ele>
        <time>2019-08-22T17:26:30Z</time>
      </trkpt>
      <trkpt lat="42.998573" lon="-1.527987">
        <ele>958.409</ele>
        <time>2019-08-22T17:26:33Z</time>
      </trkpt>
      <trkpt lat="42.998518" lon="-1.527982">
        <ele>958.582</ele>
        <time>2019-08-22T17:26:36Z</time>
      </trkpt>
      <trkpt lat="42.998463" lon="-1.527955">
        <ele>958.036</ele>
        <time>2019-08-22T17:26:39Z</time>
      </trkpt>
      <trkpt lat="42.99842" lon="-1.527921">
        <ele>957.424</ele>
        <time>2019-08-22T17:26:43Z</time>
      </trkpt>
      <trkpt lat="42.998466" lon="-1.527937">
        <ele>957.620</ele>
        <time>2019-08-22T17:26:57Z</time>
      </trkpt>
      <trkpt lat="42.99851" lon="-1.527963">
        <ele>958.076</ele>
        <time>2019-08-22T17:27:01Z</time>
      </trkpt>
      <trkpt lat="42.998518" lon="-1.528029">
        <ele>958.297</ele>
        <time>2019-08-22T17:27:04Z</time>
      </trkpt>
      <trkpt lat="42.998489" lon="-1.528078">
        <ele>958.932</ele>
        <time>2019-08-22T17:27:07Z</time>
      </trkpt>
      <trkpt lat="42.998442" lon="-1.528099">
        <ele>959.090</ele>
        <time>2019-08-22T17:27:11Z</time>
      </trkpt>
      <trkpt lat="42.99839" lon="-1.528096">
        <ele>960.481</ele>
        <time>2019-08-22T17:27:16Z</time>
      </trkpt>
      <trkpt lat="42.998435" lon="-1.528132">
        <ele>960.604</ele>
        <time>2019-08-22T17:27:24Z</time>
      </trkpt>
      <trkpt lat="42.998459" lon="-1.528196">
        <ele>960.129</ele>
        <time>2019-08-22T17:27:28Z</time>
      </trkpt>
      <trkpt lat="42.998413" lon="-1.528235">
        <ele>960.819</ele>
        <time>2019-08-22T17:27:33Z</time>
      </trkpt>
      <trkpt lat="42.998368" lon="-1.528196">
        <ele>964.130</ele>
        <time>2019-08-22T17:27:38Z</time>
      </trkpt>
      <trkpt lat="42.99842" lon="-1.52823">
        <ele>967.035</ele>
        <time>2019-08-22T17:27:48Z</time>
      </trkpt>
      <trkpt lat="42.998456" lon="-1.528295">
        <ele>969.069</ele>
        <time>2019-08-22T17:27:52Z</time>
      </trkpt>
      <trkpt lat="42.998487" lon="-1.528355">
        <ele>970.500</ele>
        <time>2019-08-22T17:27:55Z</time>
      </trkpt>
      <trkpt lat="42.99853" lon="-1.528396">
        <ele>971.344</ele>
        <time>2019-08-22T17:27:58Z</time>
      </trkpt>
      <trkpt lat="42.998561" lon="-1.528465">
        <ele>971.707</ele>
        <time>2019-08-22T17:28:02Z</time>
      </trkpt>
      <trkpt lat="42.99858" lon="-1.528521">
        <ele>967.742</ele>
        <time>2019-08-22T17:28:06Z</time>
      </trkpt>
      <trkpt lat="42.998606" lon="-1.528581">
        <ele>963.767</ele>
        <time>2019-08-22T17:28:11Z</time>
      </trkpt>
      <trkpt lat="42.998639" lon="-1.528631">
        <ele>959.758</ele>
        <time>2019-08-22T17:28:15Z</time>
      </trkpt>
      <trkpt lat="42.998659" lon="-1.528687">
        <ele>955.758</ele>
        <time>2019-08-22T17:28:20Z</time>
      </trkpt>
      <trkpt lat="42.998679" lon="-1.528744">
        <ele>951.726</ele>
        <time>2019-08-22T17:28:23Z</time>
      </trkpt>
      <trkpt lat="42.998719" lon="-1.528798">
        <ele>952.231</ele>
        <time>2019-08-22T17:28:26Z</time>
      </trkpt>
      <trkpt lat="42.998753" lon="-1.528856">
        <ele>956.209</ele>
        <time>2019-08-22T17:28:29Z</time>
      </trkpt>
      <trkpt lat="42.998787" lon="-1.528908">
        <ele>960.298</ele>
        <time>2019-08-22T17:28:34Z</time>
      </trkpt>
      <trkpt lat="42.998817" lon="-1.528968">
        <ele>964.283</ele>
        <time>2019-08-22T17:28:39Z</time>
      </trkpt>
      <trkpt lat="42.998855" lon="-1.529014">
        <ele>968.207</ele>
        <time>2019-08-22T17:28:44Z</time>
      </trkpt>
      <trkpt lat="42.998893" lon="-1.529072">
        <ele>971.286</ele>
        <time>2019-08-22T17:28:48Z</time>
      </trkpt>
      <trkpt lat="42.998936" lon="-1.529119">
        <ele>973.335</ele>
        <time>2019-08-22T17:28:51Z</time>
      </trkpt>
      <trkpt lat="42.998972" lon="-1.529167">
        <ele>969.363</ele>
        <time>2019-08-22T17:28:55Z</time>
      </trkpt>
      <trkpt lat="42.998998" lon="-1.529218">
        <ele>965.316</ele>
        <time>2019-08-22T17:28:58Z</time>
      </trkpt>
      <trkpt lat="42.999024" lon="-1.529283">
        <ele>962.477</ele>
        <time>2019-08-22T17:29:02Z</time>
      </trkpt>
      <trkpt lat="42.999046" lon="-1.529358">
        <ele>962.367</ele>
        <time>2019-08-22T17:29:05Z</time>
      </trkpt>
      <trkpt lat="42.999083" lon="-1.529408">
        <ele>963.660</ele>
        <time>2019-08-22T17:29:09Z</time>
      </trkpt>
      <trkpt lat="42.999112" lon="-1.529479">
        <ele>965.875</ele>
        <time>2019-08-22T17:29:12Z</time>
      </trkpt>
      <trkpt lat="42.999105" lon="-1.529561">
        <ele>968.793</ele>
        <time>2019-08-22T17:29:15Z</time>
      </trkpt>
      <trkpt lat="42.999052" lon="-1.529605">
        <ele>970.643</ele>
        <time>2019-08-22T17:29:18Z</time>
      </trkpt>
      <trkpt lat="42.999008" lon="-1.529622">
        <ele>971.979</ele>
        <time>2019-08-22T17:29:21Z</time>
      </trkpt>
      <trkpt lat="42.998958" lon="-1.529606">
        <ele>972.658</ele>
        <time>2019-08-22T17:29:25Z</time>
      </trkpt>
      <trkpt lat="42.998906" lon="-1.529577">
        <ele>973.955</ele>
        <time>2019-08-22T17:29:29Z</time>
      </trkpt>
      <trkpt lat="42.998854" lon="-1.529582">
        <ele>974.159</ele>
        <time>2019-08-22T17:29:34Z</time>
      </trkpt>
      <trkpt lat="42.998801" lon="-1.529563">
        <ele>974.538</ele>
        <time>2019-08-22T17:29:39Z</time>
      </trkpt>
      <trkpt lat="42.998752" lon="-1.529548">
        <ele>975.059</ele>
        <time>2019-08-22T17:29:46Z</time>
      </trkpt>
      <trkpt lat="42.998696" lon="-1.529545">
        <ele>975.021</ele>
        <time>2019-08-22T17:29:51Z</time>
      </trkpt>
      <trkpt lat="42.998647" lon="-1.529547">
        <ele>976.179</ele>
        <time>2019-08-22T17:29:54Z</time>
      </trkpt>
      <trkpt lat="42.998601" lon="-1.529548">
        <ele>977.148</ele>
        <time>2019-08-22T17:29:57Z</time>
      </trkpt>
      <trkpt lat="42.99855" lon="-1.529541">
        <ele>978.363</ele>
        <time>2019-08-22T17:30:01Z</time>
      </trkpt>
      <trkpt lat="42.998502" lon="-1.529523">
        <ele>980.316</ele>
        <time>2019-08-22T17:30:05Z</time>
      </trkpt>
      <trkpt lat="42.998456" lon="-1.5295">
        <ele>980.265</ele>
        <time>2019-08-22T17:30:10Z</time>
      </trkpt>
      <trkpt lat="42.99839" lon="-1.529507">
        <ele>981.089</ele>
        <time>2019-08-22T17:30:15Z</time>
      </trkpt>
      <trkpt lat="42.998338" lon="-1.529536">
        <ele>981.656</ele>
        <time>2019-08-22T17:30:18Z</time>
      </trkpt>
      <trkpt lat="42.99829" lon="-1.529551">
        <ele>981.858</ele>
        <time>2019-08-22T17:30:20Z</time>
      </trkpt>
      <trkpt lat="42.99823" lon="-1.529555">
        <ele>981.966</ele>
        <time>2019-08-22T17:30:23Z</time>
      </trkpt>
      <trkpt lat="42.998175" lon="-1.52954">
        <ele>982.636</ele>
        <time>2019-08-22T17:30:26Z</time>
      </trkpt>
      <trkpt lat="42.998125" lon="-1.529531">
        <ele>983.570</ele>
        <time>2019-08-22T17:30:29Z</time>
      </trkpt>
      <trkpt lat="42.998056" lon="-1.529522">
        <ele>983.750</ele>
        <time>2019-08-22T17:30:33Z</time>
      </trkpt>
      <trkpt lat="42.998021" lon="-1.529569">
        <ele>983.476</ele>
        <time>2019-08-22T17:30:40Z</time>
      </trkpt>
      <trkpt lat="42.997993" lon="-1.529633">
        <ele>984.746</ele>
        <time>2019-08-22T17:30:43Z</time>
      </trkpt>
      <trkpt lat="42.997964" lon="-1.529687">
        <ele>985.329</ele>
        <time>2019-08-22T17:30:46Z</time>
      </trkpt>
      <trkpt lat="42.99789" lon="-1.529691">
        <ele>987.201</ele>
        <time>2019-08-22T17:31:35Z</time>
      </trkpt>
      <trkpt lat="42.997862" lon="-1.52976">
        <ele>990.298</ele>
        <time>2019-08-22T17:31:42Z</time>
      </trkpt>
      <trkpt lat="42.997838" lon="-1.529824">
        <ele>993.159</ele>
        <time>2019-08-22T17:31:45Z</time>
      </trkpt>
      <trkpt lat="42.997817" lon="-1.529879">
        <ele>994.500</ele>
        <time>2019-08-22T17:31:48Z</time>
      </trkpt>
      <trkpt lat="42.997779" lon="-1.529946">
        <ele>995.967</ele>
        <time>2019-08-22T17:31:51Z</time>
      </trkpt>
      <trkpt lat="42.997737" lon="-1.530008">
        <ele>997.000</ele>
        <time>2019-08-22T17:31:54Z</time>
      </trkpt>
      <trkpt lat="42.997699" lon="-1.530057">
        <ele>998.403</ele>
        <time>2019-08-22T17:31:57Z</time>
      </trkpt>
      <trkpt lat="42.997662" lon="-1.530096">
        <ele>999.463</ele>
        <time>2019-08-22T17:32:00Z</time>
      </trkpt>
      <trkpt lat="42.997604" lon="-1.530117">
        <ele>999.683</ele>
        <time>2019-08-22T17:32:03Z</time>
      </trkpt>
      <trkpt lat="42.997557" lon="-1.53013">
        <ele>999.071</ele>
        <time>2019-08-22T17:32:06Z</time>
      </trkpt>
      <trkpt lat="42.997507" lon="-1.530138">
        <ele>997.723</ele>
        <time>2019-08-22T17:32:10Z</time>
      </trkpt>
      <trkpt lat="42.997452" lon="-1.530149">
        <ele>997.478</ele>
        <time>2019-08-22T17:32:14Z</time>
      </trkpt>
      <trkpt lat="42.997401" lon="-1.530158">
        <ele>998.160</ele>
        <time>2019-08-22T17:32:19Z</time>
      </trkpt>
      <trkpt lat="42.997362" lon="-1.530204">
        <ele>997.593</ele>
        <time>2019-08-22T17:32:23Z</time>
      </trkpt>
      <trkpt lat="42.997334" lon="-1.530254">
        <ele>997.739</ele>
        <time>2019-08-22T17:32:27Z</time>
      </trkpt>
      <trkpt lat="42.997296" lon="-1.530298">
        <ele>1000.189</ele>
        <time>2019-08-22T17:32:34Z</time>
      </trkpt>
      <trkpt lat="42.997269" lon="-1.530364">
        <ele>1000.097</ele>
        <time>2019-08-22T17:32:39Z</time>
      </trkpt>
      <trkpt lat="42.997255" lon="-1.530428">
        <ele>1001.906</ele>
        <time>2019-08-22T17:32:44Z</time>
      </trkpt>
      <trkpt lat="42.997217" lon="-1.530497">
        <ele>1002.882</ele>
        <time>2019-08-22T17:32:49Z</time>
      </trkpt>
      <trkpt lat="42.997205" lon="-1.530559">
        <ele>1003.124</ele>
        <time>2019-08-22T17:32:54Z</time>
      </trkpt>
      <trkpt lat="42.997193" lon="-1.530621">
        <ele>1003.521</ele>
        <time>2019-08-22T17:32:57Z</time>
      </trkpt>
      <trkpt lat="42.997167" lon="-1.530685">
        <ele>1005.034</ele>
        <time>2019-08-22T17:33:01Z</time>
      </trkpt>
      <trkpt lat="42.997132" lon="-1.530733">
        <ele>1007.149</ele>
        <time>2019-08-22T17:33:05Z</time>
      </trkpt>
      <trkpt lat="42.997097" lon="-1.530781">
        <ele>1009.228</ele>
        <time>2019-08-22T17:33:08Z</time>
      </trkpt>
      <trkpt lat="42.997066" lon="-1.530846">
        <ele>1011.072</ele>
        <time>2019-08-22T17:33:12Z</time>
      </trkpt>
      <trkpt lat="42.997049" lon="-1.530908">
        <ele>1013.083</ele>
        <time>2019-08-22T17:33:16Z</time>
      </trkpt>
      <trkpt lat="42.997026" lon="-1.530967">
        <ele>1014.504</ele>
        <time>2019-08-22T17:33:21Z</time>
      </trkpt>
      <trkpt lat="42.996991" lon="-1.531031">
        <ele>1015.209</ele>
        <time>2019-08-22T17:33:26Z</time>
      </trkpt>
      <trkpt lat="42.996954" lon="-1.531067">
        <ele>1015.657</ele>
        <time>2019-08-22T17:33:29Z</time>
      </trkpt>
      <trkpt lat="42.996921" lon="-1.531123">
        <ele>1015.123</ele>
        <time>2019-08-22T17:33:34Z</time>
      </trkpt>
      <trkpt lat="42.996899" lon="-1.53118">
        <ele>1016.154</ele>
        <time>2019-08-22T17:33:38Z</time>
      </trkpt>
      <trkpt lat="42.99687" lon="-1.531235">
        <ele>1017.024</ele>
        <time>2019-08-22T17:33:41Z</time>
      </trkpt>
      <trkpt lat="42.99684" lon="-1.531315">
        <ele>1017.244</ele>
        <time>2019-08-22T17:33:45Z</time>
      </trkpt>
      <trkpt lat="42.99682" lon="-1.531378">
        <ele>1013.223</ele>
        <time>2019-08-22T17:33:49Z</time>
      </trkpt>
      <trkpt lat="42.996795" lon="-1.531431">
        <ele>1009.220</ele>
        <time>2019-08-22T17:33:52Z</time>
      </trkpt>
      <trkpt lat="42.996759" lon="-1.531483">
        <ele>1005.284</ele>
        <time>2019-08-22T17:33:55Z</time>
      </trkpt>
      <trkpt lat="42.99673" lon="-1.531545">
        <ele>1007.115</ele>
        <time>2019-08-22T17:34:01Z</time>
      </trkpt>
      <trkpt lat="42.996706" lon="-1.531615">
        <ele>1009.999</ele>
        <time>2019-08-22T17:34:07Z</time>
      </trkpt>
      <trkpt lat="42.996672" lon="-1.53169">
        <ele>1012.677</ele>
        <time>2019-08-22T17:34:12Z</time>
      </trkpt>
      <trkpt lat="42.996648" lon="-1.531759">
        <ele>1008.624</ele>
        <time>2019-08-22T17:34:16Z</time>
      </trkpt>
      <trkpt lat="42.996632" lon="-1.531833">
        <ele>1004.662</ele>
        <time>2019-08-22T17:34:21Z</time>
      </trkpt>
      <trkpt lat="42.996621" lon="-1.531895">
        <ele>1002.253</ele>
        <time>2019-08-22T17:34:25Z</time>
      </trkpt>
      <trkpt lat="42.996618" lon="-1.531963">
        <ele>1005.825</ele>
        <time>2019-08-22T17:34:30Z</time>
      </trkpt>
      <trkpt lat="42.996608" lon="-1.532023">
        <ele>1009.832</ele>
        <time>2019-08-22T17:34:34Z</time>
      </trkpt>
      <trkpt lat="42.99659" lon="-1.532093">
        <ele>1013.886</ele>
        <time>2019-08-22T17:34:39Z</time>
      </trkpt>
      <trkpt lat="42.996576" lon="-1.532164">
        <ele>1017.862</ele>
        <time>2019-08-22T17:34:44Z</time>
      </trkpt>
      <trkpt lat="42.99657" lon="-1.532238">
        <ele>1013.820</ele>
        <time>2019-08-22T17:34:48Z</time>
      </trkpt>
      <trkpt lat="42.996564" lon="-1.532334">
        <ele>1009.865</ele>
        <time>2019-08-22T17:34:52Z</time>
      </trkpt>
      <trkpt lat="42.996559" lon="-1.532403">
        <ele>1007.408</ele>
        <time>2019-08-22T17:34:55Z</time>
      </trkpt>
      <trkpt lat="42.996551" lon="-1.532481">
        <ele>1011.008</ele>
        <time>2019-08-22T17:35:00Z</time>
      </trkpt>
      <trkpt lat="42.996532" lon="-1.53256">
        <ele>1015.071</ele>
        <time>2019-08-22T17:35:05Z</time>
      </trkpt>
      <trkpt lat="42.996529" lon="-1.532633">
        <ele>1019.044</ele>
        <time>2019-08-22T17:35:09Z</time>
      </trkpt>
      <trkpt lat="42.996539" lon="-1.532696">
        <ele>1023.022</ele>
        <time>2019-08-22T17:35:12Z</time>
      </trkpt>
      <trkpt lat="42.996554" lon="-1.532757">
        <ele>1026.055</ele>
        <time>2019-08-22T17:35:15Z</time>
      </trkpt>
      <trkpt lat="42.996558" lon="-1.532825">
        <ele>1022.070</ele>
        <time>2019-08-22T17:35:19Z</time>
      </trkpt>
      <trkpt lat="42.996553" lon="-1.532896">
        <ele>1018.067</ele>
        <time>2019-08-22T17:35:23Z</time>
      </trkpt>
      <trkpt lat="42.996497" lon="-1.533059">
        <ele>1022.049</ele>
        <time>2019-08-22T17:36:28Z</time>
      </trkpt>
      <trkpt lat="42.996452" lon="-1.53305">
        <ele>1026.071</ele>
        <time>2019-08-22T17:36:52Z</time>
      </trkpt>
      <trkpt lat="42.996417" lon="-1.533001">
        <ele>1029.833</ele>
        <time>2019-08-22T17:37:00Z</time>
      </trkpt>
      <trkpt lat="42.996396" lon="-1.532938">
        <ele>1033.051</ele>
        <time>2019-08-22T17:37:04Z</time>
      </trkpt>
      <trkpt lat="42.996383" lon="-1.532877">
        <ele>1033.877</ele>
        <time>2019-08-22T17:37:08Z</time>
      </trkpt>
      <trkpt lat="42.996352" lon="-1.532813">
        <ele>1032.278</ele>
        <time>2019-08-22T17:37:12Z</time>
      </trkpt>
      <trkpt lat="42.996317" lon="-1.532762">
        <ele>1032.037</ele>
        <time>2019-08-22T17:37:16Z</time>
      </trkpt>
      <trkpt lat="42.996287" lon="-1.532714">
        <ele>1031.774</ele>
        <time>2019-08-22T17:37:19Z</time>
      </trkpt>
      <trkpt lat="42.996255" lon="-1.532648">
        <ele>1031.960</ele>
        <time>2019-08-22T17:37:23Z</time>
      </trkpt>
      <trkpt lat="42.996219" lon="-1.5326">
        <ele>1031.116</ele>
        <time>2019-08-22T17:37:27Z</time>
      </trkpt>
      <trkpt lat="42.996178" lon="-1.532562">
        <ele>1030.349</ele>
        <time>2019-08-22T17:37:30Z</time>
      </trkpt>
      <trkpt lat="42.996146" lon="-1.532515">
        <ele>1028.028</ele>
        <time>2019-08-22T17:37:32Z</time>
      </trkpt>
      <trkpt lat="42.996114" lon="-1.532461">
        <ele>1026.551</ele>
        <time>2019-08-22T17:37:34Z</time>
      </trkpt>
      <trkpt lat="42.996077" lon="-1.532399">
        <ele>1025.562</ele>
        <time>2019-08-22T17:37:36Z</time>
      </trkpt>
      <trkpt lat="42.996034" lon="-1.532327">
        <ele>1025.391</ele>
        <time>2019-08-22T17:37:38Z</time>
      </trkpt>
      <trkpt lat="42.995997" lon="-1.532261">
        <ele>1025.618</ele>
        <time>2019-08-22T17:37:40Z</time>
      </trkpt>
      <trkpt lat="42.995953" lon="-1.532204">
        <ele>1028.435</ele>
        <time>2019-08-22T17:37:43Z</time>
      </trkpt>
      <trkpt lat="42.995912" lon="-1.53217">
        <ele>1032.425</ele>
        <time>2019-08-22T17:37:48Z</time>
      </trkpt>
      <trkpt lat="42.995909" lon="-1.532239">
        <ele>1036.433</ele>
        <time>2019-08-22T17:38:02Z</time>
      </trkpt>
      <trkpt lat="42.995931" lon="-1.532302">
        <ele>1040.491</ele>
        <time>2019-08-22T17:38:07Z</time>
      </trkpt>
      <trkpt lat="42.995887" lon="-1.532333">
        <ele>1044.142</ele>
        <time>2019-08-22T17:38:17Z</time>
      </trkpt>
      <trkpt lat="42.995838" lon="-1.532303">
        <ele>1046.381</ele>
        <time>2019-08-22T17:38:22Z</time>
      </trkpt>
      <trkpt lat="42.995789" lon="-1.532287">
        <ele>1047.209</ele>
        <time>2019-08-22T17:38:26Z</time>
      </trkpt>
      <trkpt lat="42.995736" lon="-1.532284">
        <ele>1046.906</ele>
        <time>2019-08-22T17:38:30Z</time>
      </trkpt>
      <trkpt lat="42.995693" lon="-1.532254">
        <ele>1047.741</ele>
        <time>2019-08-22T17:38:34Z</time>
      </trkpt>
      <trkpt lat="42.995649" lon="-1.532226">
        <ele>1049.454</ele>
        <time>2019-08-22T17:38:37Z</time>
      </trkpt>
      <trkpt lat="42.995606" lon="-1.532202">
        <ele>1051.286</ele>
        <time>2019-08-22T17:38:40Z</time>
      </trkpt>
      <trkpt lat="42.995561" lon="-1.532186">
        <ele>1053.034</ele>
        <time>2019-08-22T17:38:43Z</time>
      </trkpt>
      <trkpt lat="42.995505" lon="-1.532177">
        <ele>1054.304</ele>
        <time>2019-08-22T17:38:47Z</time>
      </trkpt>
      <trkpt lat="42.995449" lon="-1.532162">
        <ele>1055.003</ele>
        <time>2019-08-22T17:38:51Z</time>
      </trkpt>
      <trkpt lat="42.9954" lon="-1.53214">
        <ele>1054.800</ele>
        <time>2019-08-22T17:38:55Z</time>
      </trkpt>
      <trkpt lat="42.995352" lon="-1.532116">
        <ele>1054.293</ele>
        <time>2019-08-22T17:39:00Z</time>
      </trkpt>
      <trkpt lat="42.99534" lon="-1.532177">
        <ele>1054.606</ele>
        <time>2019-08-22T17:39:08Z</time>
      </trkpt>
      <trkpt lat="42.995378" lon="-1.532233">
        <ele>1054.532</ele>
        <time>2019-08-22T17:39:16Z</time>
      </trkpt>
      <trkpt lat="42.995406" lon="-1.532282">
        <ele>1056.108</ele>
        <time>2019-08-22T17:39:20Z</time>
      </trkpt>
      <trkpt lat="42.995439" lon="-1.532336">
        <ele>1057.800</ele>
        <time>2019-08-22T17:39:24Z</time>
      </trkpt>
      <trkpt lat="42.99548" lon="-1.532386">
        <ele>1058.707</ele>
        <time>2019-08-22T17:39:28Z</time>
      </trkpt>
      <trkpt lat="42.995516" lon="-1.532439">
        <ele>1059.154</ele>
        <time>2019-08-22T17:39:32Z</time>
      </trkpt>
      <trkpt lat="42.995546" lon="-1.532486">
        <ele>1059.825</ele>
        <time>2019-08-22T17:39:35Z</time>
      </trkpt>
      <trkpt lat="42.995563" lon="-1.532555">
        <ele>1061.880</ele>
        <time>2019-08-22T17:39:40Z</time>
      </trkpt>
      <trkpt lat="42.995581" lon="-1.532622">
        <ele>1060.655</ele>
        <time>2019-08-22T17:39:46Z</time>
      </trkpt>
      <trkpt lat="42.995609" lon="-1.532675">
        <ele>1060.146</ele>
        <time>2019-08-22T17:39:52Z</time>
      </trkpt>
      <trkpt lat="42.995636" lon="-1.532734">
        <ele>1058.795</ele>
        <time>2019-08-22T17:39:57Z</time>
      </trkpt>
      <trkpt lat="42.99559" lon="-1.532738">
        <ele>1056.825</ele>
        <time>2019-08-22T17:40:03Z</time>
      </trkpt>
      <trkpt lat="42.995544" lon="-1.532727">
        <ele>1055.448</ele>
        <time>2019-08-22T17:40:07Z</time>
      </trkpt>
      <trkpt lat="42.995493" lon="-1.532723">
        <ele>1055.128</ele>
        <time>2019-08-22T17:40:11Z</time>
      </trkpt>
      <trkpt lat="42.99544" lon="-1.53271">
        <ele>1055.763</ele>
        <time>2019-08-22T17:40:16Z</time>
      </trkpt>
      <trkpt lat="42.995398" lon="-1.532685">
        <ele>1057.468</ele>
        <time>2019-08-22T17:40:19Z</time>
      </trkpt>
      <trkpt lat="42.995339" lon="-1.532654">
        <ele>1059.301</ele>
        <time>2019-08-22T17:40:22Z</time>
      </trkpt>
      <trkpt lat="42.995282" lon="-1.53263">
        <ele>1060.392</ele>
        <time>2019-08-22T17:40:25Z</time>
      </trkpt>
      <trkpt lat="42.995221" lon="-1.532604">
        <ele>1060.481</ele>
        <time>2019-08-22T17:40:28Z</time>
      </trkpt>
      <trkpt lat="42.995171" lon="-1.532578">
        <ele>1060.927</ele>
        <time>2019-08-22T17:40:30Z</time>
      </trkpt>
      <trkpt lat="42.995123" lon="-1.532555">
        <ele>1061.947</ele>
        <time>2019-08-22T17:40:32Z</time>
      </trkpt>
      <trkpt lat="42.995154" lon="-1.532617">
        <ele>1063.610</ele>
        <time>2019-08-22T17:40:47Z</time>
      </trkpt>
      <trkpt lat="42.995202" lon="-1.532651">
        <ele>1063.326</ele>
        <time>2019-08-22T17:40:52Z</time>
      </trkpt>
      <trkpt lat="42.995244" lon="-1.53269">
        <ele>1062.986</ele>
        <time>2019-08-22T17:40:59Z</time>
      </trkpt>
      <trkpt lat="42.99527" lon="-1.53274">
        <ele>1063.712</ele>
        <time>2019-08-22T17:41:04Z</time>
      </trkpt>
      <trkpt lat="42.995254" lon="-1.532805">
        <ele>1065.978</ele>
        <time>2019-08-22T17:41:08Z</time>
      </trkpt>
      <trkpt lat="42.995241" lon="-1.532864">
        <ele>1068.811</ele>
        <time>2019-08-22T17:41:15Z</time>
      </trkpt>
      <trkpt lat="42.99528" lon="-1.532916">
        <ele>1069.898</ele>
        <time>2019-08-22T17:41:20Z</time>
      </trkpt>
      <trkpt lat="42.995329" lon="-1.532958">
        <ele>1070.750</ele>
        <time>2019-08-22T17:41:25Z</time>
      </trkpt>
      <trkpt lat="42.995366" lon="-1.53301">
        <ele>1073.726</ele>
        <time>2019-08-22T17:41:30Z</time>
      </trkpt>
      <trkpt lat="42.9954" lon="-1.53306">
        <ele>1069.703</ele>
        <time>2019-08-22T17:41:34Z</time>
      </trkpt>
      <trkpt lat="42.995433" lon="-1.533125">
        <ele>1065.749</ele>
        <time>2019-08-22T17:41:38Z</time>
      </trkpt>
      <trkpt lat="42.995451" lon="-1.533203">
        <ele>1061.738</ele>
        <time>2019-08-22T17:41:43Z</time>
      </trkpt>
      <trkpt lat="42.995468" lon="-1.533266">
        <ele>1058.697</ele>
        <time>2019-08-22T17:41:47Z</time>
      </trkpt>
      <trkpt lat="42.995489" lon="-1.53334">
        <ele>1057.195</ele>
        <time>2019-08-22T17:41:51Z</time>
      </trkpt>
      <trkpt lat="42.995508" lon="-1.533411">
        <ele>1060.061</ele>
        <time>2019-08-22T17:41:55Z</time>
      </trkpt>
      <trkpt lat="42.995532" lon="-1.533465">
        <ele>1063.851</ele>
        <time>2019-08-22T17:41:59Z</time>
      </trkpt>
      <trkpt lat="42.995557" lon="-1.533537">
        <ele>1066.902</ele>
        <time>2019-08-22T17:42:02Z</time>
      </trkpt>
      <trkpt lat="42.995579" lon="-1.533605">
        <ele>1070.787</ele>
        <time>2019-08-22T17:42:05Z</time>
      </trkpt>
      <trkpt lat="42.995591" lon="-1.533665">
        <ele>1073.149</ele>
        <time>2019-08-22T17:42:10Z</time>
      </trkpt>
      <trkpt lat="42.995613" lon="-1.533722">
        <ele>1075.303</ele>
        <time>2019-08-22T17:42:14Z</time>
      </trkpt>
      <trkpt lat="42.995636" lon="-1.533779">
        <ele>1076.337</ele>
        <time>2019-08-22T17:42:18Z</time>
      </trkpt>
      <trkpt lat="42.995666" lon="-1.533841">
        <ele>1076.613</ele>
        <time>2019-08-22T17:42:22Z</time>
      </trkpt>
      <trkpt lat="42.995688" lon="-1.533895">
        <ele>1078.510</ele>
        <time>2019-08-22T17:42:26Z</time>
      </trkpt>
      <trkpt lat="42.995708" lon="-1.533956">
        <ele>1080.153</ele>
        <time>2019-08-22T17:42:30Z</time>
      </trkpt>
      <trkpt lat="42.995733" lon="-1.534017">
        <ele>1082.591</ele>
        <time>2019-08-22T17:42:34Z</time>
      </trkpt>
      <trkpt lat="42.995755" lon="-1.534085">
        <ele>1082.997</ele>
        <time>2019-08-22T17:42:38Z</time>
      </trkpt>
      <trkpt lat="42.995764" lon="-1.534158">
        <ele>1085.451</ele>
        <time>2019-08-22T17:42:42Z</time>
      </trkpt>
      <trkpt lat="42.995769" lon="-1.53422">
        <ele>1085.943</ele>
        <time>2019-08-22T17:42:45Z</time>
      </trkpt>
      <trkpt lat="42.995778" lon="-1.534282">
        <ele>1086.888</ele>
        <time>2019-08-22T17:42:48Z</time>
      </trkpt>
      <trkpt lat="42.9958" lon="-1.534359">
        <ele>1086.820</ele>
        <time>2019-08-22T17:42:53Z</time>
      </trkpt>
      <trkpt lat="42.99583" lon="-1.534412">
        <ele>1086.613</ele>
        <time>2019-08-22T17:42:59Z</time>
      </trkpt>
      <trkpt lat="42.995856" lon="-1.534469">
        <ele>1085.851</ele>
        <time>2019-08-22T17:43:02Z</time>
      </trkpt>
      <trkpt lat="42.995889" lon="-1.534534">
        <ele>1084.978</ele>
        <time>2019-08-22T17:43:05Z</time>
      </trkpt>
      <trkpt lat="42.995913" lon="-1.534588">
        <ele>1085.755</ele>
        <time>2019-08-22T17:43:09Z</time>
      </trkpt>
      <trkpt lat="42.995922" lon="-1.534653">
        <ele>1087.199</ele>
        <time>2019-08-22T17:43:14Z</time>
      </trkpt>
      <trkpt lat="42.99594" lon="-1.534733">
        <ele>1087.473</ele>
        <time>2019-08-22T17:43:17Z</time>
      </trkpt>
      <trkpt lat="42.995963" lon="-1.534812">
        <ele>1086.641</ele>
        <time>2019-08-22T17:43:20Z</time>
      </trkpt>
      <trkpt lat="42.995986" lon="-1.534877">
        <ele>1087.379</ele>
        <time>2019-08-22T17:43:24Z</time>
      </trkpt>
      <trkpt lat="42.996011" lon="-1.534943">
        <ele>1088.381</ele>
        <time>2019-08-22T17:43:28Z</time>
      </trkpt>
      <trkpt lat="42.996036" lon="-1.535008">
        <ele>1090.085</ele>
        <time>2019-08-22T17:43:32Z</time>
      </trkpt>
      <trkpt lat="42.996056" lon="-1.535065">
        <ele>1090.718</ele>
        <time>2019-08-22T17:43:35Z</time>
      </trkpt>
      <trkpt lat="42.996084" lon="-1.535118">
        <ele>1092.143</ele>
        <time>2019-08-22T17:43:38Z</time>
      </trkpt>
      <trkpt lat="42.99611" lon="-1.53518">
        <ele>1093.396</ele>
        <time>2019-08-22T17:43:42Z</time>
      </trkpt>
      <trkpt lat="42.996125" lon="-1.53526">
        <ele>1089.313</ele>
        <time>2019-08-22T17:43:47Z</time>
      </trkpt>
      <trkpt lat="42.996148" lon="-1.535325">
        <ele>1085.357</ele>
        <time>2019-08-22T17:43:51Z</time>
      </trkpt>
      <trkpt lat="42.996165" lon="-1.53539">
        <ele>1081.394</ele>
        <time>2019-08-22T17:43:55Z</time>
      </trkpt>
      <trkpt lat="42.9962" lon="-1.535445">
        <ele>1077.392</ele>
        <time>2019-08-22T17:44:00Z</time>
      </trkpt>
      <trkpt lat="42.996231" lon="-1.535491">
        <ele>1073.313</ele>
        <time>2019-08-22T17:44:04Z</time>
      </trkpt>
      <trkpt lat="42.996264" lon="-1.53555">
        <ele>1069.347</ele>
        <time>2019-08-22T17:44:08Z</time>
      </trkpt>
      <trkpt lat="42.996296" lon="-1.535617">
        <ele>1067.024</ele>
        <time>2019-08-22T17:44:13Z</time>
      </trkpt>
      <trkpt lat="42.996333" lon="-1.535661">
        <ele>1068.663</ele>
        <time>2019-08-22T17:44:16Z</time>
      </trkpt>
      <trkpt lat="42.996368" lon="-1.535701">
        <ele>1072.615</ele>
        <time>2019-08-22T17:44:19Z</time>
      </trkpt>
      <trkpt lat="42.996417" lon="-1.535737">
        <ele>1076.594</ele>
        <time>2019-08-22T17:44:22Z</time>
      </trkpt>
      <trkpt lat="42.996455" lon="-1.535774">
        <ele>1079.791</ele>
        <time>2019-08-22T17:44:25Z</time>
      </trkpt>
      <trkpt lat="42.996503" lon="-1.535813">
        <ele>1083.495</ele>
        <time>2019-08-22T17:44:29Z</time>
      </trkpt>
      <trkpt lat="42.996548" lon="-1.535844">
        <ele>1086.456</ele>
        <time>2019-08-22T17:44:32Z</time>
      </trkpt>
      <trkpt lat="42.996588" lon="-1.535878">
        <ele>1088.923</ele>
        <time>2019-08-22T17:44:34Z</time>
      </trkpt>
      <trkpt lat="42.996632" lon="-1.535924">
        <ele>1090.379</ele>
        <time>2019-08-22T17:44:37Z</time>
      </trkpt>
      <trkpt lat="42.996671" lon="-1.535978">
        <ele>1086.323</ele>
        <time>2019-08-22T17:44:41Z</time>
      </trkpt>
      <trkpt lat="42.9967" lon="-1.536028">
        <ele>1082.363</ele>
        <time>2019-08-22T17:44:44Z</time>
      </trkpt>
      <trkpt lat="42.996739" lon="-1.536102">
        <ele>1078.322</ele>
        <time>2019-08-22T17:44:48Z</time>
      </trkpt>
      <trkpt lat="42.996764" lon="-1.536157">
        <ele>1079.371</ele>
        <time>2019-08-22T17:44:52Z</time>
      </trkpt>
      <trkpt lat="42.996791" lon="-1.536208">
        <ele>1083.328</ele>
        <time>2019-08-22T17:44:55Z</time>
      </trkpt>
      <trkpt lat="42.996817" lon="-1.536262">
        <ele>1087.371</ele>
        <time>2019-08-22T17:44:58Z</time>
      </trkpt>
      <trkpt lat="42.996848" lon="-1.536332">
        <ele>1089.709</ele>
        <time>2019-08-22T17:45:03Z</time>
      </trkpt>
      <trkpt lat="42.996871" lon="-1.5364">
        <ele>1090.852</ele>
        <time>2019-08-22T17:45:08Z</time>
      </trkpt>
      <trkpt lat="42.996894" lon="-1.536468">
        <ele>1092.957</ele>
        <time>2019-08-22T17:45:12Z</time>
      </trkpt>
      <trkpt lat="42.996899" lon="-1.536535">
        <ele>1094.485</ele>
        <time>2019-08-22T17:45:16Z</time>
      </trkpt>
      <trkpt lat="42.996902" lon="-1.536605">
        <ele>1096.320</ele>
        <time>2019-08-22T17:45:21Z</time>
      </trkpt>
      <trkpt lat="42.99691" lon="-1.536683">
        <ele>1099.829</ele>
        <time>2019-08-22T17:45:25Z</time>
      </trkpt>
      <trkpt lat="42.99686" lon="-1.536677">
        <ele>1103.866</ele>
        <time>2019-08-22T17:45:34Z</time>
      </trkpt>
      <trkpt lat="42.996826" lon="-1.536626">
        <ele>1107.821</ele>
        <time>2019-08-22T17:45:38Z</time>
      </trkpt>
      <trkpt lat="42.996793" lon="-1.536561">
        <ele>1109.049</ele>
        <time>2019-08-22T17:45:43Z</time>
      </trkpt>
      <trkpt lat="42.996758" lon="-1.536509">
        <ele>1110.812</ele>
        <time>2019-08-22T17:45:49Z</time>
      </trkpt>
      <trkpt lat="42.996718" lon="-1.536476">
        <ele>1110.842</ele>
        <time>2019-08-22T17:45:53Z</time>
      </trkpt>
      <trkpt lat="42.996677" lon="-1.536449">
        <ele>1110.943</ele>
        <time>2019-08-22T17:45:57Z</time>
      </trkpt>
      <trkpt lat="42.996631" lon="-1.536421">
        <ele>1111.630</ele>
        <time>2019-08-22T17:46:01Z</time>
      </trkpt>
      <trkpt lat="42.996575" lon="-1.536399">
        <ele>1111.475</ele>
        <time>2019-08-22T17:46:09Z</time>
      </trkpt>
      <trkpt lat="42.996609" lon="-1.536444">
        <ele>1111.319</ele>
        <time>2019-08-22T17:46:15Z</time>
      </trkpt>
      <trkpt lat="42.996614" lon="-1.53651">
        <ele>1110.096</ele>
        <time>2019-08-22T17:46:21Z</time>
      </trkpt>
      <trkpt lat="42.996609" lon="-1.536581">
        <ele>1111.760</ele>
        <time>2019-08-22T17:46:27Z</time>
      </trkpt>
      <trkpt lat="42.996571" lon="-1.536615">
        <ele>1113.302</ele>
        <time>2019-08-22T17:46:39Z</time>
      </trkpt>
      <trkpt lat="42.996521" lon="-1.536579">
        <ele>1114.792</ele>
        <time>2019-08-22T17:46:44Z</time>
      </trkpt>
      <trkpt lat="42.996472" lon="-1.53656">
        <ele>1116.019</ele>
        <time>2019-08-22T17:46:48Z</time>
      </trkpt>
      <trkpt lat="42.996427" lon="-1.536541">
        <ele>1117.799</ele>
        <time>2019-08-22T17:46:52Z</time>
      </trkpt>
      <trkpt lat="42.99638" lon="-1.536531">
        <ele>1118.334</ele>
        <time>2019-08-22T17:48:04Z</time>
      </trkpt>
      <trkpt lat="42.996338" lon="-1.536507">
        <ele>1118.301</ele>
        <time>2019-08-22T17:48:08Z</time>
      </trkpt>
      <trkpt lat="42.996284" lon="-1.53643">
        <ele>1119.373</ele>
        <time>2019-08-22T17:48:16Z</time>
      </trkpt>
      <trkpt lat="42.996241" lon="-1.53641">
        <ele>1118.329</ele>
        <time>2019-08-22T17:48:21Z</time>
      </trkpt>
      <trkpt lat="42.996196" lon="-1.53636">
        <ele>1117.488</ele>
        <time>2019-08-22T17:48:26Z</time>
      </trkpt>
      <trkpt lat="42.996152" lon="-1.536326">
        <ele>1117.148</ele>
        <time>2019-08-22T17:48:30Z</time>
      </trkpt>
      <trkpt lat="42.996112" lon="-1.536291">
        <ele>1117.153</ele>
        <time>2019-08-22T17:48:33Z</time>
      </trkpt>
      <trkpt lat="42.996065" lon="-1.536262">
        <ele>1115.966</ele>
        <time>2019-08-22T17:48:37Z</time>
      </trkpt>
      <trkpt lat="42.996025" lon="-1.536213">
        <ele>1115.376</ele>
        <time>2019-08-22T17:48:41Z</time>
      </trkpt>
      <trkpt lat="42.995981" lon="-1.536156">
        <ele>1115.200</ele>
        <time>2019-08-22T17:48:45Z</time>
      </trkpt>
      <trkpt lat="42.996025" lon="-1.536202">
        <ele>1117.838</ele>
        <time>2019-08-22T17:49:00Z</time>
      </trkpt>
      <trkpt lat="42.996061" lon="-1.536256">
        <ele>1120.026</ele>
        <time>2019-08-22T17:49:04Z</time>
      </trkpt>
      <trkpt lat="42.996076" lon="-1.536325">
        <ele>1119.848</ele>
        <time>2019-08-22T17:49:09Z</time>
      </trkpt>
      <trkpt lat="42.996084" lon="-1.536396">
        <ele>1120.162</ele>
        <time>2019-08-22T17:49:13Z</time>
      </trkpt>
      <trkpt lat="42.996087" lon="-1.536469">
        <ele>1122.070</ele>
        <time>2019-08-22T17:49:20Z</time>
      </trkpt>
      <trkpt lat="42.996087" lon="-1.53655">
        <ele>1122.393</ele>
        <time>2019-08-22T17:49:25Z</time>
      </trkpt>
      <trkpt lat="42.996085" lon="-1.536616">
        <ele>1121.957</ele>
        <time>2019-08-22T17:49:29Z</time>
      </trkpt>
      <trkpt lat="42.996097" lon="-1.536686">
        <ele>1120.989</ele>
        <time>2019-08-22T17:49:32Z</time>
      </trkpt>
      <trkpt lat="42.996114" lon="-1.536761">
        <ele>1119.790</ele>
        <time>2019-08-22T17:49:35Z</time>
      </trkpt>
      <trkpt lat="42.996136" lon="-1.536828">
        <ele>1119.979</ele>
        <time>2019-08-22T17:49:38Z</time>
      </trkpt>
      <trkpt lat="42.996148" lon="-1.53689">
        <ele>1120.314</ele>
        <time>2019-08-22T17:49:41Z</time>
      </trkpt>
      <trkpt lat="42.996138" lon="-1.53697">
        <ele>1121.359</ele>
        <time>2019-08-22T17:49:44Z</time>
      </trkpt>
      <trkpt lat="42.99612" lon="-1.537037">
        <ele>1122.372</ele>
        <time>2019-08-22T17:49:47Z</time>
      </trkpt>
      <trkpt lat="42.996104" lon="-1.537108">
        <ele>1123.479</ele>
        <time>2019-08-22T17:49:50Z</time>
      </trkpt>
      <trkpt lat="42.99609" lon="-1.537177">
        <ele>1123.213</ele>
        <time>2019-08-22T17:49:54Z</time>
      </trkpt>
      <trkpt lat="42.996068" lon="-1.537239">
        <ele>1124.566</ele>
        <time>2019-08-22T17:49:59Z</time>
      </trkpt>
      <trkpt lat="42.996048" lon="-1.537175">
        <ele>1125.485</ele>
        <time>2019-08-22T17:50:07Z</time>
      </trkpt>
      <trkpt lat="42.99603" lon="-1.537112">
        <ele>1126.406</ele>
        <time>2019-08-22T17:50:10Z</time>
      </trkpt>
      <trkpt lat="42.995997" lon="-1.537069">
        <ele>1126.926</ele>
        <time>2019-08-22T17:50:13Z</time>
      </trkpt>
      <trkpt lat="42.995945" lon="-1.537024">
        <ele>1128.277</ele>
        <time>2019-08-22T17:50:16Z</time>
      </trkpt>
      <trkpt lat="42.995903" lon="-1.536984">
        <ele>1129.055</ele>
        <time>2019-08-22T17:50:20Z</time>
      </trkpt>
      <trkpt lat="42.995877" lon="-1.536926">
        <ele>1127.922</ele>
        <time>2019-08-22T17:50:26Z</time>
      </trkpt>
      <trkpt lat="42.995839" lon="-1.536879">
        <ele>1123.901</ele>
        <time>2019-08-22T17:50:32Z</time>
      </trkpt>
      <trkpt lat="42.995796" lon="-1.536838">
        <ele>1119.930</ele>
        <time>2019-08-22T17:50:35Z</time>
      </trkpt>
      <trkpt lat="42.995751" lon="-1.536815">
        <ele>1115.961</ele>
        <time>2019-08-22T17:50:39Z</time>
      </trkpt>
      <trkpt lat="42.995702" lon="-1.536792">
        <ele>1111.985</ele>
        <time>2019-08-22T17:50:44Z</time>
      </trkpt>
      <trkpt lat="42.995651" lon="-1.536755">
        <ele>1109.516</ele>
        <time>2019-08-22T17:50:48Z</time>
      </trkpt>
      <trkpt lat="42.995595" lon="-1.536722">
        <ele>1109.222</ele>
        <time>2019-08-22T17:50:51Z</time>
      </trkpt>
      <trkpt lat="42.995544" lon="-1.536694">
        <ele>1110.811</ele>
        <time>2019-08-22T17:50:54Z</time>
      </trkpt>
      <trkpt lat="42.995494" lon="-1.536677">
        <ele>1113.977</ele>
        <time>2019-08-22T17:50:57Z</time>
      </trkpt>
      <trkpt lat="42.995442" lon="-1.536661">
        <ele>1117.451</ele>
        <time>2019-08-22T17:51:00Z</time>
      </trkpt>
      <trkpt lat="42.995383" lon="-1.536637">
        <ele>1119.509</ele>
        <time>2019-08-22T17:51:03Z</time>
      </trkpt>
      <trkpt lat="42.99532" lon="-1.536613">
        <ele>1122.145</ele>
        <time>2019-08-22T17:51:06Z</time>
      </trkpt>
      <trkpt lat="42.995256" lon="-1.536583">
        <ele>1124.561</ele>
        <time>2019-08-22T17:51:09Z</time>
      </trkpt>
      <trkpt lat="42.995207" lon="-1.536562">
        <ele>1124.997</ele>
        <time>2019-08-22T17:51:12Z</time>
      </trkpt>
      <trkpt lat="42.995155" lon="-1.536532">
        <ele>1125.332</ele>
        <time>2019-08-22T17:51:15Z</time>
      </trkpt>
      <trkpt lat="42.995111" lon="-1.536506">
        <ele>1125.886</ele>
        <time>2019-08-22T17:51:18Z</time>
      </trkpt>
      <trkpt lat="42.995065" lon="-1.536488">
        <ele>1126.934</ele>
        <time>2019-08-22T17:51:21Z</time>
      </trkpt>
      <trkpt lat="42.995013" lon="-1.536502">
        <ele>1130.252</ele>
        <time>2019-08-22T17:51:25Z</time>
      </trkpt>
      <trkpt lat="42.994999" lon="-1.536572">
        <ele>1133.830</ele>
        <time>2019-08-22T17:51:32Z</time>
      </trkpt>
      <trkpt lat="42.994991" lon="-1.536638">
        <ele>1136.947</ele>
        <time>2019-08-22T17:51:37Z</time>
      </trkpt>
      <trkpt lat="42.994986" lon="-1.536702">
        <ele>1138.937</ele>
        <time>2019-08-22T17:51:41Z</time>
      </trkpt>
      <trkpt lat="42.994985" lon="-1.536767">
        <ele>1141.644</ele>
        <time>2019-08-22T17:51:48Z</time>
      </trkpt>
      <trkpt lat="42.994968" lon="-1.53684">
        <ele>1144.126</ele>
        <time>2019-08-22T17:51:53Z</time>
      </trkpt>
      <trkpt lat="42.994969" lon="-1.536906">
        <ele>1143.856</ele>
        <time>2019-08-22T17:51:58Z</time>
      </trkpt>
      <trkpt lat="42.99498" lon="-1.536973">
        <ele>1143.136</ele>
        <time>2019-08-22T17:52:02Z</time>
      </trkpt>
      <trkpt lat="42.994986" lon="-1.537044">
        <ele>1143.901</ele>
        <time>2019-08-22T17:52:07Z</time>
      </trkpt>
      <trkpt lat="42.994992" lon="-1.537107">
        <ele>1143.127</ele>
        <time>2019-08-22T17:52:10Z</time>
      </trkpt>
      <trkpt lat="42.995006" lon="-1.537167">
        <ele>1143.119</ele>
        <time>2019-08-22T17:52:14Z</time>
      </trkpt>
      <trkpt lat="42.995005" lon="-1.537238">
        <ele>1143.028</ele>
        <time>2019-08-22T17:52:18Z</time>
      </trkpt>
      <trkpt lat="42.995003" lon="-1.537309">
        <ele>1143.780</ele>
        <time>2019-08-22T17:52:22Z</time>
      </trkpt>
      <trkpt lat="42.995014" lon="-1.537379">
        <ele>1143.190</ele>
        <time>2019-08-22T17:52:27Z</time>
      </trkpt>
      <trkpt lat="42.995005" lon="-1.537452">
        <ele>1145.115</ele>
        <time>2019-08-22T17:52:32Z</time>
      </trkpt>
      <trkpt lat="42.994978" lon="-1.537518">
        <ele>1147.625</ele>
        <time>2019-08-22T17:52:37Z</time>
      </trkpt>
      <trkpt lat="42.994971" lon="-1.537586">
        <ele>1149.481</ele>
        <time>2019-08-22T17:52:41Z</time>
      </trkpt>
      <trkpt lat="42.994957" lon="-1.537653">
        <ele>1151.480</ele>
        <time>2019-08-22T17:52:45Z</time>
      </trkpt>
      <trkpt lat="42.994932" lon="-1.537711">
        <ele>1153.552</ele>
        <time>2019-08-22T17:52:49Z</time>
      </trkpt>
      <trkpt lat="42.994922" lon="-1.537776">
        <ele>1155.754</ele>
        <time>2019-08-22T17:52:53Z</time>
      </trkpt>
      <trkpt lat="42.9949" lon="-1.537835">
        <ele>1156.858</ele>
        <time>2019-08-22T17:52:57Z</time>
      </trkpt>
      <trkpt lat="42.994873" lon="-1.537896">
        <ele>1158.276</ele>
        <time>2019-08-22T17:53:01Z</time>
      </trkpt>
      <trkpt lat="42.994838" lon="-1.537944">
        <ele>1160.894</ele>
        <time>2019-08-22T17:53:04Z</time>
      </trkpt>
      <trkpt lat="42.994794" lon="-1.537986">
        <ele>1161.857</ele>
        <time>2019-08-22T17:53:08Z</time>
      </trkpt>
      <trkpt lat="42.99477" lon="-1.538056">
        <ele>1162.686</ele>
        <time>2019-08-22T17:53:12Z</time>
      </trkpt>
      <trkpt lat="42.994743" lon="-1.538111">
        <ele>1163.476</ele>
        <time>2019-08-22T17:53:15Z</time>
      </trkpt>
      <trkpt lat="42.994731" lon="-1.538192">
        <ele>1163.740</ele>
        <time>2019-08-22T17:53:19Z</time>
      </trkpt>
      <trkpt lat="42.994717" lon="-1.538262">
        <ele>1164.607</ele>
        <time>2019-08-22T17:53:22Z</time>
      </trkpt>
      <trkpt lat="42.994687" lon="-1.538325">
        <ele>1165.369</ele>
        <time>2019-08-22T17:53:26Z</time>
      </trkpt>
      <trkpt lat="42.994678" lon="-1.538398">
        <ele>1164.645</ele>
        <time>2019-08-22T17:53:30Z</time>
      </trkpt>
      <trkpt lat="42.994667" lon="-1.538458">
        <ele>1163.864</ele>
        <time>2019-08-22T17:53:34Z</time>
      </trkpt>
      <trkpt lat="42.994639" lon="-1.538514">
        <ele>1163.485</ele>
        <time>2019-08-22T17:53:38Z</time>
      </trkpt>
      <trkpt lat="42.994605" lon="-1.538557">
        <ele>1163.213</ele>
        <time>2019-08-22T17:53:42Z</time>
      </trkpt>
      <trkpt lat="42.994579" lon="-1.538614">
        <ele>1163.150</ele>
        <time>2019-08-22T17:53:45Z</time>
      </trkpt>
      <trkpt lat="42.994538" lon="-1.538669">
        <ele>1162.837</ele>
        <time>2019-08-22T17:53:49Z</time>
      </trkpt>
      <trkpt lat="42.994512" lon="-1.53874">
        <ele>1161.842</ele>
        <time>2019-08-22T17:53:53Z</time>
      </trkpt>
      <trkpt lat="42.994485" lon="-1.538806">
        <ele>1160.528</ele>
        <time>2019-08-22T17:53:57Z</time>
      </trkpt>
      <trkpt lat="42.994474" lon="-1.538874">
        <ele>1159.800</ele>
        <time>2019-08-22T17:54:01Z</time>
      </trkpt>
      <trkpt lat="42.994459" lon="-1.538938">
        <ele>1159.416</ele>
        <time>2019-08-22T17:54:05Z</time>
      </trkpt>
      <trkpt lat="42.994447" lon="-1.539002">
        <ele>1158.873</ele>
        <time>2019-08-22T17:54:09Z</time>
      </trkpt>
      <trkpt lat="42.994429" lon="-1.539059">
        <ele>1158.281</ele>
        <time>2019-08-22T17:54:13Z</time>
      </trkpt>
      <trkpt lat="42.994414" lon="-1.539132">
        <ele>1159.284</ele>
        <time>2019-08-22T17:54:18Z</time>
      </trkpt>
      <trkpt lat="42.994406" lon="-1.539202">
        <ele>1160.675</ele>
        <time>2019-08-22T17:54:22Z</time>
      </trkpt>
      <trkpt lat="42.994378" lon="-1.539273">
        <ele>1161.843</ele>
        <time>2019-08-22T17:54:25Z</time>
      </trkpt>
      <trkpt lat="42.994351" lon="-1.539341">
        <ele>1163.211</ele>
        <time>2019-08-22T17:54:28Z</time>
      </trkpt>
      <trkpt lat="42.99434" lon="-1.539402">
        <ele>1163.278</ele>
        <time>2019-08-22T17:54:32Z</time>
      </trkpt>
      <trkpt lat="42.99433" lon="-1.539475">
        <ele>1163.299</ele>
        <time>2019-08-22T17:54:36Z</time>
      </trkpt>
      <trkpt lat="42.99433" lon="-1.539546">
        <ele>1166.334</ele>
        <time>2019-08-22T17:54:41Z</time>
      </trkpt>
      <trkpt lat="42.994318" lon="-1.539623">
        <ele>1167.821</ele>
        <time>2019-08-22T17:54:46Z</time>
      </trkpt>
      <trkpt lat="42.994305" lon="-1.53969">
        <ele>1169.043</ele>
        <time>2019-08-22T17:54:51Z</time>
      </trkpt>
      <trkpt lat="42.994296" lon="-1.539757">
        <ele>1169.826</ele>
        <time>2019-08-22T17:54:55Z</time>
      </trkpt>
      <trkpt lat="42.994292" lon="-1.539823">
        <ele>1170.113</ele>
        <time>2019-08-22T17:54:59Z</time>
      </trkpt>
      <trkpt lat="42.994297" lon="-1.539887">
        <ele>1170.452</ele>
        <time>2019-08-22T17:55:02Z</time>
      </trkpt>
      <trkpt lat="42.994288" lon="-1.539957">
        <ele>1170.491</ele>
        <time>2019-08-22T17:55:07Z</time>
      </trkpt>
      <trkpt lat="42.994296" lon="-1.540021">
        <ele>1171.763</ele>
        <time>2019-08-22T17:55:11Z</time>
      </trkpt>
      <trkpt lat="42.994297" lon="-1.540086">
        <ele>1173.663</ele>
        <time>2019-08-22T17:55:15Z</time>
      </trkpt>
      <trkpt lat="42.994286" lon="-1.54016">
        <ele>1174.828</ele>
        <time>2019-08-22T17:55:20Z</time>
      </trkpt>
      <trkpt lat="42.994282" lon="-1.540227">
        <ele>1175.748</ele>
        <time>2019-08-22T17:55:24Z</time>
      </trkpt>
      <trkpt lat="42.994263" lon="-1.540292">
        <ele>1175.042</ele>
        <time>2019-08-22T17:55:28Z</time>
      </trkpt>
      <trkpt lat="42.994234" lon="-1.540355">
        <ele>1175.544</ele>
        <time>2019-08-22T17:55:33Z</time>
      </trkpt>
      <trkpt lat="42.994231" lon="-1.540429">
        <ele>1176.737</ele>
        <time>2019-08-22T17:55:38Z</time>
      </trkpt>
      <trkpt lat="42.994206" lon="-1.540492">
        <ele>1176.963</ele>
        <time>2019-08-22T17:55:43Z</time>
      </trkpt>
      <trkpt lat="42.994197" lon="-1.540554">
        <ele>1176.872</ele>
        <time>2019-08-22T17:55:48Z</time>
      </trkpt>
      <trkpt lat="42.994179" lon="-1.540614">
        <ele>1177.635</ele>
        <time>2019-08-22T17:55:53Z</time>
      </trkpt>
      <trkpt lat="42.994181" lon="-1.540678">
        <ele>1178.561</ele>
        <time>2019-08-22T17:55:57Z</time>
      </trkpt>
      <trkpt lat="42.994166" lon="-1.540748">
        <ele>1180.076</ele>
        <time>2019-08-22T17:56:02Z</time>
      </trkpt>
      <trkpt lat="42.994168" lon="-1.540815">
        <ele>1181.175</ele>
        <time>2019-08-22T17:56:08Z</time>
      </trkpt>
      <trkpt lat="42.994165" lon="-1.540887">
        <ele>1180.971</ele>
        <time>2019-08-22T17:56:13Z</time>
      </trkpt>
      <trkpt lat="42.994155" lon="-1.540961">
        <ele>1181.644</ele>
        <time>2019-08-22T17:56:17Z</time>
      </trkpt>
      <trkpt lat="42.994148" lon="-1.541039">
        <ele>1182.237</ele>
        <time>2019-08-22T17:56:21Z</time>
      </trkpt>
      <trkpt lat="42.994156" lon="-1.54112">
        <ele>1182.210</ele>
        <time>2019-08-22T17:56:25Z</time>
      </trkpt>
      <trkpt lat="42.994157" lon="-1.541187">
        <ele>1182.034</ele>
        <time>2019-08-22T17:56:28Z</time>
      </trkpt>
      <trkpt lat="42.994174" lon="-1.541263">
        <ele>1182.425</ele>
        <time>2019-08-22T17:56:32Z</time>
      </trkpt>
      <trkpt lat="42.994179" lon="-1.541325">
        <ele>1182.332</ele>
        <time>2019-08-22T17:56:36Z</time>
      </trkpt>
      <trkpt lat="42.994196" lon="-1.54139">
        <ele>1181.769</ele>
        <time>2019-08-22T17:56:39Z</time>
      </trkpt>
      <trkpt lat="42.994207" lon="-1.541459">
        <ele>1180.794</ele>
        <time>2019-08-22T17:56:42Z</time>
      </trkpt>
      <trkpt lat="42.994229" lon="-1.54155">
        <ele>1179.949</ele>
        <time>2019-08-22T17:56:46Z</time>
      </trkpt>
      <trkpt lat="42.994248" lon="-1.541623">
        <ele>1180.146</ele>
        <time>2019-08-22T17:56:49Z</time>
      </trkpt>
      <trkpt lat="42.994273" lon="-1.541676">
        <ele>1180.532</ele>
        <time>2019-08-22T17:56:51Z</time>
      </trkpt>
      <trkpt lat="42.994297" lon="-1.541748">
        <ele>1181.615</ele>
        <time>2019-08-22T17:56:54Z</time>
      </trkpt>
      <trkpt lat="42.994303" lon="-1.541814">
        <ele>1177.661</ele>
        <time>2019-08-22T17:56:58Z</time>
      </trkpt>
      <trkpt lat="42.994326" lon="-1.541884">
        <ele>1173.609</ele>
        <time>2019-08-22T17:57:00Z</time>
      </trkpt>
      <trkpt lat="42.994327" lon="-1.541973">
        <ele>1169.670</ele>
        <time>2019-08-22T17:57:03Z</time>
      </trkpt>
      <trkpt lat="42.99434" lon="-1.542039">
        <ele>1165.633</ele>
        <time>2019-08-22T17:57:06Z</time>
      </trkpt>
      <trkpt lat="42.994332" lon="-1.542129">
        <ele>1161.600</ele>
        <time>2019-08-22T17:57:09Z</time>
      </trkpt>
      <trkpt lat="42.994325" lon="-1.542209">
        <ele>1159.599</ele>
        <time>2019-08-22T17:57:12Z</time>
      </trkpt>
      <trkpt lat="42.994313" lon="-1.542296">
        <ele>1158.253</ele>
        <time>2019-08-22T17:57:15Z</time>
      </trkpt>
      <trkpt lat="42.994304" lon="-1.542391">
        <ele>1160.100</ele>
        <time>2019-08-22T17:57:18Z</time>
      </trkpt>
      <trkpt lat="42.994315" lon="-1.542481">
        <ele>1161.974</ele>
        <time>2019-08-22T17:57:21Z</time>
      </trkpt>
      <trkpt lat="42.994335" lon="-1.542563">
        <ele>1164.341</ele>
        <time>2019-08-22T17:57:24Z</time>
      </trkpt>
      <trkpt lat="42.994356" lon="-1.542638">
        <ele>1167.260</ele>
        <time>2019-08-22T17:57:27Z</time>
      </trkpt>
      <trkpt lat="42.994367" lon="-1.542711">
        <ele>1169.431</ele>
        <time>2019-08-22T17:57:30Z</time>
      </trkpt>
      <trkpt lat="42.994381" lon="-1.542787">
        <ele>1173.470</ele>
        <time>2019-08-22T17:57:33Z</time>
      </trkpt>
      <trkpt lat="42.994398" lon="-1.542854">
        <ele>1176.910</ele>
        <time>2019-08-22T17:57:36Z</time>
      </trkpt>
      <trkpt lat="42.994407" lon="-1.542927">
        <ele>1180.002</ele>
        <time>2019-08-22T17:57:39Z</time>
      </trkpt>
      <trkpt lat="42.994405" lon="-1.542991">
        <ele>1181.749</ele>
        <time>2019-08-22T17:57:42Z</time>
      </trkpt>
      <trkpt lat="42.994402" lon="-1.543062">
        <ele>1182.115</ele>
        <time>2019-08-22T17:57:46Z</time>
      </trkpt>
      <trkpt lat="42.994407" lon="-1.543131">
        <ele>1183.292</ele>
        <time>2019-08-22T17:57:50Z</time>
      </trkpt>
      <trkpt lat="42.994408" lon="-1.543211">
        <ele>1184.422</ele>
        <time>2019-08-22T17:57:54Z</time>
      </trkpt>
      <trkpt lat="42.99441" lon="-1.54328">
        <ele>1185.527</ele>
        <time>2019-08-22T17:57:57Z</time>
      </trkpt>
      <trkpt lat="42.994413" lon="-1.543344">
        <ele>1186.169</ele>
        <time>2019-08-22T17:58:00Z</time>
      </trkpt>
      <trkpt lat="42.994417" lon="-1.543413">
        <ele>1184.961</ele>
        <time>2019-08-22T17:58:03Z</time>
      </trkpt>
      <trkpt lat="42.994424" lon="-1.543478">
        <ele>1184.548</ele>
        <time>2019-08-22T17:58:06Z</time>
      </trkpt>
      <trkpt lat="42.994441" lon="-1.543535">
        <ele>1181.806</ele>
        <time>2019-08-22T17:58:09Z</time>
      </trkpt>
      <trkpt lat="42.994466" lon="-1.543602">
        <ele>1180.907</ele>
        <time>2019-08-22T17:58:12Z</time>
      </trkpt>
      <trkpt lat="42.994481" lon="-1.543671">
        <ele>1180.268</ele>
        <time>2019-08-22T17:58:16Z</time>
      </trkpt>
      <trkpt lat="42.99449" lon="-1.543748">
        <ele>1181.272</ele>
        <time>2019-08-22T17:58:19Z</time>
      </trkpt>
      <trkpt lat="42.994492" lon="-1.543832">
        <ele>1183.062</ele>
        <time>2019-08-22T17:58:22Z</time>
      </trkpt>
      <trkpt lat="42.994502" lon="-1.543909">
        <ele>1183.993</ele>
        <time>2019-08-22T17:58:25Z</time>
      </trkpt>
      <trkpt lat="42.994502" lon="-1.543986">
        <ele>1183.887</ele>
        <time>2019-08-22T17:58:28Z</time>
      </trkpt>
      <trkpt lat="42.994497" lon="-1.544063">
        <ele>1183.841</ele>
        <time>2019-08-22T17:58:31Z</time>
      </trkpt>
      <trkpt lat="42.994503" lon="-1.544145">
        <ele>1185.006</ele>
        <time>2019-08-22T17:58:34Z</time>
      </trkpt>
      <trkpt lat="42.994503" lon="-1.544219">
        <ele>1186.242</ele>
        <time>2019-08-22T17:58:37Z</time>
      </trkpt>
      <trkpt lat="42.994515" lon="-1.544294">
        <ele>1188.036</ele>
        <time>2019-08-22T17:58:40Z</time>
      </trkpt>
      <trkpt lat="42.994529" lon="-1.544366">
        <ele>1189.669</ele>
        <time>2019-08-22T17:58:43Z</time>
      </trkpt>
      <trkpt lat="42.994537" lon="-1.544431">
        <ele>1190.675</ele>
        <time>2019-08-22T17:58:46Z</time>
      </trkpt>
      <trkpt lat="42.994549" lon="-1.54451">
        <ele>1191.895</ele>
        <time>2019-08-22T17:58:50Z</time>
      </trkpt>
      <trkpt lat="42.994556" lon="-1.544589">
        <ele>1193.476</ele>
        <time>2019-08-22T17:58:54Z</time>
      </trkpt>
      <trkpt lat="42.994583" lon="-1.544651">
        <ele>1194.020</ele>
        <time>2019-08-22T17:58:57Z</time>
      </trkpt>
      <trkpt lat="42.994589" lon="-1.544735">
        <ele>1193.994</ele>
        <time>2019-08-22T17:59:00Z</time>
      </trkpt>
      <trkpt lat="42.994599" lon="-1.544797">
        <ele>1194.566</ele>
        <time>2019-08-22T17:59:02Z</time>
      </trkpt>
      <trkpt lat="42.994607" lon="-1.544889">
        <ele>1196.472</ele>
        <time>2019-08-22T17:59:04Z</time>
      </trkpt>
      <trkpt lat="42.994626" lon="-1.544986">
        <ele>1197.750</ele>
        <time>2019-08-22T17:59:06Z</time>
      </trkpt>
      <trkpt lat="42.994634" lon="-1.545079">
        <ele>1198.729</ele>
        <time>2019-08-22T17:59:08Z</time>
      </trkpt>
      <trkpt lat="42.994644" lon="-1.545162">
        <ele>1199.734</ele>
        <time>2019-08-22T17:59:10Z</time>
      </trkpt>
      <trkpt lat="42.994651" lon="-1.545249">
        <ele>1200.568</ele>
        <time>2019-08-22T17:59:12Z</time>
      </trkpt>
      <trkpt lat="42.994652" lon="-1.545316">
        <ele>1200.474</ele>
        <time>2019-08-22T17:59:14Z</time>
      </trkpt>
      <trkpt lat="42.994647" lon="-1.545383">
        <ele>1200.170</ele>
        <time>2019-08-22T17:59:16Z</time>
      </trkpt>
      <trkpt lat="42.994645" lon="-1.545447">
        <ele>1199.940</ele>
        <time>2019-08-22T17:59:18Z</time>
      </trkpt>
      <trkpt lat="42.994641" lon="-1.545511">
        <ele>1199.094</ele>
        <time>2019-08-22T17:59:20Z</time>
      </trkpt>
      <trkpt lat="42.994641" lon="-1.545577">
        <ele>1198.950</ele>
        <time>2019-08-22T17:59:22Z</time>
      </trkpt>
      <trkpt lat="42.994631" lon="-1.54564">
        <ele>1198.707</ele>
        <time>2019-08-22T17:59:24Z</time>
      </trkpt>
      <trkpt lat="42.994639" lon="-1.54572">
        <ele>1197.064</ele>
        <time>2019-08-22T17:59:27Z</time>
      </trkpt>
      <trkpt lat="42.994652" lon="-1.545788">
        <ele>1195.808</ele>
        <time>2019-08-22T17:59:29Z</time>
      </trkpt>
      <trkpt lat="42.994657" lon="-1.545853">
        <ele>1195.017</ele>
        <time>2019-08-22T17:59:31Z</time>
      </trkpt>
      <trkpt lat="42.994652" lon="-1.545945">
        <ele>1193.155</ele>
        <time>2019-08-22T17:59:34Z</time>
      </trkpt>
      <trkpt lat="42.994641" lon="-1.546024">
        <ele>1191.274</ele>
        <time>2019-08-22T17:59:36Z</time>
      </trkpt>
      <trkpt lat="42.994631" lon="-1.546115">
        <ele>1189.486</ele>
        <time>2019-08-22T17:59:38Z</time>
      </trkpt>
      <trkpt lat="42.994619" lon="-1.546211">
        <ele>1188.361</ele>
        <time>2019-08-22T17:59:40Z</time>
      </trkpt>
      <trkpt lat="42.994619" lon="-1.546369">
        <ele>1187.419</ele>
        <time>2019-08-22T17:59:41Z</time>
      </trkpt>
      <trkpt lat="42.994612" lon="-1.546437">
        <ele>1187.142</ele>
        <time>2019-08-22T17:59:42Z</time>
      </trkpt>
      <trkpt lat="42.994606" lon="-1.546505">
        <ele>1187.026</ele>
        <time>2019-08-22T17:59:43Z</time>
      </trkpt>
      <trkpt lat="42.99459" lon="-1.546627">
        <ele>1187.178</ele>
        <time>2019-08-22T17:59:45Z</time>
      </trkpt>
      <trkpt lat="42.994572" lon="-1.546701">
        <ele>1187.421</ele>
        <time>2019-08-22T17:59:47Z</time>
      </trkpt>
      <trkpt lat="42.994561" lon="-1.546778">
        <ele>1188.543</ele>
        <time>2019-08-22T17:59:49Z</time>
      </trkpt>
      <trkpt lat="42.994519" lon="-1.54695">
        <ele>1192.547</ele>
        <time>2019-08-22T18:00:01Z</time>
      </trkpt>
      <trkpt lat="42.994474" lon="-1.547058">
        <ele>1210.284</ele>
        <time>2019-08-22T18:01:22Z</time>
      </trkpt>
      <trkpt lat="42.994425" lon="-1.547102">
        <ele>1210.238</ele>
        <time>2019-08-22T18:01:27Z</time>
      </trkpt>
      <trkpt lat="42.994369" lon="-1.547128">
        <ele>1210.281</ele>
        <time>2019-08-22T18:01:31Z</time>
      </trkpt>
      <trkpt lat="42.994328" lon="-1.547168">
        <ele>1210.256</ele>
        <time>2019-08-22T18:01:35Z</time>
      </trkpt>
      <trkpt lat="42.99429" lon="-1.547211">
        <ele>1210.289</ele>
        <time>2019-08-22T18:01:39Z</time>
      </trkpt>
      <trkpt lat="42.994257" lon="-1.547265">
        <ele>1210.248</ele>
        <time>2019-08-22T18:01:44Z</time>
      </trkpt>
      <trkpt lat="42.994217" lon="-1.547322">
        <ele>1210.269</ele>
        <time>2019-08-22T18:01:49Z</time>
      </trkpt>
      <trkpt lat="42.994172" lon="-1.547341">
        <ele>1210.280</ele>
        <time>2019-08-22T18:01:53Z</time>
      </trkpt>
      <trkpt lat="42.994122" lon="-1.547356">
        <ele>1210.293</ele>
        <time>2019-08-22T18:01:57Z</time>
      </trkpt>
      <trkpt lat="42.994064" lon="-1.547365">
        <ele>1210.296</ele>
        <time>2019-08-22T18:02:01Z</time>
      </trkpt>
      <trkpt lat="42.994021" lon="-1.547345">
        <ele>1210.206</ele>
        <time>2019-08-22T18:02:04Z</time>
      </trkpt>
      <trkpt lat="42.993974" lon="-1.547334">
        <ele>1210.284</ele>
        <time>2019-08-22T18:02:08Z</time>
      </trkpt>
      <trkpt lat="42.993916" lon="-1.547307">
        <ele>1210.291</ele>
        <time>2019-08-22T18:02:12Z</time>
      </trkpt>
      <trkpt lat="42.993881" lon="-1.547255">
        <ele>1210.220</ele>
        <time>2019-08-22T18:02:16Z</time>
      </trkpt>
      <trkpt lat="42.993838" lon="-1.547206">
        <ele>1210.266</ele>
        <time>2019-08-22T18:02:20Z</time>
      </trkpt>
      <trkpt lat="42.993794" lon="-1.547182">
        <ele>1210.299</ele>
        <time>2019-08-22T18:02:25Z</time>
      </trkpt>
      <trkpt lat="42.993739" lon="-1.547158">
        <ele>1210.580</ele>
        <time>2019-08-22T18:02:29Z</time>
      </trkpt>
      <trkpt lat="42.993703" lon="-1.547119">
        <ele>1210.450</ele>
        <time>2019-08-22T18:02:34Z</time>
      </trkpt>
      <trkpt lat="42.993664" lon="-1.547067">
        <ele>1211.346</ele>
        <time>2019-08-22T18:02:39Z</time>
      </trkpt>
      <trkpt lat="42.993664" lon="-1.547004">
        <ele>1213.550</ele>
        <time>2019-08-22T18:02:43Z</time>
      </trkpt>
      <trkpt lat="42.993657" lon="-1.546936">
        <ele>1215.623</ele>
        <time>2019-08-22T18:02:48Z</time>
      </trkpt>
      <trkpt lat="42.993664" lon="-1.546869">
        <ele>1216.151</ele>
        <time>2019-08-22T18:02:52Z</time>
      </trkpt>
      <trkpt lat="42.99366" lon="-1.546796">
        <ele>1217.399</ele>
        <time>2019-08-22T18:02:56Z</time>
      </trkpt>
      <trkpt lat="42.993629" lon="-1.54673">
        <ele>1217.486</ele>
        <time>2019-08-22T18:03:01Z</time>
      </trkpt>
      <trkpt lat="42.993603" lon="-1.54667">
        <ele>1217.533</ele>
        <time>2019-08-22T18:03:06Z</time>
      </trkpt>
      <trkpt lat="42.993557" lon="-1.546632">
        <ele>1217.792</ele>
        <time>2019-08-22T18:03:11Z</time>
      </trkpt>
      <trkpt lat="42.99351" lon="-1.546624">
        <ele>1218.381</ele>
        <time>2019-08-22T18:03:15Z</time>
      </trkpt>
      <trkpt lat="42.993456" lon="-1.546619">
        <ele>1219.179</ele>
        <time>2019-08-22T18:03:19Z</time>
      </trkpt>
      <trkpt lat="42.993402" lon="-1.5466">
        <ele>1219.382</ele>
        <time>2019-08-22T18:03:23Z</time>
      </trkpt>
      <trkpt lat="42.993351" lon="-1.546585">
        <ele>1218.775</ele>
        <time>2019-08-22T18:03:27Z</time>
      </trkpt>
      <trkpt lat="42.993291" lon="-1.546564">
        <ele>1217.818</ele>
        <time>2019-08-22T18:03:32Z</time>
      </trkpt>
      <trkpt lat="42.993234" lon="-1.546541">
        <ele>1217.704</ele>
        <time>2019-08-22T18:03:36Z</time>
      </trkpt>
      <trkpt lat="42.993185" lon="-1.546545">
        <ele>1218.656</ele>
        <time>2019-08-22T18:03:41Z</time>
      </trkpt>
      <trkpt lat="42.993134" lon="-1.546553">
        <ele>1218.635</ele>
        <time>2019-08-22T18:03:46Z</time>
      </trkpt>
      <trkpt lat="42.993088" lon="-1.54654">
        <ele>1216.230</ele>
        <time>2019-08-22T18:03:50Z</time>
      </trkpt>
      <trkpt lat="42.993032" lon="-1.54653">
        <ele>1216.323</ele>
        <time>2019-08-22T18:03:55Z</time>
      </trkpt>
      <trkpt lat="42.992982" lon="-1.546542">
        <ele>1216.835</ele>
        <time>2019-08-22T18:03:58Z</time>
      </trkpt>
      <trkpt lat="42.992931" lon="-1.546541">
        <ele>1217.833</ele>
        <time>2019-08-22T18:04:01Z</time>
      </trkpt>
      <trkpt lat="42.992886" lon="-1.546544">
        <ele>1217.802</ele>
        <time>2019-08-22T18:04:04Z</time>
      </trkpt>
      <trkpt lat="42.992839" lon="-1.546534">
        <ele>1218.271</ele>
        <time>2019-08-22T18:04:07Z</time>
      </trkpt>
      <trkpt lat="42.992783" lon="-1.546505">
        <ele>1219.171</ele>
        <time>2019-08-22T18:04:14Z</time>
      </trkpt>
      <trkpt lat="42.992726" lon="-1.546496">
        <ele>1220.771</ele>
        <time>2019-08-22T18:04:24Z</time>
      </trkpt>
      <trkpt lat="42.992673" lon="-1.54648">
        <ele>1222.637</ele>
        <time>2019-08-22T18:04:28Z</time>
      </trkpt>
      <trkpt lat="42.992622" lon="-1.546449">
        <ele>1223.556</ele>
        <time>2019-08-22T18:04:32Z</time>
      </trkpt>
      <trkpt lat="42.992573" lon="-1.546433">
        <ele>1224.171</ele>
        <time>2019-08-22T18:04:36Z</time>
      </trkpt>
      <trkpt lat="42.992521" lon="-1.546432">
        <ele>1224.915</ele>
        <time>2019-08-22T18:04:41Z</time>
      </trkpt>
      <trkpt lat="42.992474" lon="-1.546438">
        <ele>1225.463</ele>
        <time>2019-08-22T18:04:46Z</time>
      </trkpt>
      <trkpt lat="42.992427" lon="-1.546437">
        <ele>1226.325</ele>
        <time>2019-08-22T18:04:49Z</time>
      </trkpt>
      <trkpt lat="42.992381" lon="-1.546439">
        <ele>1227.155</ele>
        <time>2019-08-22T18:04:52Z</time>
      </trkpt>
      <trkpt lat="42.992328" lon="-1.546446">
        <ele>1227.793</ele>
        <time>2019-08-22T18:04:55Z</time>
      </trkpt>
      <trkpt lat="42.992277" lon="-1.546441">
        <ele>1227.749</ele>
        <time>2019-08-22T18:04:59Z</time>
      </trkpt>
      <trkpt lat="42.992233" lon="-1.546422">
        <ele>1225.823</ele>
        <time>2019-08-22T18:05:03Z</time>
      </trkpt>
      <trkpt lat="42.992194" lon="-1.546387">
        <ele>1225.617</ele>
        <time>2019-08-22T18:07:18Z</time>
      </trkpt>
      <trkpt lat="42.992186" lon="-1.546324">
        <ele>1228.334</ele>
        <time>2019-08-22T18:07:27Z</time>
      </trkpt>
      <trkpt lat="42.992209" lon="-1.546264">
        <ele>1231.102</ele>
        <time>2019-08-22T18:07:36Z</time>
      </trkpt>
      <trkpt lat="42.992205" lon="-1.546197">
        <ele>1232.010</ele>
        <time>2019-08-22T18:07:42Z</time>
      </trkpt>
      <trkpt lat="42.992189" lon="-1.546135">
        <ele>1232.200</ele>
        <time>2019-08-22T18:07:46Z</time>
      </trkpt>
      <trkpt lat="42.992187" lon="-1.546062">
        <ele>1234.125</ele>
        <time>2019-08-22T18:07:50Z</time>
      </trkpt>
      <trkpt lat="42.992198" lon="-1.546">
        <ele>1234.978</ele>
        <time>2019-08-22T18:07:54Z</time>
      </trkpt>
      <trkpt lat="42.992209" lon="-1.545934">
        <ele>1235.054</ele>
        <time>2019-08-22T18:07:58Z</time>
      </trkpt>
      <trkpt lat="42.99221" lon="-1.54586">
        <ele>1234.761</ele>
        <time>2019-08-22T18:08:02Z</time>
      </trkpt>
      <trkpt lat="42.992243" lon="-1.545813">
        <ele>1235.072</ele>
        <time>2019-08-22T18:08:06Z</time>
      </trkpt>
      <trkpt lat="42.992265" lon="-1.54574">
        <ele>1236.340</ele>
        <time>2019-08-22T18:08:11Z</time>
      </trkpt>
      <trkpt lat="42.992284" lon="-1.545684">
        <ele>1236.816</ele>
        <time>2019-08-22T18:08:16Z</time>
      </trkpt>
      <trkpt lat="42.992323" lon="-1.545641">
        <ele>1238.539</ele>
        <time>2019-08-22T18:08:21Z</time>
      </trkpt>
      <trkpt lat="42.992366" lon="-1.545607">
        <ele>1236.512</ele>
        <time>2019-08-22T18:08:30Z</time>
      </trkpt>
      <trkpt lat="42.992403" lon="-1.545562">
        <ele>1238.105</ele>
        <time>2019-08-22T18:08:40Z</time>
      </trkpt>
      <trkpt lat="42.992393" lon="-1.545501">
        <ele>1240.472</ele>
        <time>2019-08-22T18:08:50Z</time>
      </trkpt>
      <trkpt lat="42.992382" lon="-1.545409">
        <ele>1240.638</ele>
        <time>2019-08-22T18:09:01Z</time>
      </trkpt>
      <trkpt lat="42.99237" lon="-1.545344">
        <ele>1242.194</ele>
        <time>2019-08-22T18:09:08Z</time>
      </trkpt>
      <trkpt lat="42.992354" lon="-1.545261">
        <ele>1243.200</ele>
        <time>2019-08-22T18:09:16Z</time>
      </trkpt>
      <trkpt lat="42.992362" lon="-1.5452">
        <ele>1245.537</ele>
        <time>2019-08-22T18:09:23Z</time>
      </trkpt>
      <trkpt lat="42.99234" lon="-1.545129">
        <ele>1246.977</ele>
        <time>2019-08-22T18:09:30Z</time>
      </trkpt>
      <trkpt lat="42.992337" lon="-1.545051">
        <ele>1247.722</ele>
        <time>2019-08-22T18:09:35Z</time>
      </trkpt>
      <trkpt lat="42.992335" lon="-1.544982">
        <ele>1249.228</ele>
        <time>2019-08-22T18:09:43Z</time>
      </trkpt>
      <trkpt lat="42.992321" lon="-1.544905">
        <ele>1248.556</ele>
        <time>2019-08-22T18:09:55Z</time>
      </trkpt>
      <trkpt lat="42.992344" lon="-1.544845">
        <ele>1248.542</ele>
        <time>2019-08-22T18:10:01Z</time>
      </trkpt>
      <trkpt lat="42.992368" lon="-1.54479">
        <ele>1247.774</ele>
        <time>2019-08-22T18:10:08Z</time>
      </trkpt>
      <trkpt lat="42.992389" lon="-1.544726">
        <ele>1246.599</ele>
        <time>2019-08-22T18:10:14Z</time>
      </trkpt>
      <trkpt lat="42.992403" lon="-1.544657">
        <ele>1247.114</ele>
        <time>2019-08-22T18:10:32Z</time>
      </trkpt>
      <trkpt lat="42.992407" lon="-1.544592">
        <ele>1246.590</ele>
        <time>2019-08-22T18:10:36Z</time>
      </trkpt>
      <trkpt lat="42.992435" lon="-1.544519">
        <ele>1246.400</ele>
        <time>2019-08-22T18:10:39Z</time>
      </trkpt>
      <trkpt lat="42.992475" lon="-1.544472">
        <ele>1246.105</ele>
        <time>2019-08-22T18:10:45Z</time>
      </trkpt>
      <trkpt lat="42.992507" lon="-1.544409">
        <ele>1247.165</ele>
        <time>2019-08-22T18:10:51Z</time>
      </trkpt>
      <trkpt lat="42.992539" lon="-1.544351">
        <ele>1248.018</ele>
        <time>2019-08-22T18:11:00Z</time>
      </trkpt>
      <trkpt lat="42.992569" lon="-1.544287">
        <ele>1246.942</ele>
        <time>2019-08-22T18:11:13Z</time>
      </trkpt>
      <trkpt lat="42.992602" lon="-1.544243">
        <ele>1246.108</ele>
        <time>2019-08-22T18:11:18Z</time>
      </trkpt>
      <trkpt lat="42.992639" lon="-1.544204">
        <ele>1246.395</ele>
        <time>2019-08-22T18:11:23Z</time>
      </trkpt>
      <trkpt lat="42.992672" lon="-1.544149">
        <ele>1247.084</ele>
        <time>2019-08-22T18:11:27Z</time>
      </trkpt>
      <trkpt lat="42.992705" lon="-1.544106">
        <ele>1246.727</ele>
        <time>2019-08-22T18:11:46Z</time>
      </trkpt>
      <trkpt lat="42.992741" lon="-1.544067">
        <ele>1246.024</ele>
        <time>2019-08-22T18:12:09Z</time>
      </trkpt>
      <trkpt lat="42.99278" lon="-1.544018">
        <ele>1244.178</ele>
        <time>2019-08-22T18:12:16Z</time>
      </trkpt>
      <trkpt lat="42.992805" lon="-1.543961">
        <ele>1242.284</ele>
        <time>2019-08-22T18:12:21Z</time>
      </trkpt>
      <trkpt lat="42.992829" lon="-1.543908">
        <ele>1241.535</ele>
        <time>2019-08-22T18:12:27Z</time>
      </trkpt>
      <trkpt lat="42.992832" lon="-1.543822">
        <ele>1241.358</ele>
        <time>2019-08-22T18:12:38Z</time>
      </trkpt>
      <trkpt lat="42.992882" lon="-1.543808">
        <ele>1239.412</ele>
        <time>2019-08-22T18:12:50Z</time>
      </trkpt>
      <trkpt lat="42.992919" lon="-1.543771">
        <ele>1238.332</ele>
        <time>2019-08-22T18:13:02Z</time>
      </trkpt>
      <trkpt lat="42.992942" lon="-1.543715">
        <ele>1234.595</ele>
        <time>2019-08-22T18:13:12Z</time>
      </trkpt>
      <trkpt lat="42.992982" lon="-1.543667">
        <ele>1232.675</ele>
        <time>2019-08-22T18:13:20Z</time>
      </trkpt>
      <trkpt lat="42.993019" lon="-1.543619">
        <ele>1233.063</ele>
        <time>2019-08-22T18:13:26Z</time>
      </trkpt>
      <trkpt lat="42.993054" lon="-1.54358">
        <ele>1232.878</ele>
        <time>2019-08-22T18:13:30Z</time>
      </trkpt>
      <trkpt lat="42.993095" lon="-1.543536">
        <ele>1232.143</ele>
        <time>2019-08-22T18:13:36Z</time>
      </trkpt>
      <trkpt lat="42.993136" lon="-1.543508">
        <ele>1230.807</ele>
        <time>2019-08-22T18:13:42Z</time>
      </trkpt>
      <trkpt lat="42.9932" lon="-1.543493">
        <ele>1230.290</ele>
        <time>2019-08-22T18:14:16Z</time>
      </trkpt>
      <trkpt lat="42.993256" lon="-1.543478">
        <ele>1229.513</ele>
        <time>2019-08-22T18:14:23Z</time>
      </trkpt>
      <trkpt lat="42.993304" lon="-1.543442">
        <ele>1227.577</ele>
        <time>2019-08-22T18:14:28Z</time>
      </trkpt>
      <trkpt lat="42.993329" lon="-1.543379">
        <ele>1224.919</ele>
        <time>2019-08-22T18:14:34Z</time>
      </trkpt>
      <trkpt lat="42.99336" lon="-1.54332">
        <ele>1221.158</ele>
        <time>2019-08-22T18:14:40Z</time>
      </trkpt>
      <trkpt lat="42.993373" lon="-1.543251">
        <ele>1218.350</ele>
        <time>2019-08-22T18:14:46Z</time>
      </trkpt>
      <trkpt lat="42.993367" lon="-1.543186">
        <ele>1216.758</ele>
        <time>2019-08-22T18:14:50Z</time>
      </trkpt>
      <trkpt lat="42.993372" lon="-1.54312">
        <ele>1216.524</ele>
        <time>2019-08-22T18:14:54Z</time>
      </trkpt>
      <trkpt lat="42.993384" lon="-1.543051">
        <ele>1216.699</ele>
        <time>2019-08-22T18:14:58Z</time>
      </trkpt>
      <trkpt lat="42.993401" lon="-1.542993">
        <ele>1216.582</ele>
        <time>2019-08-22T18:15:02Z</time>
      </trkpt>
      <trkpt lat="42.993442" lon="-1.542935">
        <ele>1214.709</ele>
        <time>2019-08-22T18:15:06Z</time>
      </trkpt>
      <trkpt lat="42.993487" lon="-1.54288">
        <ele>1213.106</ele>
        <time>2019-08-22T18:15:09Z</time>
      </trkpt>
      <trkpt lat="42.993512" lon="-1.542821">
        <ele>1211.611</ele>
        <time>2019-08-22T18:15:12Z</time>
      </trkpt>
      <trkpt lat="42.993508" lon="-1.542744">
        <ele>1209.205</ele>
        <time>2019-08-22T18:15:15Z</time>
      </trkpt>
      <trkpt lat="42.993493" lon="-1.542681">
        <ele>1207.732</ele>
        <time>2019-08-22T18:15:18Z</time>
      </trkpt>
      <trkpt lat="42.993499" lon="-1.5426">
        <ele>1207.053</ele>
        <time>2019-08-22T18:15:22Z</time>
      </trkpt>
      <trkpt lat="42.99351" lon="-1.54253">
        <ele>1207.141</ele>
        <time>2019-08-22T18:15:26Z</time>
      </trkpt>
      <trkpt lat="42.993502" lon="-1.542464">
        <ele>1206.158</ele>
        <time>2019-08-22T18:15:29Z</time>
      </trkpt>
      <trkpt lat="42.993515" lon="-1.542395">
        <ele>1204.600</ele>
        <time>2019-08-22T18:15:32Z</time>
      </trkpt>
      <trkpt lat="42.993529" lon="-1.542314">
        <ele>1202.780</ele>
        <time>2019-08-22T18:15:35Z</time>
      </trkpt>
      <trkpt lat="42.993549" lon="-1.542256">
        <ele>1199.972</ele>
        <time>2019-08-22T18:15:37Z</time>
      </trkpt>
      <trkpt lat="42.993586" lon="-1.54218">
        <ele>1195.982</ele>
        <time>2019-08-22T18:15:40Z</time>
      </trkpt>
      <trkpt lat="42.993622" lon="-1.542126">
        <ele>1192.081</ele>
        <time>2019-08-22T18:15:42Z</time>
      </trkpt>
      <trkpt lat="42.993668" lon="-1.542065">
        <ele>1188.872</ele>
        <time>2019-08-22T18:15:44Z</time>
      </trkpt>
      <trkpt lat="42.993717" lon="-1.541995">
        <ele>1188.623</ele>
        <time>2019-08-22T18:15:46Z</time>
      </trkpt>
      <trkpt lat="42.993741" lon="-1.541931">
        <ele>1188.955</ele>
        <time>2019-08-22T18:15:48Z</time>
      </trkpt>
      <trkpt lat="42.993759" lon="-1.541871">
        <ele>1189.426</ele>
        <time>2019-08-22T18:15:50Z</time>
      </trkpt>
      <trkpt lat="42.993779" lon="-1.541812">
        <ele>1190.271</ele>
        <time>2019-08-22T18:15:52Z</time>
      </trkpt>
      <trkpt lat="42.993803" lon="-1.541754">
        <ele>1190.385</ele>
        <time>2019-08-22T18:15:53Z</time>
      </trkpt>
      <trkpt lat="42.993855" lon="-1.541649">
        <ele>1191.158</ele>
        <time>2019-08-22T18:15:55Z</time>
      </trkpt>
      <trkpt lat="42.993903" lon="-1.541544">
        <ele>1191.791</ele>
        <time>2019-08-22T18:15:57Z</time>
      </trkpt>
      <trkpt lat="42.993937" lon="-1.541451">
        <ele>1191.586</ele>
        <time>2019-08-22T18:15:59Z</time>
      </trkpt>
      <trkpt lat="42.993968" lon="-1.541343">
        <ele>1191.250</ele>
        <time>2019-08-22T18:16:01Z</time>
      </trkpt>
      <trkpt lat="42.99401" lon="-1.541251">
        <ele>1190.729</ele>
        <time>2019-08-22T18:16:03Z</time>
      </trkpt>
      <trkpt lat="42.994059" lon="-1.54117">
        <ele>1189.480</ele>
        <time>2019-08-22T18:16:05Z</time>
      </trkpt>
      <trkpt lat="42.994108" lon="-1.541107">
        <ele>1187.825</ele>
        <time>2019-08-22T18:16:07Z</time>
      </trkpt>
      <trkpt lat="42.994163" lon="-1.541043">
        <ele>1186.704</ele>
        <time>2019-08-22T18:16:09Z</time>
      </trkpt>
      <trkpt lat="42.994213" lon="-1.540964">
        <ele>1185.939</ele>
        <time>2019-08-22T18:16:11Z</time>
      </trkpt>
      <trkpt lat="42.994257" lon="-1.540891">
        <ele>1185.663</ele>
        <time>2019-08-22T18:16:13Z</time>
      </trkpt>
      <trkpt lat="42.994306" lon="-1.540806">
        <ele>1185.395</ele>
        <time>2019-08-22T18:16:15Z</time>
      </trkpt>
      <trkpt lat="42.994334" lon="-1.540752">
        <ele>1185.000</ele>
        <time>2019-08-22T18:16:16Z</time>
      </trkpt>
      <trkpt lat="42.994381" lon="-1.540642">
        <ele>1184.993</ele>
        <time>2019-08-22T18:16:18Z</time>
      </trkpt>
      <trkpt lat="42.994407" lon="-1.540576">
        <ele>1185.199</ele>
        <time>2019-08-22T18:16:20Z</time>
      </trkpt>
      <trkpt lat="42.994446" lon="-1.540525">
        <ele>1184.658</ele>
        <time>2019-08-22T18:16:23Z</time>
      </trkpt>
      <trkpt lat="42.994487" lon="-1.540486">
        <ele>1184.669</ele>
        <time>2019-08-22T18:16:25Z</time>
      </trkpt>
      <trkpt lat="42.994517" lon="-1.540435">
        <ele>1184.620</ele>
        <time>2019-08-22T18:16:27Z</time>
      </trkpt>
      <trkpt lat="42.99453" lon="-1.540365">
        <ele>1184.743</ele>
        <time>2019-08-22T18:16:30Z</time>
      </trkpt>
      <trkpt lat="42.99455" lon="-1.540307">
        <ele>1185.113</ele>
        <time>2019-08-22T18:16:32Z</time>
      </trkpt>
      <trkpt lat="42.994573" lon="-1.540244">
        <ele>1185.832</ele>
        <time>2019-08-22T18:16:34Z</time>
      </trkpt>
      <trkpt lat="42.994602" lon="-1.540153">
        <ele>1185.065</ele>
        <time>2019-08-22T18:16:36Z</time>
      </trkpt>
      <trkpt lat="42.994629" lon="-1.540073">
        <ele>1185.138</ele>
        <time>2019-08-22T18:16:38Z</time>
      </trkpt>
      <trkpt lat="42.994673" lon="-1.54">
        <ele>1184.397</ele>
        <time>2019-08-22T18:16:41Z</time>
      </trkpt>
      <trkpt lat="42.994703" lon="-1.539943">
        <ele>1183.303</ele>
        <time>2019-08-22T18:16:43Z</time>
      </trkpt>
      <trkpt lat="42.994722" lon="-1.539871">
        <ele>1182.572</ele>
        <time>2019-08-22T18:16:46Z</time>
      </trkpt>
      <trkpt lat="42.994721" lon="-1.539794">
        <ele>1181.733</ele>
        <time>2019-08-22T18:16:49Z</time>
      </trkpt>
      <trkpt lat="42.99473" lon="-1.539731">
        <ele>1180.261</ele>
        <time>2019-08-22T18:16:51Z</time>
      </trkpt>
      <trkpt lat="42.994753" lon="-1.539654">
        <ele>1177.471</ele>
        <time>2019-08-22T18:16:53Z</time>
      </trkpt>
      <trkpt lat="42.994782" lon="-1.539571">
        <ele>1174.056</ele>
        <time>2019-08-22T18:16:55Z</time>
      </trkpt>
      <trkpt lat="42.994813" lon="-1.539489">
        <ele>1171.224</ele>
        <time>2019-08-22T18:16:57Z</time>
      </trkpt>
      <trkpt lat="42.994844" lon="-1.539405">
        <ele>1169.166</ele>
        <time>2019-08-22T18:16:59Z</time>
      </trkpt>
      <trkpt lat="42.994867" lon="-1.539332">
        <ele>1168.269</ele>
        <time>2019-08-22T18:17:01Z</time>
      </trkpt>
      <trkpt lat="42.994886" lon="-1.539268">
        <ele>1167.863</ele>
        <time>2019-08-22T18:17:03Z</time>
      </trkpt>
      <trkpt lat="42.994903" lon="-1.539207">
        <ele>1166.858</ele>
        <time>2019-08-22T18:17:05Z</time>
      </trkpt>
      <trkpt lat="42.99493" lon="-1.539134">
        <ele>1166.627</ele>
        <time>2019-08-22T18:17:07Z</time>
      </trkpt>
      <trkpt lat="42.994964" lon="-1.53906">
        <ele>1166.656</ele>
        <time>2019-08-22T18:17:09Z</time>
      </trkpt>
      <trkpt lat="42.995002" lon="-1.53898">
        <ele>1165.620</ele>
        <time>2019-08-22T18:17:11Z</time>
      </trkpt>
      <trkpt lat="42.995044" lon="-1.53891">
        <ele>1163.803</ele>
        <time>2019-08-22T18:17:13Z</time>
      </trkpt>
      <trkpt lat="42.995109" lon="-1.538832">
        <ele>1161.582</ele>
        <time>2019-08-22T18:17:15Z</time>
      </trkpt>
      <trkpt lat="42.995177" lon="-1.538727">
        <ele>1158.957</ele>
        <time>2019-08-22T18:17:18Z</time>
      </trkpt>
      <trkpt lat="42.995177" lon="-1.538727">
        <ele>1158.931</ele>
        <time>2019-08-22T18:17:18Z</time>
      </trkpt>
      <trkpt lat="42.995202" lon="-1.53863">
        <ele>1158.160</ele>
        <time>2019-08-22T18:17:20Z</time>
      </trkpt>
      <trkpt lat="42.995219" lon="-1.538515">
        <ele>1157.584</ele>
        <time>2019-08-22T18:17:22Z</time>
      </trkpt>
      <trkpt lat="42.995236" lon="-1.538412">
        <ele>1157.689</ele>
        <time>2019-08-22T18:17:24Z</time>
      </trkpt>
      <trkpt lat="42.995247" lon="-1.538319">
        <ele>1157.305</ele>
        <time>2019-08-22T18:17:26Z</time>
      </trkpt>
      <trkpt lat="42.995252" lon="-1.538255">
        <ele>1157.770</ele>
        <time>2019-08-22T18:17:28Z</time>
      </trkpt>
      <trkpt lat="42.995265" lon="-1.538099">
        <ele>1157.944</ele>
        <time>2019-08-22T18:17:29Z</time>
      </trkpt>
      <trkpt lat="42.99526" lon="-1.538024">
        <ele>1157.808</ele>
        <time>2019-08-22T18:17:30Z</time>
      </trkpt>
      <trkpt lat="42.995236" lon="-1.537903">
        <ele>1157.996</ele>
        <time>2019-08-22T18:17:31Z</time>
      </trkpt>
      <trkpt lat="42.995203" lon="-1.537831">
        <ele>1156.936</ele>
        <time>2019-08-22T18:17:32Z</time>
      </trkpt>
      <trkpt lat="42.995213" lon="-1.537749">
        <ele>1155.516</ele>
        <time>2019-08-22T18:17:34Z</time>
      </trkpt>
      <trkpt lat="42.995219" lon="-1.537675">
        <ele>1154.515</ele>
        <time>2019-08-22T18:17:36Z</time>
      </trkpt>
      <trkpt lat="42.99522" lon="-1.537594">
        <ele>1154.388</ele>
        <time>2019-08-22T18:17:38Z</time>
      </trkpt>
      <trkpt lat="42.995244" lon="-1.537514">
        <ele>1155.259</ele>
        <time>2019-08-22T18:17:40Z</time>
      </trkpt>
      <trkpt lat="42.99527" lon="-1.537459">
        <ele>1155.891</ele>
        <time>2019-08-22T18:17:42Z</time>
      </trkpt>
      <trkpt lat="42.99531" lon="-1.537387">
        <ele>1157.483</ele>
        <time>2019-08-22T18:17:44Z</time>
      </trkpt>
      <trkpt lat="42.995336" lon="-1.537337">
        <ele>1157.502</ele>
        <time>2019-08-22T18:17:45Z</time>
      </trkpt>
      <trkpt lat="42.995361" lon="-1.537253">
        <ele>1156.424</ele>
        <time>2019-08-22T18:17:47Z</time>
      </trkpt>
      <trkpt lat="42.995363" lon="-1.53719">
        <ele>1154.887</ele>
        <time>2019-08-22T18:17:49Z</time>
      </trkpt>
      <trkpt lat="42.995359" lon="-1.537123">
        <ele>1154.022</ele>
        <time>2019-08-22T18:17:51Z</time>
      </trkpt>
      <trkpt lat="42.995359" lon="-1.537057">
        <ele>1152.375</ele>
        <time>2019-08-22T18:17:53Z</time>
      </trkpt>
      <trkpt lat="42.995369" lon="-1.536953">
        <ele>1149.729</ele>
        <time>2019-08-22T18:17:55Z</time>
      </trkpt>
      <trkpt lat="42.995372" lon="-1.536859">
        <ele>1147.659</ele>
        <time>2019-08-22T18:17:57Z</time>
      </trkpt>
      <trkpt lat="42.995368" lon="-1.536777">
        <ele>1146.383</ele>
        <time>2019-08-22T18:17:59Z</time>
      </trkpt>
      <trkpt lat="42.995369" lon="-1.536581">
        <ele>1145.005</ele>
        <time>2019-08-22T18:18:44Z</time>
      </trkpt>
      <trkpt lat="42.995368" lon="-1.536507">
        <ele>1142.158</ele>
        <time>2019-08-22T18:18:49Z</time>
      </trkpt>
      <trkpt lat="42.995369" lon="-1.536442">
        <ele>1140.045</ele>
        <time>2019-08-22T18:18:53Z</time>
      </trkpt>
      <trkpt lat="42.995404" lon="-1.536324">
        <ele>1136.369</ele>
        <time>2019-08-22T18:19:07Z</time>
      </trkpt>
      <trkpt lat="42.995354" lon="-1.536299">
        <ele>1133.469</ele>
        <time>2019-08-22T18:19:13Z</time>
      </trkpt>
      <trkpt lat="42.995312" lon="-1.536253">
        <ele>1131.638</ele>
        <time>2019-08-22T18:19:18Z</time>
      </trkpt>
      <trkpt lat="42.995278" lon="-1.536202">
        <ele>1130.859</ele>
        <time>2019-08-22T18:19:23Z</time>
      </trkpt>
      <trkpt lat="42.995245" lon="-1.53616">
        <ele>1129.022</ele>
        <time>2019-08-22T18:19:28Z</time>
      </trkpt>
      <trkpt lat="42.995208" lon="-1.536113">
        <ele>1128.288</ele>
        <time>2019-08-22T18:19:34Z</time>
      </trkpt>
      <trkpt lat="42.995175" lon="-1.536062">
        <ele>1128.822</ele>
        <time>2019-08-22T18:19:38Z</time>
      </trkpt>
      <trkpt lat="42.995136" lon="-1.536025">
        <ele>1127.555</ele>
        <time>2019-08-22T18:19:43Z</time>
      </trkpt>
      <trkpt lat="42.995076" lon="-1.53602">
        <ele>1128.282</ele>
        <time>2019-08-22T18:19:49Z</time>
      </trkpt>
      <trkpt lat="42.995022" lon="-1.536009">
        <ele>1128.801</ele>
        <time>2019-08-22T18:19:53Z</time>
      </trkpt>
      <trkpt lat="42.994984" lon="-1.53596">
        <ele>1130.113</ele>
        <time>2019-08-22T18:20:00Z</time>
      </trkpt>
      <trkpt lat="42.994972" lon="-1.535896">
        <ele>1130.197</ele>
        <time>2019-08-22T18:20:06Z</time>
      </trkpt>
      <trkpt lat="42.994959" lon="-1.535826">
        <ele>1128.899</ele>
        <time>2019-08-22T18:20:10Z</time>
      </trkpt>
      <trkpt lat="42.994956" lon="-1.53575">
        <ele>1126.800</ele>
        <time>2019-08-22T18:20:14Z</time>
      </trkpt>
      <trkpt lat="42.994944" lon="-1.53568">
        <ele>1125.819</ele>
        <time>2019-08-22T18:20:17Z</time>
      </trkpt>
      <trkpt lat="42.994921" lon="-1.535608">
        <ele>1123.937</ele>
        <time>2019-08-22T18:20:20Z</time>
      </trkpt>
      <trkpt lat="42.994905" lon="-1.535535">
        <ele>1121.455</ele>
        <time>2019-08-22T18:20:24Z</time>
      </trkpt>
      <trkpt lat="42.994884" lon="-1.535466">
        <ele>1119.725</ele>
        <time>2019-08-22T18:20:28Z</time>
      </trkpt>
      <trkpt lat="42.994863" lon="-1.53539">
        <ele>1118.610</ele>
        <time>2019-08-22T18:20:31Z</time>
      </trkpt>
      <trkpt lat="42.994835" lon="-1.535324">
        <ele>1116.691</ele>
        <time>2019-08-22T18:20:34Z</time>
      </trkpt>
      <trkpt lat="42.99481" lon="-1.535243">
        <ele>1113.785</ele>
        <time>2019-08-22T18:20:37Z</time>
      </trkpt>
      <trkpt lat="42.994795" lon="-1.535167">
        <ele>1111.691</ele>
        <time>2019-08-22T18:20:39Z</time>
      </trkpt>
      <trkpt lat="42.994788" lon="-1.535101">
        <ele>1111.217</ele>
        <time>2019-08-22T18:20:41Z</time>
      </trkpt>
      <trkpt lat="42.994778" lon="-1.535001">
        <ele>1110.604</ele>
        <time>2019-08-22T18:20:43Z</time>
      </trkpt>
      <trkpt lat="42.994772" lon="-1.534897">
        <ele>1109.678</ele>
        <time>2019-08-22T18:20:45Z</time>
      </trkpt>
      <trkpt lat="42.994766" lon="-1.5348">
        <ele>1109.593</ele>
        <time>2019-08-22T18:20:47Z</time>
      </trkpt>
      <trkpt lat="42.994757" lon="-1.534707">
        <ele>1108.364</ele>
        <time>2019-08-22T18:20:49Z</time>
      </trkpt>
      <trkpt lat="42.994748" lon="-1.534607">
        <ele>1107.370</ele>
        <time>2019-08-22T18:20:51Z</time>
      </trkpt>
      <trkpt lat="42.994742" lon="-1.53451">
        <ele>1106.396</ele>
        <time>2019-08-22T18:20:53Z</time>
      </trkpt>
      <trkpt lat="42.994739" lon="-1.534447">
        <ele>1104.703</ele>
        <time>2019-08-22T18:20:54Z</time>
      </trkpt>
      <trkpt lat="42.994734" lon="-1.534343">
        <ele>1103.756</ele>
        <time>2019-08-22T18:20:56Z</time>
      </trkpt>
      <trkpt lat="42.994727" lon="-1.534254">
        <ele>1103.483</ele>
        <time>2019-08-22T18:20:58Z</time>
      </trkpt>
      <trkpt lat="42.99472" lon="-1.53417">
        <ele>1101.649</ele>
        <time>2019-08-22T18:21:00Z</time>
      </trkpt>
      <trkpt lat="42.99472" lon="-1.534089">
        <ele>1099.011</ele>
        <time>2019-08-22T18:21:02Z</time>
      </trkpt>
      <trkpt lat="42.994722" lon="-1.534014">
        <ele>1097.453</ele>
        <time>2019-08-22T18:21:04Z</time>
      </trkpt>
      <trkpt lat="42.994722" lon="-1.533931">
        <ele>1096.243</ele>
        <time>2019-08-22T18:21:06Z</time>
      </trkpt>
      <trkpt lat="42.994713" lon="-1.533857">
        <ele>1095.317</ele>
        <time>2019-08-22T18:21:08Z</time>
      </trkpt>
      <trkpt lat="42.994698" lon="-1.533785">
        <ele>1093.386</ele>
        <time>2019-08-22T18:21:10Z</time>
      </trkpt>
      <trkpt lat="42.994674" lon="-1.533706">
        <ele>1090.656</ele>
        <time>2019-08-22T18:21:12Z</time>
      </trkpt>
      <trkpt lat="42.994637" lon="-1.533639">
        <ele>1087.680</ele>
        <time>2019-08-22T18:21:14Z</time>
      </trkpt>
      <trkpt lat="42.994582" lon="-1.533549">
        <ele>1087.338</ele>
        <time>2019-08-22T18:21:20Z</time>
      </trkpt>
      <trkpt lat="42.994545" lon="-1.533514">
        <ele>1087.289</ele>
        <time>2019-08-22T18:21:23Z</time>
      </trkpt>
      <trkpt lat="42.994494" lon="-1.533481">
        <ele>1087.110</ele>
        <time>2019-08-22T18:21:26Z</time>
      </trkpt>
      <trkpt lat="42.994438" lon="-1.533452">
        <ele>1086.119</ele>
        <time>2019-08-22T18:21:28Z</time>
      </trkpt>
      <trkpt lat="42.994378" lon="-1.533409">
        <ele>1084.278</ele>
        <time>2019-08-22T18:21:31Z</time>
      </trkpt>
      <trkpt lat="42.994343" lon="-1.533367">
        <ele>1082.906</ele>
        <time>2019-08-22T18:21:33Z</time>
      </trkpt>
      <trkpt lat="42.994315" lon="-1.533298">
        <ele>1083.091</ele>
        <time>2019-08-22T18:21:36Z</time>
      </trkpt>
      <trkpt lat="42.994293" lon="-1.533243">
        <ele>1081.778</ele>
        <time>2019-08-22T18:21:38Z</time>
      </trkpt>
      <trkpt lat="42.994254" lon="-1.533169">
        <ele>1078.304</ele>
        <time>2019-08-22T18:21:41Z</time>
      </trkpt>
      <trkpt lat="42.994226" lon="-1.53312">
        <ele>1076.384</ele>
        <time>2019-08-22T18:21:43Z</time>
      </trkpt>
      <trkpt lat="42.994201" lon="-1.533063">
        <ele>1075.238</ele>
        <time>2019-08-22T18:21:45Z</time>
      </trkpt>
      <trkpt lat="42.994186" lon="-1.532981">
        <ele>1074.216</ele>
        <time>2019-08-22T18:21:48Z</time>
      </trkpt>
      <trkpt lat="42.994173" lon="-1.532906">
        <ele>1072.364</ele>
        <time>2019-08-22T18:21:51Z</time>
      </trkpt>
      <trkpt lat="42.994157" lon="-1.532843">
        <ele>1069.300</ele>
        <time>2019-08-22T18:21:54Z</time>
      </trkpt>
      <trkpt lat="42.994126" lon="-1.532766">
        <ele>1066.697</ele>
        <time>2019-08-22T18:21:57Z</time>
      </trkpt>
      <trkpt lat="42.994092" lon="-1.532712">
        <ele>1063.698</ele>
        <time>2019-08-22T18:21:59Z</time>
      </trkpt>
      <trkpt lat="42.994054" lon="-1.532651">
        <ele>1060.627</ele>
        <time>2019-08-22T18:22:01Z</time>
      </trkpt>
      <trkpt lat="42.994022" lon="-1.532587">
        <ele>1057.180</ele>
        <time>2019-08-22T18:22:03Z</time>
      </trkpt>
      <trkpt lat="42.994005" lon="-1.532522">
        <ele>1053.967</ele>
        <time>2019-08-22T18:22:05Z</time>
      </trkpt>
      <trkpt lat="42.993991" lon="-1.532459">
        <ele>1053.016</ele>
        <time>2019-08-22T18:22:07Z</time>
      </trkpt>
      <trkpt lat="42.993971" lon="-1.532361">
        <ele>1052.678</ele>
        <time>2019-08-22T18:22:09Z</time>
      </trkpt>
      <trkpt lat="42.993943" lon="-1.532258">
        <ele>1052.466</ele>
        <time>2019-08-22T18:22:11Z</time>
      </trkpt>
      <trkpt lat="42.993896" lon="-1.532149">
        <ele>1052.143</ele>
        <time>2019-08-22T18:22:13Z</time>
      </trkpt>
      <trkpt lat="42.993864" lon="-1.532083">
        <ele>1052.431</ele>
        <time>2019-08-22T18:22:14Z</time>
      </trkpt>
      <trkpt lat="42.993839" lon="-1.532031">
        <ele>1052.308</ele>
        <time>2019-08-22T18:22:15Z</time>
      </trkpt>
      <trkpt lat="42.993818" lon="-1.531973">
        <ele>1052.675</ele>
        <time>2019-08-22T18:22:16Z</time>
      </trkpt>
      <trkpt lat="42.993787" lon="-1.531869">
        <ele>1053.953</ele>
        <time>2019-08-22T18:22:18Z</time>
      </trkpt>
      <trkpt lat="42.993777" lon="-1.531796">
        <ele>1054.422</ele>
        <time>2019-08-22T18:22:20Z</time>
      </trkpt>
      <trkpt lat="42.99378" lon="-1.531722">
        <ele>1054.572</ele>
        <time>2019-08-22T18:22:22Z</time>
      </trkpt>
      <trkpt lat="42.993799" lon="-1.531645">
        <ele>1053.726</ele>
        <time>2019-08-22T18:22:24Z</time>
      </trkpt>
      <trkpt lat="42.993823" lon="-1.531581">
        <ele>1054.331</ele>
        <time>2019-08-22T18:22:26Z</time>
      </trkpt>
      <trkpt lat="42.993855" lon="-1.531532">
        <ele>1054.291</ele>
        <time>2019-08-22T18:22:28Z</time>
      </trkpt>
      <trkpt lat="42.993922" lon="-1.531483">
        <ele>1053.370</ele>
        <time>2019-08-22T18:22:30Z</time>
      </trkpt>
      <trkpt lat="42.993982" lon="-1.53145">
        <ele>1053.153</ele>
        <time>2019-08-22T18:22:32Z</time>
      </trkpt>
      <trkpt lat="42.994039" lon="-1.531423">
        <ele>1052.908</ele>
        <time>2019-08-22T18:22:34Z</time>
      </trkpt>
      <trkpt lat="42.994085" lon="-1.53141">
        <ele>1053.350</ele>
        <time>2019-08-22T18:22:36Z</time>
      </trkpt>
      <trkpt lat="42.994146" lon="-1.531385">
        <ele>1053.721</ele>
        <time>2019-08-22T18:22:39Z</time>
      </trkpt>
      <trkpt lat="42.994193" lon="-1.531344">
        <ele>1053.523</ele>
        <time>2019-08-22T18:22:42Z</time>
      </trkpt>
      <trkpt lat="42.994241" lon="-1.531308">
        <ele>1053.016</ele>
        <time>2019-08-22T18:22:45Z</time>
      </trkpt>
      <trkpt lat="42.994287" lon="-1.531288">
        <ele>1052.745</ele>
        <time>2019-08-22T18:22:48Z</time>
      </trkpt>
      <trkpt lat="42.994339" lon="-1.531271">
        <ele>1052.842</ele>
        <time>2019-08-22T18:22:51Z</time>
      </trkpt>
      <trkpt lat="42.994388" lon="-1.531236">
        <ele>1051.887</ele>
        <time>2019-08-22T18:22:54Z</time>
      </trkpt>
      <trkpt lat="42.99444" lon="-1.5312">
        <ele>1050.889</ele>
        <time>2019-08-22T18:22:58Z</time>
      </trkpt>
      <trkpt lat="42.994631" lon="-1.531099">
        <ele>1050.487</ele>
        <time>2019-08-22T18:27:38Z</time>
      </trkpt>
      <trkpt lat="42.994675" lon="-1.531066">
        <ele>1049.180</ele>
        <time>2019-08-22T18:27:43Z</time>
      </trkpt>
      <trkpt lat="42.994737" lon="-1.531035">
        <ele>1048.464</ele>
        <time>2019-08-22T18:27:46Z</time>
      </trkpt>
      <trkpt lat="42.994782" lon="-1.531007">
        <ele>1045.772</ele>
        <time>2019-08-22T18:27:48Z</time>
      </trkpt>
      <trkpt lat="42.994953" lon="-1.530963">
        <ele>1042.635</ele>
        <time>2019-08-22T18:27:56Z</time>
      </trkpt>
      <trkpt lat="42.995001" lon="-1.530941">
        <ele>1040.183</ele>
        <time>2019-08-22T18:27:58Z</time>
      </trkpt>
      <trkpt lat="42.995043" lon="-1.53091">
        <ele>1037.110</ele>
        <time>2019-08-22T18:28:00Z</time>
      </trkpt>
      <trkpt lat="42.995161" lon="-1.53081">
        <ele>1034.137</ele>
        <time>2019-08-22T18:28:02Z</time>
      </trkpt>
      <trkpt lat="42.995214" lon="-1.530777">
        <ele>1032.052</ele>
        <time>2019-08-22T18:28:04Z</time>
      </trkpt>
      <trkpt lat="42.995268" lon="-1.530742">
        <ele>1029.879</ele>
        <time>2019-08-22T18:28:06Z</time>
      </trkpt>
      <trkpt lat="42.995331" lon="-1.530702">
        <ele>1028.234</ele>
        <time>2019-08-22T18:28:08Z</time>
      </trkpt>
      <trkpt lat="42.995408" lon="-1.530655">
        <ele>1026.152</ele>
        <time>2019-08-22T18:28:10Z</time>
      </trkpt>
      <trkpt lat="42.995471" lon="-1.530597">
        <ele>1025.219</ele>
        <time>2019-08-22T18:28:12Z</time>
      </trkpt>
      <trkpt lat="42.995552" lon="-1.530536">
        <ele>1026.058</ele>
        <time>2019-08-22T18:28:14Z</time>
      </trkpt>
      <trkpt lat="42.99561" lon="-1.530513">
        <ele>1026.650</ele>
        <time>2019-08-22T18:28:15Z</time>
      </trkpt>
      <trkpt lat="42.995667" lon="-1.530484">
        <ele>1027.132</ele>
        <time>2019-08-22T18:28:16Z</time>
      </trkpt>
      <trkpt lat="42.99572" lon="-1.530462">
        <ele>1027.773</ele>
        <time>2019-08-22T18:28:17Z</time>
      </trkpt>
      <trkpt lat="42.995794" lon="-1.530432">
        <ele>1028.462</ele>
        <time>2019-08-22T18:28:19Z</time>
      </trkpt>
      <trkpt lat="42.995857" lon="-1.530398">
        <ele>1029.628</ele>
        <time>2019-08-22T18:28:21Z</time>
      </trkpt>
      <trkpt lat="42.995903" lon="-1.530359">
        <ele>1029.390</ele>
        <time>2019-08-22T18:28:23Z</time>
      </trkpt>
      <trkpt lat="42.99595" lon="-1.530315">
        <ele>1027.756</ele>
        <time>2019-08-22T18:28:25Z</time>
      </trkpt>
      <trkpt lat="42.996015" lon="-1.530264">
        <ele>1027.266</ele>
        <time>2019-08-22T18:28:27Z</time>
      </trkpt>
      <trkpt lat="42.996061" lon="-1.530207">
        <ele>1026.885</ele>
        <time>2019-08-22T18:28:29Z</time>
      </trkpt>
      <trkpt lat="42.996122" lon="-1.530167">
        <ele>1027.247</ele>
        <time>2019-08-22T18:28:31Z</time>
      </trkpt>
      <trkpt lat="42.996173" lon="-1.530127">
        <ele>1027.529</ele>
        <time>2019-08-22T18:28:33Z</time>
      </trkpt>
      <trkpt lat="42.996206" lon="-1.530078">
        <ele>1027.741</ele>
        <time>2019-08-22T18:28:35Z</time>
      </trkpt>
      <trkpt lat="42.996235" lon="-1.53001">
        <ele>1026.574</ele>
        <time>2019-08-22T18:28:37Z</time>
      </trkpt>
      <trkpt lat="42.996257" lon="-1.529956">
        <ele>1025.375</ele>
        <time>2019-08-22T18:28:39Z</time>
      </trkpt>
      <trkpt lat="42.996287" lon="-1.529906">
        <ele>1021.960</ele>
        <time>2019-08-22T18:28:41Z</time>
      </trkpt>
      <trkpt lat="42.996345" lon="-1.52984">
        <ele>1017.936</ele>
        <time>2019-08-22T18:28:43Z</time>
      </trkpt>
      <trkpt lat="42.996425" lon="-1.529779">
        <ele>1015.103</ele>
        <time>2019-08-22T18:28:45Z</time>
      </trkpt>
      <trkpt lat="42.996483" lon="-1.529729">
        <ele>1013.678</ele>
        <time>2019-08-22T18:28:47Z</time>
      </trkpt>
      <trkpt lat="42.996506" lon="-1.529668">
        <ele>1011.907</ele>
        <time>2019-08-22T18:28:49Z</time>
      </trkpt>
      <trkpt lat="42.996536" lon="-1.529602">
        <ele>1010.269</ele>
        <time>2019-08-22T18:28:52Z</time>
      </trkpt>
      <trkpt lat="42.996571" lon="-1.529551">
        <ele>1007.237</ele>
        <time>2019-08-22T18:28:54Z</time>
      </trkpt>
      <trkpt lat="42.996592" lon="-1.529485">
        <ele>1005.297</ele>
        <time>2019-08-22T18:28:57Z</time>
      </trkpt>
      <trkpt lat="42.996588" lon="-1.529409">
        <ele>1003.644</ele>
        <time>2019-08-22T18:29:02Z</time>
      </trkpt>
      <trkpt lat="42.996597" lon="-1.529331">
        <ele>1000.392</ele>
        <time>2019-08-22T18:29:05Z</time>
      </trkpt>
      <trkpt lat="42.996617" lon="-1.529274">
        <ele>998.682</ele>
        <time>2019-08-22T18:29:07Z</time>
      </trkpt>
      <trkpt lat="42.996658" lon="-1.529204">
        <ele>998.614</ele>
        <time>2019-08-22T18:29:10Z</time>
      </trkpt>
      <trkpt lat="42.996709" lon="-1.52917">
        <ele>997.631</ele>
        <time>2019-08-22T18:29:13Z</time>
      </trkpt>
      <trkpt lat="42.996756" lon="-1.529154">
        <ele>997.331</ele>
        <time>2019-08-22T18:29:15Z</time>
      </trkpt>
      <trkpt lat="42.996825" lon="-1.529145">
        <ele>998.034</ele>
        <time>2019-08-22T18:29:17Z</time>
      </trkpt>
      <trkpt lat="42.996872" lon="-1.529143">
        <ele>999.578</ele>
        <time>2019-08-22T18:29:18Z</time>
      </trkpt>
      <trkpt lat="42.996949" lon="-1.529142">
        <ele>1000.589</ele>
        <time>2019-08-22T18:29:20Z</time>
      </trkpt>
      <trkpt lat="42.997007" lon="-1.529138">
        <ele>999.730</ele>
        <time>2019-08-22T18:29:22Z</time>
      </trkpt>
      <trkpt lat="42.99708" lon="-1.529127">
        <ele>999.189</ele>
        <time>2019-08-22T18:29:24Z</time>
      </trkpt>
      <trkpt lat="42.997335" lon="-1.529057">
        <ele>998.187</ele>
        <time>2019-08-22T18:29:25Z</time>
      </trkpt>
      <trkpt lat="42.997401" lon="-1.52906">
        <ele>997.911</ele>
        <time>2019-08-22T18:29:28Z</time>
      </trkpt>
      <trkpt lat="42.997448" lon="-1.529059">
        <ele>998.272</ele>
        <time>2019-08-22T18:29:29Z</time>
      </trkpt>
      <trkpt lat="42.997525" lon="-1.529051">
        <ele>998.032</ele>
        <time>2019-08-22T18:29:31Z</time>
      </trkpt>
      <trkpt lat="42.997621" lon="-1.529041">
        <ele>996.822</ele>
        <time>2019-08-22T18:29:39Z</time>
      </trkpt>
      <trkpt lat="42.99766" lon="-1.52898">
        <ele>995.594</ele>
        <time>2019-08-22T18:29:45Z</time>
      </trkpt>
      <trkpt lat="42.997732" lon="-1.528942">
        <ele>993.982</ele>
        <time>2019-08-22T18:29:48Z</time>
      </trkpt>
      <trkpt lat="42.997792" lon="-1.528923">
        <ele>993.766</ele>
        <time>2019-08-22T18:29:50Z</time>
      </trkpt>
      <trkpt lat="42.997872" lon="-1.52892">
        <ele>993.295</ele>
        <time>2019-08-22T18:29:52Z</time>
      </trkpt>
      <trkpt lat="42.997925" lon="-1.528913">
        <ele>992.312</ele>
        <time>2019-08-22T18:29:54Z</time>
      </trkpt>
      <trkpt lat="42.997974" lon="-1.528881">
        <ele>988.897</ele>
        <time>2019-08-22T18:29:56Z</time>
      </trkpt>
      <trkpt lat="42.998007" lon="-1.52882">
        <ele>986.785</ele>
        <time>2019-08-22T18:29:59Z</time>
      </trkpt>
      <trkpt lat="42.997989" lon="-1.528748">
        <ele>985.112</ele>
        <time>2019-08-22T18:30:02Z</time>
      </trkpt>
      <trkpt lat="42.997997" lon="-1.528679">
        <ele>984.597</ele>
        <time>2019-08-22T18:30:05Z</time>
      </trkpt>
      <trkpt lat="42.998039" lon="-1.528642">
        <ele>983.980</ele>
        <time>2019-08-22T18:30:08Z</time>
      </trkpt>
      <trkpt lat="42.998093" lon="-1.528629">
        <ele>983.029</ele>
        <time>2019-08-22T18:30:10Z</time>
      </trkpt>
      <trkpt lat="42.998135" lon="-1.528604">
        <ele>982.088</ele>
        <time>2019-08-22T18:30:12Z</time>
      </trkpt>
      <trkpt lat="42.998189" lon="-1.528571">
        <ele>980.537</ele>
        <time>2019-08-22T18:30:15Z</time>
      </trkpt>
      <trkpt lat="42.99823" lon="-1.528523">
        <ele>977.700</ele>
        <time>2019-08-22T18:30:19Z</time>
      </trkpt>
      <trkpt lat="42.998209" lon="-1.528434">
        <ele>976.029</ele>
        <time>2019-08-22T18:30:23Z</time>
      </trkpt>
      <trkpt lat="42.998182" lon="-1.528381">
        <ele>974.517</ele>
        <time>2019-08-22T18:30:25Z</time>
      </trkpt>
      <trkpt lat="42.998139" lon="-1.528301">
        <ele>972.853</ele>
        <time>2019-08-22T18:30:28Z</time>
      </trkpt>
      <trkpt lat="42.99812" lon="-1.528244">
        <ele>972.067</ele>
        <time>2019-08-22T18:30:30Z</time>
      </trkpt>
      <trkpt lat="42.998111" lon="-1.528135">
        <ele>971.428</ele>
        <time>2019-08-22T18:30:33Z</time>
      </trkpt>
      <trkpt lat="42.998122" lon="-1.528072">
        <ele>969.666</ele>
        <time>2019-08-22T18:30:36Z</time>
      </trkpt>
      <trkpt lat="42.998127" lon="-1.528">
        <ele>967.768</ele>
        <time>2019-08-22T18:30:39Z</time>
      </trkpt>
      <trkpt lat="42.998121" lon="-1.527935">
        <ele>966.928</ele>
        <time>2019-08-22T18:30:41Z</time>
      </trkpt>
      <trkpt lat="42.998116" lon="-1.527868">
        <ele>966.311</ele>
        <time>2019-08-22T18:30:43Z</time>
      </trkpt>
      <trkpt lat="42.998118" lon="-1.527761">
        <ele>965.726</ele>
        <time>2019-08-22T18:30:45Z</time>
      </trkpt>
      <trkpt lat="42.998139" lon="-1.527652">
        <ele>964.887</ele>
        <time>2019-08-22T18:30:47Z</time>
      </trkpt>
      <trkpt lat="42.998156" lon="-1.527593">
        <ele>964.225</ele>
        <time>2019-08-22T18:30:48Z</time>
      </trkpt>
      <trkpt lat="42.998171" lon="-1.527527">
        <ele>962.718</ele>
        <time>2019-08-22T18:30:49Z</time>
      </trkpt>
      <trkpt lat="42.998205" lon="-1.527423">
        <ele>961.574</ele>
        <time>2019-08-22T18:30:51Z</time>
      </trkpt>
      <trkpt lat="42.998237" lon="-1.527357">
        <ele>960.961</ele>
        <time>2019-08-22T18:30:53Z</time>
      </trkpt>
      <trkpt lat="42.998296" lon="-1.527318">
        <ele>958.561</ele>
        <time>2019-08-22T18:30:56Z</time>
      </trkpt>
      <trkpt lat="42.998342" lon="-1.527292">
        <ele>957.133</ele>
        <time>2019-08-22T18:30:58Z</time>
      </trkpt>
      <trkpt lat="42.998388" lon="-1.52726">
        <ele>955.394</ele>
        <time>2019-08-22T18:31:01Z</time>
      </trkpt>
      <trkpt lat="42.998411" lon="-1.52718">
        <ele>953.467</ele>
        <time>2019-08-22T18:31:04Z</time>
      </trkpt>
      <trkpt lat="42.998429" lon="-1.527105">
        <ele>950.237</ele>
        <time>2019-08-22T18:31:07Z</time>
      </trkpt>
      <trkpt lat="42.998432" lon="-1.527028">
        <ele>947.450</ele>
        <time>2019-08-22T18:31:10Z</time>
      </trkpt>
      <trkpt lat="42.998427" lon="-1.526956">
        <ele>943.436</ele>
        <time>2019-08-22T18:31:13Z</time>
      </trkpt>
      <trkpt lat="42.998443" lon="-1.526884">
        <ele>940.380</ele>
        <time>2019-08-22T18:31:16Z</time>
      </trkpt>
      <trkpt lat="42.998486" lon="-1.52682">
        <ele>938.217</ele>
        <time>2019-08-22T18:31:19Z</time>
      </trkpt>
      <trkpt lat="42.998533" lon="-1.526758">
        <ele>936.893</ele>
        <time>2019-08-22T18:31:21Z</time>
      </trkpt>
      <trkpt lat="42.99858" lon="-1.526695">
        <ele>935.458</ele>
        <time>2019-08-22T18:31:23Z</time>
      </trkpt>
      <trkpt lat="42.99862" lon="-1.526662">
        <ele>934.641</ele>
        <time>2019-08-22T18:31:25Z</time>
      </trkpt>
      <trkpt lat="42.998663" lon="-1.526629">
        <ele>933.020</ele>
        <time>2019-08-22T18:31:27Z</time>
      </trkpt>
      <trkpt lat="42.998717" lon="-1.526594">
        <ele>931.748</ele>
        <time>2019-08-22T18:31:30Z</time>
      </trkpt>
      <trkpt lat="42.998736" lon="-1.526525">
        <ele>930.413</ele>
        <time>2019-08-22T18:31:33Z</time>
      </trkpt>
      <trkpt lat="42.998735" lon="-1.526453">
        <ele>928.627</ele>
        <time>2019-08-22T18:31:35Z</time>
      </trkpt>
      <trkpt lat="42.998723" lon="-1.526391">
        <ele>927.688</ele>
        <time>2019-08-22T18:31:37Z</time>
      </trkpt>
      <trkpt lat="42.998709" lon="-1.526312">
        <ele>926.460</ele>
        <time>2019-08-22T18:31:40Z</time>
      </trkpt>
      <trkpt lat="42.998734" lon="-1.526237">
        <ele>926.475</ele>
        <time>2019-08-22T18:31:43Z</time>
      </trkpt>
      <trkpt lat="42.998781" lon="-1.526207">
        <ele>926.814</ele>
        <time>2019-08-22T18:31:46Z</time>
      </trkpt>
      <trkpt lat="42.998825" lon="-1.526184">
        <ele>926.996</ele>
        <time>2019-08-22T18:31:49Z</time>
      </trkpt>
      <trkpt lat="42.998856" lon="-1.526139">
        <ele>926.840</ele>
        <time>2019-08-22T18:31:53Z</time>
      </trkpt>
      <trkpt lat="42.99889" lon="-1.526089">
        <ele>927.101</ele>
        <time>2019-08-22T18:31:57Z</time>
      </trkpt>
      <trkpt lat="42.998943" lon="-1.526041">
        <ele>926.207</ele>
        <time>2019-08-22T18:32:00Z</time>
      </trkpt>
      <trkpt lat="42.998992" lon="-1.525996">
        <ele>925.340</ele>
        <time>2019-08-22T18:32:02Z</time>
      </trkpt>
      <trkpt lat="42.999027" lon="-1.525923">
        <ele>923.841</ele>
        <time>2019-08-22T18:32:04Z</time>
      </trkpt>
      <trkpt lat="42.999002" lon="-1.525765">
        <ele>922.099</ele>
        <time>2019-08-22T18:32:06Z</time>
      </trkpt>
      <trkpt lat="42.99896" lon="-1.525729">
        <ele>920.646</ele>
        <time>2019-08-22T18:32:07Z</time>
      </trkpt>
      <trkpt lat="42.998882" lon="-1.52568">
        <ele>918.359</ele>
        <time>2019-08-22T18:32:08Z</time>
      </trkpt>
      <trkpt lat="42.99884" lon="-1.525628">
        <ele>916.463</ele>
        <time>2019-08-22T18:32:09Z</time>
      </trkpt>
      <trkpt lat="42.998799" lon="-1.525587">
        <ele>915.078</ele>
        <time>2019-08-22T18:32:10Z</time>
      </trkpt>
      <trkpt lat="42.998748" lon="-1.525559">
        <ele>912.802</ele>
        <time>2019-08-22T18:32:11Z</time>
      </trkpt>
      <trkpt lat="42.998707" lon="-1.525524">
        <ele>911.133</ele>
        <time>2019-08-22T18:32:12Z</time>
      </trkpt>
      <trkpt lat="42.998654" lon="-1.52547">
        <ele>909.164</ele>
        <time>2019-08-22T18:32:14Z</time>
      </trkpt>
      <trkpt lat="42.998604" lon="-1.525416">
        <ele>907.727</ele>
        <time>2019-08-22T18:32:15Z</time>
      </trkpt>
      <trkpt lat="42.998536" lon="-1.525346">
        <ele>906.861</ele>
        <time>2019-08-22T18:32:16Z</time>
      </trkpt>
      <trkpt lat="42.998467" lon="-1.525295">
        <ele>907.033</ele>
        <time>2019-08-22T18:32:17Z</time>
      </trkpt>
      <trkpt lat="42.998393" lon="-1.52525">
        <ele>906.827</ele>
        <time>2019-08-22T18:32:19Z</time>
      </trkpt>
      <trkpt lat="42.99833" lon="-1.525222">
        <ele>906.390</ele>
        <time>2019-08-22T18:32:21Z</time>
      </trkpt>
      <trkpt lat="42.99828" lon="-1.525182">
        <ele>905.044</ele>
        <time>2019-08-22T18:32:24Z</time>
      </trkpt>
      <trkpt lat="42.998234" lon="-1.525161">
        <ele>903.438</ele>
        <time>2019-08-22T18:32:27Z</time>
      </trkpt>
      <trkpt lat="42.99819" lon="-1.525137">
        <ele>900.945</ele>
        <time>2019-08-22T18:32:33Z</time>
      </trkpt>
      <trkpt lat="42.998215" lon="-1.525073">
        <ele>898.101</ele>
        <time>2019-08-22T18:32:36Z</time>
      </trkpt>
      <trkpt lat="42.998245" lon="-1.525027">
        <ele>895.348</ele>
        <time>2019-08-22T18:32:40Z</time>
      </trkpt>
      <trkpt lat="42.998216" lon="-1.524972">
        <ele>893.793</ele>
        <time>2019-08-22T18:33:26Z</time>
      </trkpt>
      <trkpt lat="42.998172" lon="-1.524928">
        <ele>891.992</ele>
        <time>2019-08-22T18:33:34Z</time>
      </trkpt>
      <trkpt lat="42.998194" lon="-1.524872">
        <ele>891.332</ele>
        <time>2019-08-22T18:34:09Z</time>
      </trkpt>
      <trkpt lat="42.998243" lon="-1.524837">
        <ele>890.912</ele>
        <time>2019-08-22T18:34:13Z</time>
      </trkpt>
      <trkpt lat="42.998213" lon="-1.524789">
        <ele>891.201</ele>
        <time>2019-08-22T18:34:52Z</time>
      </trkpt>
      <trkpt lat="42.99816" lon="-1.524761">
        <ele>890.372</ele>
        <time>2019-08-22T18:35:04Z</time>
      </trkpt>
      <trkpt lat="42.998108" lon="-1.524747">
        <ele>887.079</ele>
        <time>2019-08-22T18:35:09Z</time>
      </trkpt>
      <trkpt lat="42.998057" lon="-1.524727">
        <ele>883.819</ele>
        <time>2019-08-22T18:35:13Z</time>
      </trkpt>
      <trkpt lat="42.998043" lon="-1.52466">
        <ele>879.831</ele>
        <time>2019-08-22T18:35:19Z</time>
      </trkpt>
      <trkpt lat="42.998084" lon="-1.524607">
        <ele>876.458</ele>
        <time>2019-08-22T18:35:22Z</time>
      </trkpt>
      <trkpt lat="42.998129" lon="-1.524572">
        <ele>874.211</ele>
        <time>2019-08-22T18:35:25Z</time>
      </trkpt>
      <trkpt lat="42.998183" lon="-1.524544">
        <ele>873.021</ele>
        <time>2019-08-22T18:35:32Z</time>
      </trkpt>
      <trkpt lat="42.998146" lon="-1.524494">
        <ele>870.158</ele>
        <time>2019-08-22T18:35:58Z</time>
      </trkpt>
      <trkpt lat="42.998083" lon="-1.524491">
        <ele>868.735</ele>
        <time>2019-08-22T18:36:02Z</time>
      </trkpt>
      <trkpt lat="42.998031" lon="-1.524486">
        <ele>868.287</ele>
        <time>2019-08-22T18:36:06Z</time>
      </trkpt>
      <trkpt lat="42.998014" lon="-1.524417">
        <ele>867.970</ele>
        <time>2019-08-22T18:36:11Z</time>
      </trkpt>
      <trkpt lat="42.998031" lon="-1.524348">
        <ele>867.616</ele>
        <time>2019-08-22T18:36:15Z</time>
      </trkpt>
      <trkpt lat="42.998076" lon="-1.524304">
        <ele>867.951</ele>
        <time>2019-08-22T18:36:18Z</time>
      </trkpt>
      <trkpt lat="42.998132" lon="-1.524297">
        <ele>868.521</ele>
        <time>2019-08-22T18:36:21Z</time>
      </trkpt>
      <trkpt lat="42.998192" lon="-1.524301">
        <ele>867.415</ele>
        <time>2019-08-22T18:36:24Z</time>
      </trkpt>
      <trkpt lat="42.99824" lon="-1.524292">
        <ele>867.676</ele>
        <time>2019-08-22T18:36:26Z</time>
      </trkpt>
      <trkpt lat="42.998303" lon="-1.524296">
        <ele>866.621</ele>
        <time>2019-08-22T18:36:29Z</time>
      </trkpt>
      <trkpt lat="42.998362" lon="-1.524291">
        <ele>865.532</ele>
        <time>2019-08-22T18:36:32Z</time>
      </trkpt>
      <trkpt lat="42.998428" lon="-1.524282">
        <ele>865.142</ele>
        <time>2019-08-22T18:36:35Z</time>
      </trkpt>
      <trkpt lat="42.99848" lon="-1.524287">
        <ele>863.068</ele>
        <time>2019-08-22T18:36:39Z</time>
      </trkpt>
      <trkpt lat="42.998534" lon="-1.524273">
        <ele>860.724</ele>
        <time>2019-08-22T18:36:42Z</time>
      </trkpt>
      <trkpt lat="42.998592" lon="-1.524275">
        <ele>859.145</ele>
        <time>2019-08-22T18:36:45Z</time>
      </trkpt>
      <trkpt lat="42.998641" lon="-1.524279">
        <ele>858.156</ele>
        <time>2019-08-22T18:36:48Z</time>
      </trkpt>
      <trkpt lat="42.998707" lon="-1.524263">
        <ele>858.766</ele>
        <time>2019-08-22T18:36:54Z</time>
      </trkpt>
      <trkpt lat="42.998675" lon="-1.524203">
        <ele>856.411</ele>
        <time>2019-08-22T18:37:01Z</time>
      </trkpt>
      <trkpt lat="42.99862" lon="-1.524169">
        <ele>853.595</ele>
        <time>2019-08-22T18:37:04Z</time>
      </trkpt>
      <trkpt lat="42.99858" lon="-1.524136">
        <ele>851.970</ele>
        <time>2019-08-22T18:37:07Z</time>
      </trkpt>
      <trkpt lat="42.998535" lon="-1.524092">
        <ele>850.794</ele>
        <time>2019-08-22T18:37:09Z</time>
      </trkpt>
      <trkpt lat="42.99847" lon="-1.524041">
        <ele>848.985</ele>
        <time>2019-08-22T18:37:11Z</time>
      </trkpt>
      <trkpt lat="42.998377" lon="-1.52397">
        <ele>847.685</ele>
        <time>2019-08-22T18:37:12Z</time>
      </trkpt>
      <trkpt lat="42.99833" lon="-1.523956">
        <ele>846.690</ele>
        <time>2019-08-22T18:37:13Z</time>
      </trkpt>
      <trkpt lat="42.998275" lon="-1.523915">
        <ele>845.675</ele>
        <time>2019-08-22T18:37:16Z</time>
      </trkpt>
      <trkpt lat="42.998247" lon="-1.523852">
        <ele>845.826</ele>
        <time>2019-08-22T18:37:19Z</time>
      </trkpt>
      <trkpt lat="42.998255" lon="-1.52377">
        <ele>846.510</ele>
        <time>2019-08-22T18:37:23Z</time>
      </trkpt>
      <trkpt lat="42.998309" lon="-1.523709">
        <ele>846.872</ele>
        <time>2019-08-22T18:37:27Z</time>
      </trkpt>
      <trkpt lat="42.998368" lon="-1.523669">
        <ele>847.135</ele>
        <time>2019-08-22T18:37:30Z</time>
      </trkpt>
      <trkpt lat="42.998416" lon="-1.523668">
        <ele>847.543</ele>
        <time>2019-08-22T18:37:32Z</time>
      </trkpt>
      <trkpt lat="42.998465" lon="-1.523669">
        <ele>846.964</ele>
        <time>2019-08-22T18:37:34Z</time>
      </trkpt>
      <trkpt lat="42.998518" lon="-1.523651">
        <ele>845.345</ele>
        <time>2019-08-22T18:37:37Z</time>
      </trkpt>
      <trkpt lat="42.998556" lon="-1.523605">
        <ele>844.147</ele>
        <time>2019-08-22T18:37:44Z</time>
      </trkpt>
      <trkpt lat="42.998511" lon="-1.523585">
        <ele>840.638</ele>
        <time>2019-08-22T18:37:49Z</time>
      </trkpt>
      <trkpt lat="42.998453" lon="-1.523556">
        <ele>837.390</ele>
        <time>2019-08-22T18:37:52Z</time>
      </trkpt>
      <trkpt lat="42.998394" lon="-1.523517">
        <ele>833.775</ele>
        <time>2019-08-22T18:37:55Z</time>
      </trkpt>
      <trkpt lat="42.998352" lon="-1.523475">
        <ele>831.156</ele>
        <time>2019-08-22T18:37:57Z</time>
      </trkpt>
      <trkpt lat="42.998311" lon="-1.523444">
        <ele>828.047</ele>
        <time>2019-08-22T18:37:59Z</time>
      </trkpt>
      <trkpt lat="42.998258" lon="-1.523398">
        <ele>824.928</ele>
        <time>2019-08-22T18:38:01Z</time>
      </trkpt>
      <trkpt lat="42.998131" lon="-1.523297">
        <ele>822.459</ele>
        <time>2019-08-22T18:38:03Z</time>
      </trkpt>
      <trkpt lat="42.998079" lon="-1.523273">
        <ele>820.807</ele>
        <time>2019-08-22T18:38:04Z</time>
      </trkpt>
      <trkpt lat="42.998007" lon="-1.523271">
        <ele>819.427</ele>
        <time>2019-08-22T18:38:07Z</time>
      </trkpt>
      <trkpt lat="42.997939" lon="-1.523254">
        <ele>818.666</ele>
        <time>2019-08-22T18:38:09Z</time>
      </trkpt>
      <trkpt lat="42.997889" lon="-1.52324">
        <ele>817.900</ele>
        <time>2019-08-22T18:38:11Z</time>
      </trkpt>
      <trkpt lat="42.997829" lon="-1.523181">
        <ele>817.482</ele>
        <time>2019-08-22T18:38:14Z</time>
      </trkpt>
      <trkpt lat="42.997803" lon="-1.523112">
        <ele>817.325</ele>
        <time>2019-08-22T18:38:17Z</time>
      </trkpt>
      <trkpt lat="42.997817" lon="-1.523043">
        <ele>815.201</ele>
        <time>2019-08-22T18:38:21Z</time>
      </trkpt>
      <trkpt lat="42.997858" lon="-1.523007">
        <ele>814.869</ele>
        <time>2019-08-22T18:38:24Z</time>
      </trkpt>
      <trkpt lat="42.997902" lon="-1.522977">
        <ele>813.800</ele>
        <time>2019-08-22T18:38:26Z</time>
      </trkpt>
      <trkpt lat="42.997954" lon="-1.522941">
        <ele>811.964</ele>
        <time>2019-08-22T18:38:29Z</time>
      </trkpt>
      <trkpt lat="42.997993" lon="-1.522903">
        <ele>807.925</ele>
        <time>2019-08-22T18:38:31Z</time>
      </trkpt>
      <trkpt lat="42.998039" lon="-1.522858">
        <ele>803.999</ele>
        <time>2019-08-22T18:38:33Z</time>
      </trkpt>
      <trkpt lat="42.998083" lon="-1.522812">
        <ele>799.901</ele>
        <time>2019-08-22T18:38:35Z</time>
      </trkpt>
      <trkpt lat="42.998131" lon="-1.522778">
        <ele>797.383</ele>
        <time>2019-08-22T18:38:37Z</time>
      </trkpt>
      <trkpt lat="42.998181" lon="-1.522758">
        <ele>798.072</ele>
        <time>2019-08-22T18:38:39Z</time>
      </trkpt>
      <trkpt lat="42.998237" lon="-1.522739">
        <ele>798.873</ele>
        <time>2019-08-22T18:38:42Z</time>
      </trkpt>
      <trkpt lat="42.998295" lon="-1.522723">
        <ele>800.351</ele>
        <time>2019-08-22T18:38:44Z</time>
      </trkpt>
      <trkpt lat="42.998348" lon="-1.522716">
        <ele>801.637</ele>
        <time>2019-08-22T18:38:46Z</time>
      </trkpt>
      <trkpt lat="42.998404" lon="-1.522719">
        <ele>801.564</ele>
        <time>2019-08-22T18:38:49Z</time>
      </trkpt>
      <trkpt lat="42.998455" lon="-1.522726">
        <ele>802.248</ele>
        <time>2019-08-22T18:38:51Z</time>
      </trkpt>
      <trkpt lat="42.998527" lon="-1.522724">
        <ele>801.637</ele>
        <time>2019-08-22T18:38:53Z</time>
      </trkpt>
      <trkpt lat="42.99859" lon="-1.522708">
        <ele>800.062</ele>
        <time>2019-08-22T18:38:55Z</time>
      </trkpt>
      <trkpt lat="42.998634" lon="-1.522694">
        <ele>799.784</ele>
        <time>2019-08-22T18:38:56Z</time>
      </trkpt>
      <trkpt lat="42.998763" lon="-1.522652">
        <ele>800.043</ele>
        <time>2019-08-22T18:39:01Z</time>
      </trkpt>
      <trkpt lat="42.998809" lon="-1.522626">
        <ele>799.409</ele>
        <time>2019-08-22T18:39:06Z</time>
      </trkpt>
      <trkpt lat="42.998774" lon="-1.522571">
        <ele>795.458</ele>
        <time>2019-08-22T18:39:13Z</time>
      </trkpt>
      <trkpt lat="42.998725" lon="-1.522525">
        <ele>791.473</ele>
        <time>2019-08-22T18:39:18Z</time>
      </trkpt>
      <trkpt lat="42.998684" lon="-1.522488">
        <ele>787.624</ele>
        <time>2019-08-22T18:39:21Z</time>
      </trkpt>
      <trkpt lat="42.998633" lon="-1.52245">
        <ele>783.690</ele>
        <time>2019-08-22T18:39:24Z</time>
      </trkpt>
      <trkpt lat="42.998538" lon="-1.522374">
        <ele>779.605</ele>
        <time>2019-08-22T18:39:27Z</time>
      </trkpt>
      <trkpt lat="42.998445" lon="-1.522295">
        <ele>775.656</ele>
        <time>2019-08-22T18:39:28Z</time>
      </trkpt>
      <trkpt lat="42.99838" lon="-1.522227">
        <ele>772.750</ele>
        <time>2019-08-22T18:39:29Z</time>
      </trkpt>
      <trkpt lat="42.998337" lon="-1.522206">
        <ele>770.973</ele>
        <time>2019-08-22T18:39:30Z</time>
      </trkpt>
      <trkpt lat="42.998288" lon="-1.522163">
        <ele>769.451</ele>
        <time>2019-08-22T18:39:33Z</time>
      </trkpt>
      <trkpt lat="42.998232" lon="-1.5221">
        <ele>768.305</ele>
        <time>2019-08-22T18:39:34Z</time>
      </trkpt>
      <trkpt lat="42.998201" lon="-1.522054">
        <ele>767.464</ele>
        <time>2019-08-22T18:39:35Z</time>
      </trkpt>
      <trkpt lat="42.998157" lon="-1.522">
        <ele>766.509</ele>
        <time>2019-08-22T18:39:38Z</time>
      </trkpt>
      <trkpt lat="42.998119" lon="-1.521958">
        <ele>765.399</ele>
        <time>2019-08-22T18:39:41Z</time>
      </trkpt>
      <trkpt lat="42.998077" lon="-1.521908">
        <ele>764.974</ele>
        <time>2019-08-22T18:39:44Z</time>
      </trkpt>
      <trkpt lat="42.998048" lon="-1.521831">
        <ele>765.118</ele>
        <time>2019-08-22T18:39:50Z</time>
      </trkpt>
      <trkpt lat="42.998071" lon="-1.521773">
        <ele>764.661</ele>
        <time>2019-08-22T18:39:56Z</time>
      </trkpt>
      <trkpt lat="42.998064" lon="-1.521708">
        <ele>763.755</ele>
        <time>2019-08-22T18:40:04Z</time>
      </trkpt>
      <trkpt lat="42.998029" lon="-1.521663">
        <ele>762.957</ele>
        <time>2019-08-22T18:40:06Z</time>
      </trkpt>
      <trkpt lat="42.997986" lon="-1.521618">
        <ele>762.066</ele>
        <time>2019-08-22T18:40:08Z</time>
      </trkpt>
      <trkpt lat="42.997941" lon="-1.521582">
        <ele>761.424</ele>
        <time>2019-08-22T18:40:11Z</time>
      </trkpt>
      <trkpt lat="42.997896" lon="-1.521488">
        <ele>761.146</ele>
        <time>2019-08-22T18:40:43Z</time>
      </trkpt>
      <trkpt lat="42.997869" lon="-1.521435">
        <ele>759.661</ele>
        <time>2019-08-22T18:40:47Z</time>
      </trkpt>
      <trkpt lat="42.997848" lon="-1.521366">
        <ele>758.293</ele>
        <time>2019-08-22T18:40:50Z</time>
      </trkpt>
      <trkpt lat="42.99787" lon="-1.521309">
        <ele>755.384</ele>
        <time>2019-08-22T18:40:54Z</time>
      </trkpt>
      <trkpt lat="42.997839" lon="-1.521253">
        <ele>751.383</ele>
        <time>2019-08-22T18:41:00Z</time>
      </trkpt>
      <trkpt lat="42.997826" lon="-1.521173">
        <ele>748.344</ele>
        <time>2019-08-22T18:41:06Z</time>
      </trkpt>
      <trkpt lat="42.997848" lon="-1.521119">
        <ele>746.997</ele>
        <time>2019-08-22T18:41:10Z</time>
      </trkpt>
      <trkpt lat="42.997822" lon="-1.521064">
        <ele>746.025</ele>
        <time>2019-08-22T18:41:20Z</time>
      </trkpt>
      <trkpt lat="42.997788" lon="-1.521015">
        <ele>743.242</ele>
        <time>2019-08-22T18:41:24Z</time>
      </trkpt>
      <trkpt lat="42.997818" lon="-1.520958">
        <ele>739.299</ele>
        <time>2019-08-22T18:41:29Z</time>
      </trkpt>
      <trkpt lat="42.997838" lon="-1.520897">
        <ele>737.560</ele>
        <time>2019-08-22T18:41:34Z</time>
      </trkpt>
      <trkpt lat="42.997813" lon="-1.520832">
        <ele>737.094</ele>
        <time>2019-08-22T18:41:37Z</time>
      </trkpt>
      <trkpt lat="42.997843" lon="-1.520771">
        <ele>735.722</ele>
        <time>2019-08-22T18:41:41Z</time>
      </trkpt>
      <trkpt lat="42.997895" lon="-1.52076">
        <ele>734.675</ele>
        <time>2019-08-22T18:41:44Z</time>
      </trkpt>
      <trkpt lat="42.997946" lon="-1.520748">
        <ele>734.671</ele>
        <time>2019-08-22T18:41:46Z</time>
      </trkpt>
      <trkpt lat="42.998014" lon="-1.520739">
        <ele>735.243</ele>
        <time>2019-08-22T18:41:49Z</time>
      </trkpt>
      <trkpt lat="42.998069" lon="-1.520733">
        <ele>734.762</ele>
        <time>2019-08-22T18:41:51Z</time>
      </trkpt>
      <trkpt lat="42.998126" lon="-1.520728">
        <ele>734.099</ele>
        <time>2019-08-22T18:41:53Z</time>
      </trkpt>
      <trkpt lat="42.998183" lon="-1.520727">
        <ele>733.885</ele>
        <time>2019-08-22T18:41:55Z</time>
      </trkpt>
      <trkpt lat="42.998276" lon="-1.520728">
        <ele>732.114</ele>
        <time>2019-08-22T18:41:56Z</time>
      </trkpt>
      <trkpt lat="42.998379" lon="-1.520713">
        <ele>730.400</ele>
        <time>2019-08-22T18:41:58Z</time>
      </trkpt>
      <trkpt lat="42.998445" lon="-1.520714">
        <ele>727.872</ele>
        <time>2019-08-22T18:42:00Z</time>
      </trkpt>
      <trkpt lat="42.998499" lon="-1.520721">
        <ele>725.626</ele>
        <time>2019-08-22T18:42:02Z</time>
      </trkpt>
      <trkpt lat="42.998559" lon="-1.520719">
        <ele>723.739</ele>
        <time>2019-08-22T18:42:04Z</time>
      </trkpt>
      <trkpt lat="42.998622" lon="-1.520701">
        <ele>721.624</ele>
        <time>2019-08-22T18:42:07Z</time>
      </trkpt>
      <trkpt lat="42.998668" lon="-1.520694">
        <ele>717.652</ele>
        <time>2019-08-22T18:42:09Z</time>
      </trkpt>
      <trkpt lat="42.998738" lon="-1.520684">
        <ele>713.748</ele>
        <time>2019-08-22T18:42:11Z</time>
      </trkpt>
      <trkpt lat="42.998818" lon="-1.520673">
        <ele>709.707</ele>
        <time>2019-08-22T18:42:13Z</time>
      </trkpt>
      <trkpt lat="42.998884" lon="-1.520657">
        <ele>707.337</ele>
        <time>2019-08-22T18:42:15Z</time>
      </trkpt>
      <trkpt lat="42.998935" lon="-1.520646">
        <ele>705.331</ele>
        <time>2019-08-22T18:42:16Z</time>
      </trkpt>
      <trkpt lat="42.999014" lon="-1.520622">
        <ele>704.921</ele>
        <time>2019-08-22T18:42:18Z</time>
      </trkpt>
      <trkpt lat="42.999095" lon="-1.520609">
        <ele>705.320</ele>
        <time>2019-08-22T18:42:20Z</time>
      </trkpt>
      <trkpt lat="42.999161" lon="-1.520608">
        <ele>706.507</ele>
        <time>2019-08-22T18:42:22Z</time>
      </trkpt>
      <trkpt lat="42.999246" lon="-1.520609">
        <ele>707.860</ele>
        <time>2019-08-22T18:42:24Z</time>
      </trkpt>
      <trkpt lat="42.999292" lon="-1.520601">
        <ele>709.295</ele>
        <time>2019-08-22T18:42:25Z</time>
      </trkpt>
      <trkpt lat="42.999336" lon="-1.520586">
        <ele>709.887</ele>
        <time>2019-08-22T18:42:26Z</time>
      </trkpt>
      <trkpt lat="42.999389" lon="-1.520536">
        <ele>709.693</ele>
        <time>2019-08-22T18:42:28Z</time>
      </trkpt>
      <trkpt lat="42.999419" lon="-1.520471">
        <ele>708.399</ele>
        <time>2019-08-22T18:42:30Z</time>
      </trkpt>
      <trkpt lat="42.999435" lon="-1.520394">
        <ele>706.998</ele>
        <time>2019-08-22T18:42:32Z</time>
      </trkpt>
      <trkpt lat="42.999425" lon="-1.520334">
        <ele>704.591</ele>
        <time>2019-08-22T18:42:34Z</time>
      </trkpt>
      <trkpt lat="42.999412" lon="-1.520251">
        <ele>702.965</ele>
        <time>2019-08-22T18:42:37Z</time>
      </trkpt>
      <trkpt lat="42.999405" lon="-1.520186">
        <ele>700.205</ele>
        <time>2019-08-22T18:42:40Z</time>
      </trkpt>
      <trkpt lat="42.999399" lon="-1.520118">
        <ele>696.268</ele>
        <time>2019-08-22T18:42:43Z</time>
      </trkpt>
      <trkpt lat="42.999379" lon="-1.519993">
        <ele>692.262</ele>
        <time>2019-08-22T18:42:45Z</time>
      </trkpt>
      <trkpt lat="42.999368" lon="-1.519873">
        <ele>688.987</ele>
        <time>2019-08-22T18:42:47Z</time>
      </trkpt>
      <trkpt lat="42.99937" lon="-1.519803">
        <ele>687.561</ele>
        <time>2019-08-22T18:42:49Z</time>
      </trkpt>
      <trkpt lat="42.999367" lon="-1.519733">
        <ele>686.095</ele>
        <time>2019-08-22T18:42:51Z</time>
      </trkpt>
      <trkpt lat="42.999353" lon="-1.519642">
        <ele>684.447</ele>
        <time>2019-08-22T18:42:53Z</time>
      </trkpt>
      <trkpt lat="42.999304" lon="-1.519507">
        <ele>683.307</ele>
        <time>2019-08-22T18:42:55Z</time>
      </trkpt>
      <trkpt lat="42.999286" lon="-1.519449">
        <ele>682.471</ele>
        <time>2019-08-22T18:42:56Z</time>
      </trkpt>
      <trkpt lat="42.999271" lon="-1.519387">
        <ele>682.283</ele>
        <time>2019-08-22T18:42:57Z</time>
      </trkpt>
      <trkpt lat="42.999263" lon="-1.519324">
        <ele>682.090</ele>
        <time>2019-08-22T18:42:58Z</time>
      </trkpt>
      <trkpt lat="42.999263" lon="-1.519261">
        <ele>681.080</ele>
        <time>2019-08-22T18:42:59Z</time>
      </trkpt>
      <trkpt lat="42.999275" lon="-1.51916">
        <ele>679.967</ele>
        <time>2019-08-22T18:43:00Z</time>
      </trkpt>
      <trkpt lat="42.99929" lon="-1.519084">
        <ele>679.058</ele>
        <time>2019-08-22T18:43:01Z</time>
      </trkpt>
      <trkpt lat="42.999287" lon="-1.518997">
        <ele>677.886</ele>
        <time>2019-08-22T18:43:02Z</time>
      </trkpt>
      <trkpt lat="42.999308" lon="-1.518934">
        <ele>677.354</ele>
        <time>2019-08-22T18:43:03Z</time>
      </trkpt>
      <trkpt lat="42.999294" lon="-1.518866">
        <ele>676.711</ele>
        <time>2019-08-22T18:43:04Z</time>
      </trkpt>
      <trkpt lat="42.999295" lon="-1.518777">
        <ele>675.938</ele>
        <time>2019-08-22T18:43:07Z</time>
      </trkpt>
      <trkpt lat="42.999312" lon="-1.518714">
        <ele>674.649</ele>
        <time>2019-08-22T18:43:09Z</time>
      </trkpt>
      <trkpt lat="42.999338" lon="-1.51866">
        <ele>673.798</ele>
        <time>2019-08-22T18:43:11Z</time>
      </trkpt>
      <trkpt lat="42.999361" lon="-1.518572">
        <ele>673.014</ele>
        <time>2019-08-22T18:43:14Z</time>
      </trkpt>
      <trkpt lat="42.999375" lon="-1.518493">
        <ele>671.643</ele>
        <time>2019-08-22T18:43:16Z</time>
      </trkpt>
      <trkpt lat="42.999377" lon="-1.518422">
        <ele>670.085</ele>
        <time>2019-08-22T18:43:18Z</time>
      </trkpt>
      <trkpt lat="42.999377" lon="-1.518347">
        <ele>669.633</ele>
        <time>2019-08-22T18:43:20Z</time>
      </trkpt>
      <trkpt lat="42.999377" lon="-1.51828">
        <ele>670.065</ele>
        <time>2019-08-22T18:43:22Z</time>
      </trkpt>
      <trkpt lat="42.999367" lon="-1.518198">
        <ele>670.694</ele>
        <time>2019-08-22T18:43:24Z</time>
      </trkpt>
      <trkpt lat="42.999351" lon="-1.518122">
        <ele>670.574</ele>
        <time>2019-08-22T18:43:26Z</time>
      </trkpt>
      <trkpt lat="42.999327" lon="-1.518054">
        <ele>671.275</ele>
        <time>2019-08-22T18:43:28Z</time>
      </trkpt>
      <trkpt lat="42.999297" lon="-1.517989">
        <ele>671.480</ele>
        <time>2019-08-22T18:43:30Z</time>
      </trkpt>
      <trkpt lat="42.999263" lon="-1.517918">
        <ele>671.546</ele>
        <time>2019-08-22T18:43:32Z</time>
      </trkpt>
      <trkpt lat="42.999231" lon="-1.51785">
        <ele>671.935</ele>
        <time>2019-08-22T18:43:34Z</time>
      </trkpt>
      <trkpt lat="42.999228" lon="-1.517773">
        <ele>672.407</ele>
        <time>2019-08-22T18:43:36Z</time>
      </trkpt>
      <trkpt lat="42.999254" lon="-1.517704">
        <ele>672.398</ele>
        <time>2019-08-22T18:43:39Z</time>
      </trkpt>
      <trkpt lat="42.999297" lon="-1.51768">
        <ele>671.782</ele>
        <time>2019-08-22T18:43:49Z</time>
      </trkpt>
    </trkseg>
  </trk>
</gpx>
